     2.10           OBSERVATION DATA    G (GPS)             RINEX VERSION / TYPE
teqc 2005May6 SOPAC 20050707 00:32:46UTC                    PGM / RUN BY / DATE
Linux 2.4.20-8|Pentium IV|gcc|Linux|486/DX+                 COMMENT
BIT 2 OF LLI FLAGS DATA COLLECTED UNDER A/S CONDITION       COMMENT
HPGN CA 02 23                                               MARKER NAME
0223                                                        MARKER NUMBER
Tim Habon                                                   OBSERVER / AGENCY
0220223931 TRIMBLE 4700 1.30                                REC # / TYPE / VERS
0220063964 TRM22020.00+GP NONE                              ANT # / TYPE
 -2541860.0000 -4159092.0000  4101896.0000                  APPROX POSITION XYZ
        2.0000        0.0000        0.0000                  ANTENNA: DELTA H/E/N
     1     1                                                WAVELENGTH FACT L1/2
     6    L1    L2    C1    P2    P1    D1                  # / TYPES OF OBSERV
    15.0000                                                 INTERVAL
Northern California Height Modernization 2004               COMMENT
                                                            COMMENT
SOPAC - Scripps Orbit and Permanent Array Center            COMMENT
IGPP - Institute of Geophysics and Planetary Physics        COMMENT
SIO - Scripps Institution of Oceanography                   COMMENT
UCSD - University of California, San Diego                  COMMENT
                                                            COMMENT
email: archive@gpsmail.ucsd.edu                             COMMENT
ftp://garner.ucsd.edu                                       COMMENT
http://sopac.ucsd.edu                                       COMMENT
                                                            COMMENT
                                                            COMMENT
Approximate Lat, Lon : 40.271, -121.431                     COMMENT
                                                            COMMENT
SNR is mapped to RINEX snr flag value [0-9]                 COMMENT
L1 & L2: 2-19 dBHz = 1, 20-27 dBHz = 2, 28-31 dBHz = 3      COMMENT
32-35 dBHz = 4, 36-38 dBHz = 5, 39-41 dBHz = 6              COMMENT
42-44 dBHz = 7, 45-48 dBHz = 8, >= 49 dBHz = 9              COMMENT
  2004     9    10    20    58   15.0000000     GPS         TIME OF FIRST OBS
                                                            END OF HEADER
 04  9 10 20 58 15.0000000  0  6G 3G 8G13G16G23G27
    -16372.29358    -10149.59354  23172156.6254   23172157.4654
      1354.0784
    -40883.06359    -16854.44955  23036824.0314   23036823.7584
      2861.0784
     -6418.23559     -6362.00258  20342382.0784   20342379.9224
       450.4844
     36561.90016                  24264665.672
     -3011.031
     28867.90859      4397.12158  21595080.3134   21595076.9884
     -1986.5474
    -24091.47659    -12697.47358  21634596.4304   21634594.8874
      1641.5634
 04  9 10 20 58 30.0000000  0  6G 3G 8G13G16G23G27
    -36716.49648    -26002.19144  23168285.8984   23168285.8204
      1358.8754
    -83875.06348    -50354.66045  23028642.3834   23028642.9344
      2871.5634
    -13214.75749    -11657.98248  20341088.9384   20341086.4494
       456.1094
     81652.96046     43930.04152  24273247.1094   24273246.3484
     -3000.8754
     58616.72549     27578.00247  21600741.2344   21600737.9344
     -1979.4844
    -48788.11049    -31941.58747  21629896.4534   21629895.2734
      1651.7504
 04  9 10 20 58 45.0000000  0  6G 3G 8G13G16G23G27
    -57144.77648    -41920.33244  23164398.1484   23164398.2854
      1364.9694
   -127038.18148    -83988.23245  23020428.8284   23020429.2584
      2883.5784
    -20111.44249    -17032.03148  20339776.6254   20339774.1564
       463.4694
    126577.85546     78936.37342  24281795.9304   24281795.4064
     -2989.1254
     88245.06649     50664.99147  21606379.1724   21606376.0234
     -1970.8754
    -73652.02149    -51316.06048  21625165.0314   21625163.9454
      1663.5164
 04  9 10 20 59  0.0000000  0  7G 3G 8G13G16G19G23G27
    -77669.69048    -57913.75344  23160492.5474   23160492.7034
      1371.5004
   -170385.11548   -117765.05445  23012180.5554   23012180.3714
      2895.8754
    -27120.76349    -22493.84948  20338442.7894   20338439.8284
       470.9844
    171323.42846    113802.98742  24290310.7274   24290310.4264
     -2977.1094
   -144681.95757   -111512.66753  24118780.5784   24118781.3754
      2983.6254
    117740.06449     73648.08747  21611992.0084   21611988.9494
     -1961.9844
    -98696.01849    -70830.85747  21620399.3524   21620398.0664
      1675.5164
 04  9 10 20 59 15.0000000  0  7G 3G 8G13G16G19G23G27
    -98288.21548    -73980.12044  23156568.4144   23156568.9144
      1377.5784
   -213912.73549   -151682.64444  23003897.4614   23003897.2544
      2907.7814
    -34239.97049    -28041.28148  20337087.9774   20337085.5314
       478.1884
    215892.13546    148531.86542  24298791.3984   24298791.2074
     -2965.5164
   -189523.27447   -146453.83543  24110248.0474   24110247.6564
      2995.1254
    147104.39849     96529.36947  21617580.3204   21617576.3754
     -1953.3444
   -123917.24749    -90483.75048  21615599.8444   21615598.2894
      1687.2344
 04  9 10 20 59 30.0000000  0  7G 3G 8G13G16G19G23G27
   -118997.97748    -90117.57644  23152628.0314   23152628.2384
      1383.5314
   -257619.16848   -185739.58744  22995580.1414   22995580.4924
      2919.6564
    -41466.84749    -33672.61748  20335712.9454   20335710.4694
       485.2034
    260285.82046    183124.31142  24307239.5394   24307239.0234
     -2953.8124
   -234537.32847   -181529.62544  24101681.9064   24101681.9534
      3006.5634
    176339.93549    119310.27547  21623143.4844   21623139.9064
     -1944.8284
   -149313.64849   -110273.14948  21610767.0704   21610765.8874
      1698.7814
 04  9 10 20 59 45.0000000  0  7G 3G 8G13G16G19G23G27
   -139784.85848   -106315.12144  23148671.9064   23148672.1334
      1388.2034
   -301490.71348   -219925.16645  22987231.5704   22987231.7624
      2930.1094
    -48787.36149    -39376.91448  20334319.4844   20334317.0594
       491.0314
    304517.98545    217590.86142  24315656.4064   24315656.4694
     -2943.4374
   -279709.87747   -216728.90144  24093085.0704   24093086.3324
      3016.7664
    205460.59349    142001.68147  21628685.1724   21628681.5904
     -1937.6254
   -174871.39249   -130188.26748  21605903.5314   21605902.8594
      1709.1094
 04  9 10 21  0  0.0000000  0  7G 3G 8G13G16G19G23G27
   -160641.68548   -122567.18244  23144703.1884   23144703.1524
      1392.5784
   -345520.18649   -254233.82045  22978852.8134   22978853.3754
      2940.3134
    -56194.54349    -45148.75448  20332910.2424   20332907.4574
       496.4534
    348595.29845    251936.83042  24324043.8594   24324043.4804
     -2933.5004
   -325033.45447   -252045.86843  24084460.6724   24084460.6954
      3026.3134
    234473.21249    164608.89347  21634205.6414   21634202.5234
     -1930.7974
   -200583.54849   -150223.70548  21601010.7274   21601009.2154
      1719.0634
 04  9 10 21  0 15.0000000  0  7G 3G 8G13G16G19G23G27
   -181557.37248   -138865.10144  23140723.2974   23140723.5314
      1395.9844
   -389696.55948   -288656.92945  22970446.3204   22970447.1094
      2949.7034
    -63677.29549    -50979.46848  20331486.3674   20331483.8594
       501.0314
    392528.53646    286170.43742  24332404.9774   24332404.0944
     -2924.3914
   -370496.87846   -287471.81144  24075808.9064   24075809.9924
      3035.2664
    263388.72149    187140.44047  21639708.3364   21639704.6844
     -1924.7814
   -226439.10449   -170370.87847  21596090.2894   21596089.2074
      1728.1564
 04  9 10 21  0 30.0000000  0  7G 3G 8G13G16G19G23G27
   -202522.66848   -155201.68844  23136733.6724   23136733.5164
      1398.7814
   -434010.84548   -323187.51845  22962013.9774   22962014.2544
      2958.4224
    -71226.37649    -56861.87148  20330049.6724   20330047.3914
       504.9844
    436326.31446    320298.52242  24340739.2974   24340738.6134
     -2915.8754
   -416090.61547   -322999.28044  24067133.0634   24067133.3714
      3043.4534
    292216.02149    209603.24447  21645194.0004   21645190.2194
     -1919.4064
   -252429.17749   -190622.88047  21591144.7344   21591143.1294
      1736.6254
 04  9 10 21  0 45.0000000  0  7G 3G 8G13G16G19G23G27
   -223524.61048   -171566.83543  23132736.8284   23132737.4384
      1400.6414
   -478450.47848   -357815.77345  22953557.4774   22953557.5274
      2966.1094
    -78829.05549    -62786.03848  20328602.8674   20328600.6334
       507.8594
    480000.84446    354330.61942  24349050.1804   24349048.7504
     -2908.2194
   -461801.80547   -358618.29943  24058434.7344   24058434.4264
      3050.6564
    320967.51149    232006.99547  21650665.2194   21650662.0904
     -1914.9224
   -278541.05049   -210969.78947  21586175.8594   21586174.9574
      1744.1254
 04  9 10 21  1  0.0000000  0  7G 3G 8G13G16G19G23G27
   -244551.06248   -187951.04543  23128735.8204   23128735.8524
      1402.4064
   -523003.40049   -392532.29345  22945078.7974   22945079.5474
      2973.8134
    -86473.12149    -68742.44348  20327148.3984   20327146.0124
       510.8134
    523563.94545    388275.83942  24357340.6174   24357339.4804
     -2900.6724
   -507618.04747   -394319.16744  24049716.1334   24049716.1484
      3057.7814
    349655.23749    254361.04847  21656124.2034   21656121.0634
     -1910.5474
   -304762.84949   -231402.33947  21581185.7274   21581184.7664
      1751.6414
 04  9 10 21  1 15.0000000  0  7G 3G 8G13G16G19G23G27
   -265599.09648   -204352.10443  23124730.1804   23124730.7584
      1403.6094
   -567666.59848   -427334.75545  22936580.0474   22936580.6524
      2980.9064
    -94155.78549    -74728.94948  20325686.4924   20325683.9064
       513.1564
    567017.98946    422136.14742  24365608.8134   24365608.5554
     -2893.5474
   -553536.25447   -430099.46943  24040977.3444   24040977.8244
      3064.2974
    378281.74149    276667.38947  21661571.7734   21661568.2894
     -1906.6414
   -331091.78549   -251918.38447  21576175.6174   21576174.3204
      1758.5474
 04  9 10 21  1 30.0000000  0  7G 3G 8G13G16G19G23G27
   -286654.62148   -220758.98044  23120723.5314   23120723.9184
      1403.7664
   -612426.16348   -462212.28845  22928062.3834   22928062.7074
      2987.0004
   -101863.22249    -80734.73748  20324219.6484   20324217.2934
       514.5164
    610376.41145    455921.89842  24373859.3204   24373859.3134
     -2887.5784
   -599542.15047   -465948.09643  24032223.5634   24032223.0004
      3069.7974
    406860.71249    298936.69447  21667010.1724   21667006.7234
     -1903.7974
   -357514.16749   -272507.23047  21571147.8834   21571146.3794
      1764.4224
 04  9 10 21  1 45.0000000  0  7G 3G 8G13G16G19G23G27
   -307716.53448   -237170.83444  23116715.6254   23116715.7544
      1404.3134
   -657281.37348   -497164.37045  22919526.5944   22919527.0434
      2993.5314
   -109594.27349    -86758.92948  20322748.5394   20322745.8874
       516.1884
    653639.92546    489633.63442  24382092.3134   24382092.5044
     -2881.1094
   -645634.44947   -501864.06943  24023452.4144   24023452.2814
      3075.6884
    435392.95049    321169.60047  21672439.6884   21672436.0124
     -1900.5784
   -384028.91849   -293168.07748  21566102.1644   21566100.9344
      1770.6724
 04  9 10 21  2  0.0000000  0  7G 3G 8G13G16G19G23G27
   -328776.36148   -253581.07744  23112708.0394   23112708.4614
      1403.5314
   -702223.92249   -532184.49845  22910974.4534   22910974.7774
      2998.6724
   -117340.61749    -92795.05248  20321274.6024   20321271.8094
       516.4384
    696816.49545    523277.69042  24390308.9924   24390308.1174
     -2876.0624
   -691804.60947   -537840.71944  24014665.8984   24014665.4654
      3080.1414
    463886.66849    343372.47447  21677861.7274   21677858.4064
     -1898.7194
   -410627.94749   -313894.58447  21561040.6254   21561039.4774
      1775.6414
 04  9 10 21  2 15.0000000  0  6G 3G 8G13G19G23G27
   -349822.72048   -269980.79644  23108702.6254   23108703.7664
      1402.6254
   -747242.66449   -567264.00745  22902407.8444   22902408.2974
      3003.8134
   -125090.77249    -98834.13248  20319799.8134   20319797.2664
       516.7814
   -738041.12747   -573869.07743  24005867.1094   24005867.5824
      3084.6884
    492352.90349    365553.94347  21683278.6174   21683275.2034
     -1896.8124
   -437299.90849   -334677.91447  21555964.9534   21555964.1604
      1780.5164
 04  9 10 21  2 30.0000000  0  6G 3G 8G13G19G23G27
   -370853.83948   -286368.66144  23104700.4224   23104701.6134
      1401.4534
   -792335.79449   -602401.47045  22893827.3444   22893826.8484
      3008.5784
   -132843.16949   -104874.95748  20318324.3914   20318321.8834
       516.7504
   -784341.82047   -609947.41843  23997056.6254   23997056.3134
      3088.5944
    520793.27549    387715.25247  21688690.7424   21688687.6804
     -1895.3124
   -464043.35149   -355516.95347  21550875.9694   21550875.0474
      1785.1414
 04  9 10 21  2 45.0000000  0  6G 3G 8G13G19G23G27
   -391862.57148   -302739.06944  23100702.2664   23100703.2584
      1399.9224
   -837496.19049   -637591.34845  22885233.2114   22885232.8674
      3012.9384
   -140590.63549   -110911.94448  20316850.3284   20316847.7464
       516.3284
   -830699.53547   -646070.20743  23988235.1884   23988234.6484
      3092.4064
    549214.59549    409861.71147  21694099.4064   21694095.7424
     -1894.1094
   -490851.17849   -376406.15647  21545774.4694   21545773.2774
      1789.3284
 04  9 10 21  3  0.0000000  0  6G 3G 8G13G19G23G27
   -412844.42448   -319088.52344  23096709.8284   23096710.8244
      1398.0164
   -882720.12949   -672830.75545  22876627.3914   22876627.0234
      3017.1884
   -148328.91249   -116941.76848  20315377.6024   20315375.3914
       515.7194
   -877109.57147   -682233.76843  23979403.2194   23979403.3674
      3095.8914
    577620.98549    431996.54547  21699504.8054   21699501.3754
     -1893.1254
   -517719.37749   -397342.40247  21540661.7504   21540660.4694
      1793.3134
 04  9 10 21  3 15.0000000  0  6G 3G 8G13G19G23G27
   -433794.86148   -335413.51444  23092723.4304   23092724.4384
      1395.9694
   -928002.98348   -708116.05545  22868010.0864   22868010.2154
      3021.0784
   -156053.60749   -122961.01148  20313907.5234   20313905.0164
       514.8284
   -923567.24046   -718434.43343  23970561.8204   23970562.7274
      3099.0634
    606016.54349    454122.94447  21704908.2274   21704904.4804
     -1892.3914
   -544643.62049   -418322.31847  21535538.2894   21535537.0314
      1797.1094
 04  9 10 21  3 30.0000000  0  6G 3G 8G13G19G23G27
   -454704.97748   -351707.08344  23088743.8524   23088744.7194
      1392.3134
   -973335.75248   -743440.25245  22859383.5784   22859383.4414
      3023.5164
   -163755.82549   -128962.74648  20312442.0784   20312439.4844
       512.3754
   -970063.43146   -754665.14943  23961714.3444   23961714.2344
      3100.6094
    634409.95249    476247.65747  21710311.2584   21710308.0784
     -1893.2034
   -571615.07549   -439339.03047  21530405.4844   21530404.5204
      1799.3284
 04  9 10 21  3 45.0000000  0  6G 3G 8G13G19G23G27
   -475570.76148   -367966.11044  23084774.1024   23084774.3554
      1389.4064
  -1018714.83248   -778800.53445  22850747.7974   22850748.1994
      3026.5944
   -171431.66649   -134943.91348  20310981.3914   20310978.9064
       510.6254
  -1016594.02747   -790922.67243  23952860.0554   23952859.2154
      3103.1414
    662804.91949    498373.59347  21715714.7424   21715711.2814
     -1893.1874
   -598630.01049   -460389.60747  21525264.8364   21525264.0554
      1802.2504
 04  9 10 21  4  0.0000000  0  6G 3G 8G13G19G23G27
   -496385.99948   -384185.73744  23080812.7274   23080813.5004
      1386.1414
  -1064134.31549   -814192.30545  22842105.5084   22842104.8834
      3029.3284
   -179074.90149   -140899.68848  20309526.8674   20309524.4694
       508.5784
  -1063152.58447   -827201.96043  23943999.8284   23944000.1524
      3104.7974
    691207.36749    520505.34447  21721119.5394   21721116.1564
     -1893.6564
   -625682.47549   -481469.44347  21520116.8674   21520115.3284
      1804.8594
 04  9 10 21  4 15.0000000  0  6G 3G 8G13G19G23G27
   -517149.47548   -400365.04644  23076862.1564   23076862.2934
      1382.7194
  -1109592.59448   -849614.30845  22833454.7584   22833454.7194
      3032.0784
   -186684.41449   -146829.18048  20308078.8054   20308076.2734
       506.4224
  -1109737.60547   -863501.87243  23935134.7894   23935135.1954
      3106.7034
    719618.30849    542643.73247  21726525.9844   21726522.4844
     -1894.1254
   -652771.41949   -502577.69447  21514961.8984   21514960.7664
      1807.3444
 04  9 10 21  4 30.0000000  0  6G 3G 8G13G19G23G27
   -537856.73648   -416500.55544  23072921.2814   23072921.6054
      1378.2814
  -1155085.62848   -885063.38845  22824797.3054   22824797.4184
      3033.7504
   -194255.92649   -152729.06048  20306637.9224   20306635.3674
       503.2034
  -1156344.51647   -899818.85543  23926266.0084   23926265.4614
      3107.5634
    748041.69449    564791.80247  21731934.8204   21731931.5354
     -1895.5944
   -679892.54649   -523711.02347  21509801.2504   21509800.0984
      1808.8134
 04  9 10 21  4 45.0000000  0  6G 3G 8G13G19G23G27
   -558504.48248   -432589.67044  23068991.9614   23068992.5354
      1374.4064
  -1200610.48849   -920537.28445  22816134.7194   22816134.0984
      3035.9384
   -201786.22949   -158596.83148  20305204.9774   20305202.5594
       500.4844
  -1202969.91746   -936150.23743  23917392.9454   23917393.6884
      3108.7974
    776480.58149    586951.95247  21737346.4224   21737343.2034
     -1896.5314
   -707042.71149   -544866.99047  21504634.7344   21504633.8794
      1810.8914
 04  9 10 21  5  0.0000000  0  6G 3G 8G13G19G23G27
   -579085.11748   -448626.49344  23065075.6094   23065076.3634
      1369.8284
  -1246159.72848   -956030.15745  22807466.9064   22807466.9064
      3037.4064
   -209267.78249   -164426.60448  20303781.3834   20303778.5204
       497.1564
  -1249606.08147   -972490.02543  23908518.9534   23908518.8094
      3109.5314
    804942.31149    609129.91647  21742762.7734   21742759.2344
     -1898.2034
   -734214.72949   -566039.96648  21499463.4384   21499462.3364
      1812.1564
 04  9 10 21  5 15.0000000  0  6G 3G 8G13G19G23G27
   -599600.71948   -464612.66044  23061171.5474   23061172.1684
      1365.3914
  -1291735.59248   -991543.77345  22798793.6254   22798793.8094
      3039.1564
   -216702.59449   -170219.97048  20302366.5394   20302364.0594
       493.9384
  -1296254.82047  -1008839.61243  23899641.6254   23899641.8364
      3110.3444
    833424.48449    631323.79347  21748183.0164   21748179.0944
     -1899.6564
   -761410.66849   -587231.59948  21494288.5164   21494287.0704
      1813.7504
 04  9 10 21  5 30.0000000  0  6G 3G 8G13G19G23G27
   -620045.16348   -480543.37544  23057280.6334   23057281.8444
      1360.2814
  -1337332.19148  -1027073.55845  22790116.7114   22790117.0084
      3040.1884
   -224084.88349   -175972.40248  20300961.8914   20300959.3364
       490.1724
  -1342909.99647  -1045194.19043  23890764.6724   23890763.4384
      3110.2814
    861932.82249    653538.05947  21753607.7894   21753604.5904
     -1901.6874
   -788624.93749   -608437.51447  21489109.8364   21489108.3794
      1814.6254
 04  9 10 21  5 45.0000000  0  6G 3G 8G13G19G23G27
   -640419.57948   -496419.50644  23053404.0004   23053404.3984
      1355.8594
  -1382950.29248  -1062620.09045  22781436.3054   22781436.2274
      3041.8284
   -231415.54649   -181684.59948  20299566.6884   20299564.5004
       486.9224
  -1389572.28347  -1081554.33943  23881884.4064   23881883.4574
      3111.0164
    890465.99549    675771.69447  21759037.5554   21759033.7734
     -1903.1724
   -815858.41749   -629658.38748  21483927.5474   21483926.1644
      1816.1254
 04  9 10 21  6  0.0000000  0  6G 3G 8G13G19G23G27
   -660717.28748   -512235.88744  23049541.5234   23049542.3444
      1350.8284
  -1428583.67048  -1098178.53445  22772752.7034   22772752.2854
      3042.9064
   -238688.13349   -187351.55348  20298182.6094   20298180.4304
       483.1564
  -1436234.93447  -1117914.76343  23873004.2814   23873003.4694
      3111.1254
    919030.39949    698029.65347  21764473.2194   21764469.9614
     -1905.1414
   -843104.92249   -650889.41548  21478742.5554   21478740.9774
      1817.0474
 04  9 10 21  6 15.0000000  0  6G 3G 8G13G19G23G27
   -680940.65848   -527994.32844  23045692.8674   23045693.3324
      1345.6254
  -1474234.82848  -1133750.84245  22764065.5164   22764065.3164
      3043.8754
   -245905.02749   -192975.10948  20296809.6484   20296807.2584
       479.1564
  -1482900.01947  -1154277.09544  23864124.2814   23864123.7304
      3110.9064
    947623.49449    720309.95447  21769913.7894   21769910.5004
     -1907.2664
   -870366.93549   -672132.54047  21473554.8754   21473553.8094
      1817.8284
 04  9 10 21  6 30.0000000  0  6G 3G 8G13G19G23G27
   -701081.79048   -543688.69044  23041860.3914   23041860.7464
      1339.2814
  -1519896.19448  -1169331.08645  22755376.1954   22755376.2234
      3043.6254
   -253058.58749   -198549.30948  20295448.1644   20295445.6604
       474.0784
  -1529559.59146  -1190635.13644  23855244.8834   23855244.6214
      3109.6724
    976252.61049    742618.34947  21775362.3284   21775358.8484
     -1910.5624
   -897636.70249   -693381.68348  21468366.0634   21468364.6334
      1817.5004
 04  9 10 21  6 45.0000000  0  6G 3G 8G13G19G23G27
   -721140.31448   -559318.68144  23038042.7974   23038043.2274
      1334.5634
  -1565567.76448  -1204919.28745  22746685.3134   22746685.3524
      3045.2664
   -260148.45349   -204073.88648  20294098.9534   20294096.4224
       470.7034
  -1576213.11546  -1226988.43744  23846368.1414   23846366.9264
      3110.1564
   1004917.80348    764954.84247  21780816.6804   21780813.5314
     -1912.0944
   -924914.21249   -714636.87148  21463174.6804   21463173.8914
      1818.9064
 04  9 10 21  7  0.0000000  0  6G 3G 8G13G19G23G27
   -741114.11948   -574882.65844  23034242.4694   23034242.2664
      1328.4844
  -1611247.04648  -1240513.49345  22737992.5554   22737992.8204
      3045.2194
   -267172.51849   -209547.18248  20292762.4534   20292759.9804
       465.7664
  -1622858.10547  -1263335.10144  23837491.4384   23837490.8954
      3109.1414
   1033621.01449    787320.96247  21786278.4304   21786275.3484
     -1915.1254
   -952197.44449   -735896.52248  21457983.1724   21457981.9734
      1818.7814
 04  9 10 21  7 15.0000000  0  6G 3G 8G13G19G23G27
   -760996.15948   -590375.14244  23030458.7814   23030458.8594
      1322.5784
  -1656927.47148  -1276108.59845  22729300.1174   22729300.0634
      3045.5784
   -274123.89349   -214963.83048  20291439.3284   20291436.7424
       461.2194
  -1669487.55047  -1299669.65344  23828617.2504   23828617.2034
      3108.3284
   1062368.86449    809721.86347  21791749.5864   21791746.3914
     -1917.7344
   -979479.59649   -757155.33448  21452791.4844   21452789.9104
      1819.0164
 04  9 10 21  7 30.0000000  0  6G 3G 8G13G19G23G27
   -780789.84748   -605798.76744  23026692.3444   23026692.3874
      1316.4384
  -1702612.46448  -1311707.26145  22720606.3674   22720606.3554
      3045.5944
   -281006.02449   -220326.53148  20290129.6334   20290127.3714
       456.2814
  -1716104.62847  -1335994.59244  23819747.2664   23819746.3484
      3107.1564
   1091157.76349    832154.74847  21797227.8134   21797224.3524
     -1920.8754
  -1006764.28549   -778416.10548  21447599.4534   21447597.8914
      1818.9064
 04  9 10 21  7 45.0000000  0  6G 3G 8G13G19G23G27
   -800493.49748   -621152.24744  23022942.7504   23022943.0044
      1310.6564
  -1748300.43148  -1347308.24145  22711911.9694   22711911.8794
      3045.9844
   -287817.34049   -225634.04648  20288833.8754   20288831.3794
       451.7504
  -1762707.61047  -1372308.53644  23810878.3444   23810877.5904
      3106.4694
   1119989.08049    854620.69146  21802714.2974   21802711.0944
     -1923.4694
  -1034049.93049   -799677.63348  21442407.1174   21442405.3284
      1819.1564
 04  9 10 21  8  0.0000000  0  6G 3G 8G13G19G23G27
   -820098.83648   -636429.10744  23019212.1804   23019211.8714
      1303.9384
  -1793983.31748  -1382905.27445  22703219.0864   22703218.9774
      3045.5634
   -294549.61649   -230879.97448  20287552.6564   20287550.3634
       446.3754
  -1809287.79047  -1408604.71244  23802014.0164   23802013.1724
      3104.7974
   1148870.81549    877125.91747  21808210.3914   21808206.7974
     -1926.8444
  -1061328.47849   -820933.64448  21437215.8984   21437214.9304
      1818.5784
 04  9 10 21  8 15.0000000  0  6G 3G 8G13G19G23G27
   -839607.87748   -651630.93944  23015499.6174   23015499.8324
      1297.2194
  -1839663.30748  -1418500.03245  22694526.4454   22694526.7274
      3045.0474
   -301204.90249   -236065.91648  20286286.2734   20286283.7114
       440.8754
  -1855846.97446  -1444884.51944  23793153.8054   23793153.3134
      3103.0314
   1177800.64549    899668.62447  21813715.5704   21813712.3284
     -1930.4534
  -1088602.24749   -842185.90648  21432026.1414   21432025.0904
      1817.9064
 04  9 10 21  8 30.0000000  0  6G 3G 8G13G19G23G27
   -859018.46148   -666756.03244  23011805.8984   23011805.8484
      1290.4694
  -1885338.23648  -1454090.84345  22685834.7194   22685834.9344
      3044.6564
   -307781.09849   -241190.22048  20285034.9144   20285032.5824
       435.5634
  -1902382.84947  -1481146.17444  23784298.9304   23784298.4574
      3101.4534
   1206780.49649    922250.30147  21819230.4454   21819226.8054
     -1933.8444
  -1115869.10849   -863432.80547  21426837.3054   21426835.8364
      1817.3444
 04  9 10 21  8 45.0000000  0  6G 3G 8G13G19G23G27
   -878327.28248   -681801.86244  23008131.1334   23008131.3204
      1283.7974
  -1931005.27248  -1489675.52345  22677144.5234   22677144.4654
      3044.1724
   -314275.02749   -246250.42748  20283799.0394   20283796.6484
       430.0474
  -1948891.84246  -1517386.88644  23775448.5084   23775448.1914
      3099.6564
   1235813.26249    944873.20747  21824755.2664   21824751.8594
     -1937.3124
  -1143125.94849   -884671.89448  21421650.6804   21421649.0004
      1816.7814
 04  9 10 21  9  0.0000000  0  6G 3G 8G13G19G23G27
   -897535.57848   -696769.32844  23004476.0234   23004476.2074
      1276.7344
  -1976665.37348  -1525254.78945  22668455.4924   22668455.1884
      3043.2974
   -320687.80449   -251247.39648  20282578.8364   20282576.5084
       424.3284
  -1995374.89947  -1553607.40244  23766602.5944   23766602.5474
      3097.5784
   1264897.58249    967536.29847  21830289.3134   21830286.1804
     -1941.1254
  -1170374.09449   -905904.19548  21416465.2344   21416463.9184
      1815.8444
 04  9 10 21  9 15.0000000  0  6G 3G 8G13G19G23G27
   -916638.96348   -711655.05844  23000841.0864   23000841.0164
      1270.0474
  -2022314.47349  -1560825.46945  22659769.1414   22659768.6214
      3042.8914
   -327015.38149   -256177.97548  20281374.6564   20281372.3524
       418.9844
  -2041827.78147  -1589804.37144  23757762.8054   23757762.6254
      3095.8754
   1294037.35549    990242.58647  21835834.6644   21835831.7194
     -1944.5314
  -1197609.58049   -927126.65548  21411282.7894   21411281.3484
      1815.2504
 04  9 10 21  9 30.0000000  0  6G 3G 8G13G19G23G27
   -935637.43548   -726459.05844  22997225.1884   22997225.4494
      1263.4844
  -2067952.76948  -1596387.75745  22651084.0004   22651083.9104
      3042.5634
   -333257.72149   -261042.14248  20280186.7664   20280184.4654
       413.6884
  -2088250.10547  -1625977.56644  23748929.5314   23748928.4694
      3094.2194
   1323232.29649   1012991.86747  21841390.1804   21841386.7854
     -1947.7814
  -1224832.61749   -948339.39148  21406102.4534   21406100.8594
      1814.8284
 04  9 10 21  9 45.0000000  0  6G 3G 8G13G19G23G27
   -954530.28648   -741180.72944  22993630.5004   22993630.0354
      1256.0164
  -2113579.68449  -1631941.15345  22642401.6564   22642401.1174
      3041.4064
   -339414.25849   -265839.43148  20279015.2194   20279012.6884
       407.5784
  -2134641.06147  -1662126.28344  23740100.5784   23740101.0784
      3091.7974
   1352482.83549   1035784.48046  21846956.4614   21846953.1994
     -1951.8284
  -1252042.51749   -969541.90348  21400924.5004   21400923.1844
      1813.6094
 04  9 10 21 10  0.0000000  0  6G 3G 8G13G19G23G27
   -973315.48948   -755818.52244  22990055.6174   22990055.5864
      1248.8134
  -2159193.05148  -1667484.02245  22633721.5864   22633721.3484
      3040.4534
   -345483.01049   -270568.33748  20277860.1644   20277857.7154
       401.5474
  -2180998.24246  -1698248.72744  23731279.9774   23731279.3054
      3089.2814
   1381790.74749   1058621.78146  21852533.3914   21852530.5634
     -1955.8124
  -1279237.34349   -990732.67047  21395749.3834   21395748.1804
      1812.4384
 04  9 10 21 10 15.0000000  0  6G 3G 8G13G19G23G27
   -991996.26748   -770374.94944  22986500.3284   22986500.8094
      1241.4694
  -2204796.50148  -1703019.12845  22625043.5004   22625043.7464
      3039.4064
   -351467.08349   -275231.23648  20276721.6174   20276718.9384
       395.6254
  -2227324.71746  -1734347.18744  23722463.3914   23722463.7814
      3086.8914
   1411152.56749   1081501.10347  21858120.9694   21858117.3594
     -1959.6564
  -1306420.66649  -1011914.46148  21390576.7034   21390574.8484
      1811.3594
 04  9 10 21 10 30.0000000  0  6G 3G 8G13G19G23G27
  -1010566.98148   -784845.60144  22982966.9224   22982967.2974
      1234.2814
  -2250384.68249  -1738542.35945  22616368.6254   22616368.8054
      3038.5944
   -357361.05549   -279823.95148  20275600.0944   20275597.9344
       389.8444
  -2273614.66847  -1770417.23144  23713656.5004   23713654.5124
      3084.6724
   1440573.54649   1104426.51447  21863719.5944   21863716.1724
     -1963.4374
  -1333586.97649  -1033083.01148  21385407.1174   21385405.4804
      1810.4534
 04  9 10 21 10 45.0000000  0  6G 3G 8G13G19G23G27
  -1029028.12948   -799230.89044  22979453.6414   22979454.5274
      1226.7974
  -2295957.97149  -1774053.97345  22607696.0234   22607696.4414
      3037.3594
   -363165.55549   -284346.93948  20274495.2974   20274493.0354
       383.6564
  -2319868.46947  -1806459.08744  23704853.2274   23704852.8094
      3082.2344
   1470052.93049   1127397.43347  21869329.1564   21869326.2274
     -1967.5164
  -1360736.88249  -1054238.77347  21380240.3594   21380238.9804
      1809.2194
 04  9 10 21 11  0.0000000  0  6G 3G 8G13G19G23G27
  -1047375.63548   -813527.62344  22975962.1644   22975962.9574
      1219.2664
  -2341512.44649  -1809550.95545  22599027.3444   22599027.4384
      3036.2504
   -368876.55549   -288797.06748  20273408.5554   20273406.0704
       377.5474
  -2366081.79446  -1842469.42244  23696059.2274   23696058.7464
      3079.5634
   1499594.58349   1150416.87947  21874950.8984   21874948.1484
     -1971.6254
  -1387866.56349  -1075378.78148  21375078.1254   21375076.4924
      1807.9064
 04  9 10 21 11 15.0000000  0  6G 3G 8G13G19G23G27
  -1065613.59548   -827739.00644  22972491.5474   22972491.7664
      1211.5634
  -2387052.37148  -1845036.58245  22590360.8364   22590361.1844
      3034.8134
   -374498.12549   -293177.51948  20272339.1414   20272336.7854
       371.0784
  -2412258.50946  -1878451.22844  23687272.4384   23687271.9614
      3076.6094
   1529194.10349   1173481.41547  21880583.8054   21880580.2734
     -1975.9224
  -1414980.19449  -1096506.27247  21369918.2974   21369916.8754
      1806.3914
 04  9 10 21 11 30.0000000  0  6G 3G 8G13G19G23G27
  -1083739.22248   -841862.85044  22969042.5164   22969042.7504
      1204.2194
  -2432575.05948  -1880508.76645  22581699.1174   22581698.2774
      3033.8914
   -380027.76749   -297486.32848  20271286.8834   20271284.2424
       365.2344
  -2458395.58546  -1914402.12044  23678492.0944   23678491.3014
      3074.0314
   1558853.95449   1196592.96647  21886227.7584   21886224.3554
     -1979.7034
  -1442075.20549  -1117619.26048  21364762.5634   21364760.6914
      1805.3754
 04  9 10 21 11 45.0000000  0  6G 3G 8G13G19G23G27
  -1101751.16048   -855898.10844  22965615.1564   22965615.1914
      1197.2034
  -2478079.17148  -1915966.48845  22573039.5554   22573039.7774
      3033.0944
   -385463.91449   -301722.28448  20270252.0474   20270249.6644
       359.4384
  -2504491.42047  -1950320.89844  23669720.7734   23669719.9384
      3071.8444
   1588575.30249   1219752.43447  21891883.6254   21891880.0354
     -1983.3444
  -1469150.33149  -1138716.74848  21359610.1724   21359608.6414
      1804.5004
 04  9 10 21 12  0.0000000  0  6G 3G 8G13G19G23G27
  -1119649.32148   -869844.70944  22962208.9844   22962209.2344
      1189.0164
  -2523564.76449  -1951409.76945  22564384.2274   22564383.9144
      3031.3284
   -390806.49449   -305885.33748  20269235.5234   20269232.9844
       352.6414
  -2550545.72447  -1986207.31844  23660956.4844   23660956.5234
      3068.5314
   1618357.87749   1242959.61146  21897551.2114   21897547.7854
     -1987.9224
  -1496205.65249  -1159798.80548  21354461.9774   21354459.6134
      1802.6094
 04  9 10 21 12 15.0000000  0  6G 3G 8G13G19G23G27
  -1137429.59448   -883699.45544  22958825.3834   22958826.2074
      1181.5474
  -2569027.99848  -1986835.63045  22555732.5784   22555732.6684
      3030.2034
   -396051.51149   -309972.36348  20268237.5944   20268234.8444
       346.5004
  -2596554.10847  -2022057.95344  23652202.0004   23652200.6174
      3065.7194
   1648205.60049   1266217.54746  21903230.9534   21903227.6524
     -1991.9694
  -1523237.25449  -1180862.38148  21349317.9064   21349316.4924
      1801.3444
 04  9 10 21 12 30.0000000  0  6G 3G 8G13G19G23G27
  -1155094.74248   -897464.49144  22955463.6644   22955464.5004
      1173.7504
  -2614471.76848  -2022246.34345  22547084.4844   22547084.9734
      3028.8914
   -401201.91149   -313985.65848  20267257.6094   20267255.2154
       340.1254
  -2642519.24847  -2057874.91343  23643454.7664   23643453.9734
      3062.7814
   1678115.27048   1289523.75946  21908922.3914   21908919.1724
     -1996.0944
  -1550248.07349  -1201909.76848  21344177.5864   21344176.1764
      1799.9694
 04  9 10 21 12 45.0000000  0  6G 3G 8G13G19G23G27
  -1172639.77548   -911135.91744  22952125.6644   22952125.3914
      1165.4224
  -2659890.91548  -2057637.85645  22538441.3674   22538441.1094
      3026.8134
   -406252.78549   -317921.40948  20266296.3134   20266293.8444
       333.1564
  -2688435.92447  -2093654.07844  23634716.8984   23634716.1804
      3059.1414
   1708091.63148   1312881.93746  21914626.5944   21914623.6604
     -2000.8754
  -1577233.33849  -1222937.24048  21339042.5864   21339040.9574
      1797.8914
 04  9 10 21 13  0.0000000  0  6G 3G 8G13G19G23G27
  -1190067.73948   -924716.12744  22948808.7344   22948809.1884
      1157.9844
  -2705288.91548  -2093012.90045  22529802.2814   22529802.6954
      3025.9064
   -411207.23149   -321782.01848  20265353.4454   20265351.0354
       327.1414
  -2734307.06947  -2129397.77644  23625988.2344   23625987.0744
      3056.6564
   1738131.25848   1336289.41746  21920343.0784   21920339.7774
     -2004.6564
  -1604196.25149  -1243947.28648  21333911.6094   21333910.1804
      1796.8284
 04  9 10 21 13 15.0000000  0  6G 3G 8G13G19G23G27
  -1207378.04148   -938204.65844  22945514.6724   22945514.9924
      1150.3134
  -2750665.26748  -2128371.06545  22521167.8364   22521167.7704
      3024.5634
   -416064.66249   -325567.03948  20264429.2974   20264426.2664
       320.7814
  -2780131.68547  -2165105.24644  23617267.9224   23617266.7934
      3053.6724
   1768234.57149   1359746.51546  21926072.0394   21926068.3404
     -2008.7814
  -1631136.26349  -1264939.50248  21328785.5704   21328783.9144
      1795.4384
 04  9 10 21 13 30.0000000  0  6G 3G 8G13G19G23G27
  -1224571.35548   -951602.02944  22942242.6174   22942243.0744
      1141.5784
  -2796020.61948  -2163712.87246  22512536.8594   22512536.9694
      3022.2504
   -420825.87249   -329277.06748  20263522.9614   20263520.8014
       313.4844
  -2825910.25646  -2200776.80644  23608557.0004   23608555.6024
      3049.6724
   1798400.59849   1383252.48647  21931811.8984   21931809.0984
     -2013.8754
  -1658054.28449  -1285914.57448  21323662.9844   21323661.3284
      1793.0314
 04  9 10 21 13 45.0000000  0  6G 3G 8G13G19G23G27
  -1241641.55548   -964903.45344  22938994.5234   22938995.1414
      1134.0634
  -2841349.11548  -2199033.74845  22503911.4454   22503910.9924
      3021.2664
   -425484.73549   -332907.34448  20262636.5004   20262634.0314
       307.3444
  -2871636.45447  -2236407.55044  23599855.1414   23599854.0164
      3046.8594
   1828635.19048   1406811.88447  21937565.6954   21937562.1374
     -2017.7194
  -1684944.32349  -1306867.83248  21318545.8524   21318544.4924
      1791.9224
 04  9 10 21 14  0.0000000  0  6G 3G 8G13G19G23G27
  -1258589.09048   -978109.31644  22935769.7504   22935770.4494
      1125.5784
  -2886651.28148  -2234334.12245  22495290.1414   22495290.4884
      3019.0944
   -430041.72349   -336458.24748  20261769.2504   20261766.9844
       300.2974
  -2917310.55947  -2271997.72943  23591162.9924   23591162.1484
      3042.9534
   1858937.64849   1430424.15746  21943331.7894   21943328.8914
     -2022.6254
  -1711806.96149  -1327799.75448  21313434.0704   21313432.4654
      1789.7664
 04  9 10 21 14 15.0000000  0  6G 3G 8G13G19G23G27
  -1275413.51148   -991219.23044  22932567.5784   22932567.8794
      1117.4224
  -2931926.65248  -2269613.61146  22486675.6954   22486674.8054
      3017.3594
   -434496.56149   -339929.55448  20260921.6484   20260919.2664
       293.4534
  -2962931.92847  -2307546.79444  23582481.6334   23582480.8674
      3039.6724
   1889308.09448   1454089.41046  21949111.0944   21949108.0634
     -2027.0004
  -1738641.93349  -1348710.11047  21308327.4224   21308325.7664
      1787.9064
 04  9 10 21 14 30.0000000  0  6G 3G 8G13G19G23G27
  -1292120.38948  -1004237.57244  22929388.2504   22929388.9924
      1109.4224
  -2977181.03648  -2304876.75246  22478063.2194   22478063.2274
      3015.8444
   -438854.76749   -343325.55448  20260092.6644   20260089.8324
       286.8134
  -3008505.77346  -2343058.83144  23573809.7034   23573808.6134
      3036.1254
   1919740.75948   1477803.14346  21954902.3914   21954899.0664
     -2031.3594
  -1765455.00549  -1369603.41148  21303225.1564   21303223.4694
      1786.2974
 04  9 10 21 14 45.0000000  0  6G 3G 8G13G19G23G27
  -1308700.68948  -1017157.27244  22926233.1804   22926233.5984
      1101.3284
  -3022405.32648  -2340116.42345  22469457.5864   22469456.9184
      3014.2194
   -443107.50449   -346639.37648  20259283.3674   20259280.6684
       280.2664
  -3054023.01346  -2378526.75544  23565147.7814   23565146.8284
      3032.7814
   1950244.25648   1501572.07846  21960707.0164   21960704.2974
     -2035.6724
  -1792237.24649  -1390472.66948  21298128.5704   21298127.2974
      1784.7034
 04  9 10 21 15  0.0000000  0  6G 3G 8G13G19G23G27
  -1325155.64548  -1029979.29044  22923102.6724   22923102.6294
      1092.9384
  -3067600.98248  -2375333.80945  22460857.3204   22460856.4734
      3012.1884
   -447255.94549   -349871.93348  20258493.7344   20258491.1484
       273.1884
  -3099484.56646  -2413951.31344  23556497.2114   23556495.7734
      3029.0314
   1980817.18948   1525395.11146  21966525.0864   21966522.0744
     -2040.3444
  -1818990.01249  -1411318.97448  21293037.5944   21293036.2854
      1782.6564
 04  9 10 21 15 15.0000000  0  6G 3G 8G13G19G23G27
  -1341489.32748  -1042706.80244  22919994.1254   22919994.1174
      1084.8444
  -3112772.07648  -2410532.02346  22452261.5864   22452261.1174
      3010.5314
   -451304.19249   -353026.40648  20257723.1724   20257720.9144
       266.5164
  -3144894.24146  -2449335.40644  23547855.5634   23547854.3524
      3025.5314
   2011455.29549   1549268.93146  21972354.7664   21972351.9264
     -2044.7194
  -1845717.50749  -1432145.58347  21287952.0084   21287950.3054
      1780.9064
 04  9 10 21 15 30.0000000  0  6G 3G 8G13G19G23G27
  -1357699.75848  -1055338.29444  22916909.2274   22916909.2274
      1077.0164
  -3157916.88648  -2445709.78145  22443670.9614   22443670.4654
      3009.1884
   -455250.27149   -356101.26548  20256972.3914   20256970.3014
       260.0784
  -3190249.74246  -2484677.32644  23539225.0164   23539223.1564
      3022.3134
   2042160.19248   1573194.80246  21978198.1094   21978195.2344
     -2048.7034
  -1872417.82949  -1452951.01648  21282871.0394   21282869.5864
      1779.5314
 04  9 10 21 15 45.0000000  0  6G 3G 8G13G19G23G27
  -1373788.10547  -1067874.65444  22913847.6644   22913848.1294
      1068.0784
  -3203036.41948  -2480867.82945  22435084.3594   22435084.1334
      3006.6884
   -459095.32049   -359097.42148  20256240.4064   20256237.9534
       252.5314
  -3235552.09946  -2519977.81844  23530603.7584   23530602.8874
      3017.9844
   2072930.48048   1597171.61446  21984053.5704   21984050.0204
     -2053.9374
  -1899092.30849  -1473736.32047  21277794.8364   21277793.6644
      1777.0004
 04  9 10 21 16  0.0000000  0  6G 3G 8G13G19G23G27
  -1389752.38447  -1080314.33944  22910809.8444   22910809.7974
      1060.3284
  -3248128.97948  -2516004.86946  22426503.6254   22426503.5984
      3005.4844
   -462837.74249   -362013.58348  20255528.5704   20255526.1374
       246.2664
  -3280799.24846  -2555235.28044  23521992.9144   23521992.5634
      3014.7814
   2103767.69349   1621200.58547  21989921.6644   21989918.6174
     -2057.9224
  -1925739.15549  -1494500.08548  21272723.8134   21272722.3954
      1775.6884
 04  9 10 21 16 15.0000000  0  6G 3G 8G13G19G23G27
  -1405595.21347  -1092659.37744  22907794.8204   22907795.2854
      1052.2344
  -3293197.24448  -2551122.96946  22417927.1564   22417927.2974
      3003.8134
   -466480.11149   -364851.79848  20254835.4844   20254832.6484
       239.5634
  -3325993.33046  -2590451.39844  23513393.5164   23513392.4964
      3011.2504
   2134669.20349   1645279.65546  21995802.3444   21995798.9454
     -2062.1254
  -1952361.09449  -1515244.45048  21267657.9694   21267656.4144
      1774.0944
 04  9 10 21 16 30.0000000  0  6G 3G 8G13G19G23G27
  -1421313.87848  -1104907.66744  22904803.6174   22904803.7074
      1044.2664
  -3338238.52548  -2586220.04946  22409356.3524   22409356.1644
      3002.2814
   -470019.60449   -367609.83948  20254161.9844   20254159.1254
       233.0314
  -3371131.45746  -2625623.90244  23504803.5704   23504803.1524
      3007.6414
   2165637.39049   1669410.67846  22001695.0234   22001691.7424
     -2066.3284
  -1978955.46849  -1535967.32047  21262597.4304   21262595.9304
      1772.5314
 04  9 10 21 16 45.0000000  0  6G 3G 8G13G19G23G27
  -1436908.29548  -1117059.14744  22901836.6254   22901836.7934
      1035.6414
  -3383253.02748  -2621296.25846  22400789.8054   22400789.9574
      3000.1094
   -473456.39949   -370287.86848  20253508.0394   20253505.3244
       225.8594
  -3416213.49746  -2660752.71544  23496224.7734   23496224.6764
      3003.9064
   2196672.00749   1693593.47246  22007601.2274   22007597.4964
     -2071.0624
  -2005522.53349  -1556668.92648  21257541.7584   21257540.6214
      1770.3134
 04  9 10 21 17  0.0000000  0  6G 3G 8G13G19G23G27
  -1452377.84048  -1129113.32544  22898892.7894   22898892.8874
      1027.2664
  -3428240.31948  -2656351.26346  22392229.3594   22392228.7234
      2998.3284
   -476789.91349   -372885.41548  20252873.4924   20252871.1954
       218.7664
  -3461238.45547  -2695837.05844  23487657.2344   23487656.2934
      2999.8134
   2227773.30149   1717828.21846  22013519.9224   22013515.6414
     -2075.5784
  -2032061.66749  -1577348.76248  21252491.5864   21252490.4884
      1768.4064
 04  9 10 21 17 15.0000000  0  6G 3G 8G13G19G23G27
  -1467721.41848  -1141069.35444  22895972.7734   22895972.8094
      1018.3134
  -3473199.11448  -2691384.07146  22383673.7894   22383673.9304
      2995.9064
   -480019.09449   -375401.66648  20252258.9774   20252257.0314
       211.4384
  -3506205.02047  -2730875.91844  23479100.1174   23479099.0824
      2995.2034
   2258942.14349   1742115.59546  22019450.6094   22019447.3444
     -2080.5474
  -2058571.96749  -1598006.12948  21247446.9384   21247445.4344
      1766.0314
 04  9 10 21 17 30.0000000  0  6G 3G 8G13G19G23G27
  -1482941.91948  -1152929.45444  22893076.9614   22893076.9774
      1010.4224
  -3518132.28548  -2726396.89646  22375123.8594   22375123.2274
      2994.4384
   -483146.67949   -377838.74848  20251664.0394   20251661.4064
       204.9534
  -3551115.77847  -2765871.26044  23470553.4924   23470552.5044
      2992.0634
   2290175.59149   1766453.32846  22025393.4924   22025390.7234
     -2084.5004
  -2085056.40049  -1618643.34348  21242407.0164   21242405.3014
      1764.5634
 04  9 10 21 17 45.0000000  0  6G 3G 8G13G19G23G27
  -1498038.61248  -1164693.09144  22890203.5394   22890204.1094
      1002.3754
  -3563039.36648  -2761389.40946  22366578.0234   22366577.5084
      2993.0004
   -486171.95349   -380196.09848  20251087.8914   20251085.4694
       198.3284
  -3595969.69447  -2800822.29744  23462018.6564   23462017.7114
      2988.2814
   2321474.02449   1790841.70346  22031349.9924   22031347.1914
     -2088.7344
  -2111514.25849  -1639259.84148  21237372.0634   21237370.5784
      1763.0634
 04  9 10 21 18  0.0000000  0  6G 3G 8G13G19G23G27
  -1513010.95148  -1176359.83444  22887354.7114   22887354.9804
       994.1094
  -3607920.02549  -2796361.33446  22358038.0704   22358036.8284
      2991.3594
   -489094.63349   -382473.52248  20250532.2274   20250529.4494
       191.4844
  -3640766.13247  -2835728.57444  23453493.6024   23453493.0634
      2984.4064
   2352837.64949   1815280.85346  22037318.0314   22037315.0474
     -2093.0164
  -2137945.25649  -1659855.42148  21232342.4774   21232340.7074
      1761.2194
 04  9 10 21 18 15.0000000  0  6G 3G 8G13G19G23G27
  -1527857.61248  -1187928.66744  22884529.6484   22884529.0274
       985.8284
  -3652772.78348  -2831311.51346  22349501.7664   22349501.9494
      2989.4534
   -491913.36349   -384669.93448  20249995.2664   20249992.9884
       184.7194
  -3685503.43447  -2870588.75544  23444980.4924   23444979.8554
      2980.8444
   2384267.59749   1839771.69146  22043299.2344   22043296.5084
     -2097.2504
  -2164348.09649  -1680429.06048  21227318.1484   21227316.5634
      1759.5474
 04  9 10 21 18 30.0000000  0  6G 3G 8G13G19G23G27
  -1542578.64948  -1199399.58244  22881728.2814   22881727.8874
       977.1094
  -3697597.99248  -2866240.22146  22340972.4384   22340971.4614
      2987.2504
   -494628.20049   -386785.39348  20249478.9614   20249476.5434
       177.3594
  -3730181.37547  -2905402.70644  23436478.7194   23436477.8874
      2976.2344
   2415763.51549   1864313.94146  22049292.6334   22049289.6454
     -2102.1254
  -2190722.84949  -1700980.80747  21222299.2274   21222297.6844
      1757.1884
 04  9 10 21 18 45.0000000  0  6G 3G 8G13G19G23G27
  -1557175.53048  -1210773.75144  22878950.3054   22878950.3014
       969.5474
  -3742397.24448  -2901148.70946  22332447.4144   22332446.3164
      2986.2344
   -497240.55049   -388820.98447  20248981.8364   20248979.4224
       171.2194
  -3774801.20447  -2940171.33944  23427987.7344   23427987.0274
      2973.1254
   2447323.76849   1888906.31946  22055298.3134   22055295.4694
     -2105.6724
  -2217071.35049  -1721512.09348  21217284.9694   21217283.8054
      1756.1884
 04  9 10 21 19  0.0000000  0  6G 3G 8G13G19G23G27
  -1571647.76247  -1222050.80544  22876195.9534   22876196.1374
       960.6254
  -3787169.73748  -2936036.32546  22323926.8674   22323926.9494
      2983.9384
   -499750.15049   -390776.50748  20248504.3284   20248501.9694
       163.8914
  -3819362.10646  -2974894.06844  23419508.2584   23419506.9414
      2968.7664
   2478948.48149   1913548.92846  22061316.5084   22061313.8134
     -2110.3284
  -2243392.91749  -1742022.39048  21212276.3914   21212274.7114
      1753.9064
 04  9 10 21 19 15.0000000  0  6G 3G 8G13G19G23G27
  -1585993.42847  -1233229.21644  22873466.1094   22873466.1334
       952.4384
  -3831913.99848  -2970901.96346  22315412.2274   22315412.3874
      2982.2504
   -502155.21849   -392650.59948  20248046.9614   20248044.5594
       157.1094
  -3863862.11946  -3009569.36044  23411040.0314   23411038.8094
      2965.0004
   2510639.29849   1938243.04346  22067346.8834   22067343.9884
     -2114.6724
  -2269686.12849  -1762510.59448  21207272.8594   21207271.6134
      1752.2504
 04  9 10 21 19 30.0000000  0  6G 3G 8G13G19G23G27
  -1600212.16947  -1244308.74144  22870759.7344   22870760.8284
       943.9534
  -3876629.74548  -3005745.37646  22306903.3134   22306903.2464
      2980.3594
   -504455.40349   -394442.95348  20247608.8134   20247606.5904
       150.1414
  -3908300.52947  -3044196.64144  23402583.1884   23402582.4264
      2960.7034
   2542396.23349   1962988.66346  22073390.0164   22073387.6214
     -2119.1414
  -2295950.48249  -1782976.32048  21202275.0944   21202273.9694
      1750.2504
 04  9 10 21 19 45.0000000  0  6G 3G 8G13G19G23G27
  -1614304.66947  -1255289.90544  22868078.5864   22868078.7344
       935.0474
  -3921317.46248  -3040566.94846  22298399.7894   22298399.6094
      2978.0474
   -506651.37249   -396154.09948  20247191.1024   20247188.7074
       142.7194
  -3952677.80747  -3078776.28944  23394139.0394   23394137.6884
      2956.2664
   2574218.38849   1987785.12046  22079446.1334   22079442.9064
     -2123.9064
  -2322186.93049  -1803420.30048  21197282.4304   21197280.5944
      1747.9534
 04  9 10 21 20  0.0000000  0  6G 3G 8G13G19G23G27
  -1628264.91047  -1266167.99844  22865421.9534   22865422.3094
       926.9384
  -3965971.35948  -3075362.18046  22289902.3204   22289902.2114
      2976.3914
   -508737.10049   -397779.34648  20246794.2504   20246791.7114
       135.9844
  -3996987.72947  -3113303.43844  23385707.3594   23385705.9884
      2952.2974
   2606111.67749   2012636.99746  22085514.8984   22085512.2814
     -2128.0624
  -2348389.44549  -1823837.84147  21192296.1954   21192294.7074
      1746.3134
 04  9 10 21 20 15.0000000  0  6G 3G 8G13G19G23G27
  -1642104.32647  -1276951.94844  22862789.0084   22862788.3954
       918.3444
  -4010602.90849  -3110139.98946  22281409.1254   22281408.8634
      2974.5004
   -510724.05649   -399327.63648  20246416.0004   20246413.4774
       129.0164
  -4041241.40948  -3147786.78444  23377286.2664   23377284.5984
      2948.1564
   2638064.31449   2037535.12346  22091595.0394   22091592.4614
     -2132.2814
  -2374569.58849  -1844237.93748  21187314.1414   21187312.9734
      1744.4224
 04  9 10 21 20 30.0000000  0  6G 3G 8G13G19G23G27
  -1655818.68447  -1287638.44044  22860178.7344   22860179.0944
       909.6564
  -4055207.86348  -3144897.07146  22272921.3674   22272921.0554
      2972.3594
   -512608.13649   -400795.74748  20246057.5084   20246055.0744
       121.7974
  -4085434.42147  -3182222.84444  23368876.4454   23368875.1254
      2943.6564
   2670080.29949   2062482.61546  22097688.0554   22097684.8164
     -2136.9694
  -2400723.25449  -1864617.41548  21182337.3444   21182336.1994
      1742.2344
 04  9 10 21 20 45.0000000  0  6G 3G 8G13G19G23G27
  -1669405.11947  -1298225.25344  22857592.9454   22857593.4144
       901.7664
  -4099783.70348  -3179631.46146  22264438.5234   22264438.4534
      2971.1414
   -514386.44449   -402181.44348  20245719.4064   20245716.5824
       115.3134
  -4129563.56847  -3216609.13044  23360478.9774   23360477.4264
      2940.1414
   2702162.26549   2087481.51946  22103793.1414   22103789.9064
     -2140.6094
  -2426847.70749  -1884974.12648  21177366.0084   21177364.4734
      1740.9694
 04  9 10 21 21  0.0000000  0  6G 3G 8G13G19G23G27
  -1682868.52447  -1308716.20544  22855031.2194   22855031.7504
       893.7194
  -4144335.23748  -3214346.93146  22255961.0784   22255960.3244
      2969.5004
   -516063.87949   -403488.54248  20245399.9144   20245397.5124
       108.7034
  -4173633.50947  -3250949.29844  23352092.2894   23352091.2584
      2936.1564
   2734304.98249   2112527.74846  22109909.8524   22109906.2464
     -2144.6254
  -2452947.81949  -1905311.87547  21172399.4614   21172398.1684
      1739.3444
 04  9 10 21 21 15.0000000  0  6G 3G 8G13G19G23G27
  -1696210.13647  -1319112.24444  22852492.0004   22852493.2424
       885.1254
  -4188863.75149  -3249044.44946  22247487.0944   22247486.7584
      2967.5004
   -517641.96649   -404718.22648  20245099.6564   20245097.6914
       101.6254
  -4217645.27047  -3285244.11144  23343717.3754   23343715.7624
      2931.8284
   2766507.06449   2137620.26746  22116037.4774   22116034.5474
     -2149.1564
  -2479025.03849  -1925631.77248  21167437.1174   21167435.6564
      1737.4064
 04  9 10 21 21 30.0000000  0  6G 3G 8G13G19G23G27
  -1709425.17847  -1329409.66444  22849978.2274   22849978.3204
       876.8444
  -4233364.40849  -3283720.26546  22239019.1484   22239018.6454
      2965.7974
   -519115.59549   -405866.51248  20244819.4304   20244817.1844
        94.7974
  -4261593.57048  -3319489.47344  23335354.2114   23335353.1844
      2927.8284
   2798773.14449   2162762.63046  22122177.2504   22122174.3404
     -2153.1564
  -2505074.58749  -1945930.11348  21162480.2114   21162478.0664
      1735.7974
 04  9 10 21 21 45.0000000  0  6G 3G 8G13G19G23G27
  -1722515.89247  -1339610.20444  22847486.4304   22847486.8134
       868.6564
  -4277839.59449  -3318376.23546  22230555.3054   22230555.4224
      2964.2344
   -520487.11049   -406935.22348  20244558.2424   20244555.6994
        88.0944
  -4305480.64648  -3353687.13944  23327002.6174   23327001.2774
      2923.7814
   2831100.53249   2187952.78846  22128329.1174   22128326.1334
     -2157.1564
  -2531098.87449  -1966208.77247  21157527.4304   21157526.0664
      1734.1094
 04  9 10 21 22  0.0000000  0  6G 3G 8G13G19G23G27
  -1735480.92547  -1349712.82244  22845020.0704   22845019.7034
       860.3594
  -4322288.11849  -3353011.43746  22222097.7664   22222097.0864
      2962.5474
   -521755.30549   -407923.43148  20244316.9774   20244314.0824
        81.3284
  -4349304.85147  -3387835.81444  23318663.2664   23318662.4414
      2919.6724
   2863490.38549   2213191.59446  22134492.7344   22134490.1094
     -2161.1874
  -2557096.60249  -1986466.73548  21152580.7034   21152579.2234
      1732.4534
 04  9 10 21 22 15.0000000  0  6G 3G 8G13G19G23G27
  -1748324.27547  -1359720.60944  22842575.8524   22842576.3014
       852.4844
  -4366714.04349  -3387629.00546  22213643.5004   22213643.0904
      2961.3444
   -522924.39049   -408834.40748  20244094.6414   20244092.0864
        75.0314
  -4393069.92647  -3421938.40344  23310334.1174   23310333.3984
      2916.0004
   2895938.48349   2238475.78946  22140667.3134   22140664.7074
     -2164.7664
  -2583071.94949  -2006707.25148  21147637.2814   21147635.8014
      1731.2504
 04  9 10 21 22 30.0000000  0  6G 3G 8G13G19G23G27
  -1761046.13147  -1369633.72444  22840154.5784   22840154.9494
       844.1094
  -4411117.33548  -3422228.95446  22205193.7344   22205193.0394
      2959.4224
   -523994.43749   -409668.22248  20243890.7504   20243888.5204
        67.9694
  -4436775.79046  -3455994.85944  23302017.1024   23302016.6954
      2911.6564
   2928444.33649   2263804.99546  22146852.9384   22146849.9144
     -2169.0474
  -2609025.13449  -2026930.51448  21142699.0004   21142697.3794
      1729.3594
 04  9 10 21 22 45.0000000  0  6G 3G 8G13G19G23G27
  -1773642.99648  -1379449.44444  22837757.7034   22837757.6564
       835.4844
  -4455494.81548  -3456808.78746  22196749.6174   22196748.8524
      2957.5004
   -524961.82849   -410422.03548  20243706.7344   20243704.1764
        60.9064
  -4480418.70146  -3490002.25444  23293712.6094   23293710.9304
      2907.2504
   2961011.22749   2289181.77046  22153050.5864   22153047.1644
     -2173.2814
  -2634952.67949  -2047133.78248  21137765.2894   21137763.2854
      1727.4844
 04  9 10 21 23  0.0000000  0  6G 3G 8G13G19G23G27
  -1786117.21348  -1389169.60044  22835383.8914   22835383.8834
       827.6564
  -4499848.78949  -3491370.31146  22188308.5634   22188308.0004
      2956.2504
   -525829.11749   -411097.85448  20243541.6644   20243539.3284
        54.5944
  -4524000.62347  -3523962.12744  23285419.0784   23285417.7584
      2903.5634
   2993636.62149   2314604.11346  22159258.6484   22159255.7624
     -2176.7974
  -2660857.20349  -2067319.12048  21132835.4384   21132833.7074
      1726.3284
 04  9 10 21 23 15.0000000  0  6G 3G 8G13G19G23G27
  -1798468.42948  -1398793.90544  22833033.6094   22833033.6174
       819.1094
  -4544179.04449  -3525913.34446  22179872.6414   22179872.2854
      2954.3754
   -526596.05249   -411695.46848  20243395.7894   20243393.4304
        47.6254
  -4567521.14547  -3557874.15944  23277137.7274   23277136.1644
      2899.1884
   3026320.53848   2340072.07146  22165478.4454   22165475.5594
     -2181.0004
  -2686738.30749  -2087486.20548  21127910.5634   21127908.5904
      1724.4064
 04  9 10 21 23 30.0000000  0  6G 3G 8G13G19G23G27
  -1810693.16248  -1408319.65244  22830706.9774   22830707.0354
       810.9534
  -4588482.19548  -3560435.25346  22171442.0944   22171441.9774
      2952.7974
   -527259.01849   -412212.06048  20243269.4304   20243266.9694
        40.8444
  -4610976.44047  -3591735.34944  23268867.9304   23268866.9654
      2894.9534
   3059066.23749   2365588.16646  22171709.8674   22171706.8834
     -2184.9694
  -2712592.59249  -2107632.39548  21122990.4304   21122988.9224
      1722.9224
 04  9 10 21 23 45.0000000  0  6G 3G 8G13G19G23G27
  -1822794.37748  -1417749.14844  22828404.3674   22828404.5354
       801.9224
  -4632761.15348  -3594938.30046  22163016.0314   22163015.9884
      2950.4384
   -527821.08749   -412650.04348  20243162.4844   20243160.0904
        33.4064
  -4654369.11846  -3625547.75444  23260610.8674   23260609.2544
      2889.9694
   3091870.50449   2391149.89746  22177952.4694   22177949.3794
     -2189.5944
  -2738423.06649  -2127760.02448  21118075.2114   21118073.6134
      1720.5314
 04  9 10 21 24  0.0000000  0  6G 3G 8G13G19G23G27
  -1834772.30948  -1427082.58644  22826124.8914   22826125.0204
       794.1724
  -4677016.15548  -3629422.69746  22154594.4614   22154594.0354
      2949.3284
   -528282.46149   -413009.55847  20243074.6954   20243072.1684
        27.2034
  -4697699.12948  -3659311.33144  23252365.5234   23252364.0594
      2886.2974
   3124732.87548   2416756.91746  22184205.5944   22184203.2584
     -2192.9694
  -2764230.13149  -2147869.41648  21113164.5164   21113163.2194
      1719.4694
 04  9 10 21 24 15.0000000  0  6G 3G 8G13G19G23G27
  -1846625.64247  -1436318.94244  22823869.4694   22823869.1844
       786.0164
  -4721245.98649  -3663887.48046  22146178.0634   22146177.3244
      2947.8134
   -528642.04849   -413289.76148  20243006.2504   20243003.7774
        20.5164
  -4740965.05348  -3693024.97144  23244131.9304   23244130.7974
      2882.2194
   3157654.38848   2442410.00546  22190470.6954   22190468.2504
     -2196.7974
  -2790012.55049  -2167959.60648  21108257.9304   21108256.5984
      1718.0164
 04  9 10 21 24 30.0000000  0  6G 3G 8G13G19G23G27
  -1858353.95347  -1445457.85844  22821637.5554   22821638.0704
       777.3594
  -4765450.12748  -3698332.23346  22137766.0394   22137765.7424
      2945.7194
   -528899.34949   -413490.25448  20242957.4224   20242954.7974
        13.3914
  -4784166.10348  -3726688.07044  23235911.4304   23235909.7384
      2877.6414
   3190635.25748   2468109.34046  22196746.5084   22196743.5204
     -2201.0784
  -2815769.96049  -2188030.31948  21103356.2974   21103355.2234
      1716.0004
 04  9 10 21 24 45.0000000  0  6G 3G 8G13G19G23G27
  -1869960.11547  -1454501.60844  22819429.4454   22819429.1914
       769.8594
  -4809631.61048  -3732759.34346  22129359.2504   22129358.5904
      2944.9844
   -529057.19949   -413613.25448  20242927.6024   20242925.2274
         7.5474
  -4827304.99547  -3760302.72244  23227702.1724   23227700.3954
      2874.1414
   3223672.39448   2493852.53946  22203033.5944   22203030.8794
     -2204.0314
  -2841505.25949  -2208083.78948  21098459.2894   21098457.6374
      1715.2814
 04  9 10 21 25  0.0000000  0  6G 3G 8G13G19G23G27
  -1881444.20747  -1463450.22944  22817243.6884   22817243.6884
       761.4224
  -4853790.61548  -3767168.91946  22120955.5314   22120955.1134
      2943.1094
   -529115.82849   -413658.94748  20242916.3204   20242913.7934
         0.5004
  -4870381.31348  -3793868.61044  23219504.4844   23219503.0004
      2869.5314
   3256765.45048   2519639.30146  22209330.8754   22209327.9304
     -2208.2194
  -2867218.65249  -2228120.18448  21093566.1094   21093565.0004
      1713.3914
 04  9 10 21 25 15.0000000  0  6G 3G 8G13G19G23G27
  -1892802.39547  -1472300.74044  22815082.4844   22815082.1764
       753.2814
  -4897923.24948  -3801557.97646  22112556.9534   22112556.6524
      2941.5634
   -529071.30349   -413624.25448  20242924.6644   20242922.2384
        -6.0944
  -4913391.06747  -3827382.65744  23211320.8524   23211318.7934
      2865.4064
   3289918.13648   2545472.51846  22215639.6174   22215636.8054
     -2211.9694
  -2892906.28549  -2248136.52648  21088677.9304   21088676.5084
      1711.9224
 04  9 10 21 25 30.0000000  0  6G 3G 8G13G19G23G27
  -1904035.40447  -1481053.71944  22812945.3284   22812944.7344
       745.3134
  -4942030.30748  -3835927.07246  22104164.2894   22104163.7934
      2940.2034
   -528924.49649   -413509.86448  20242952.7504   20242950.1954
       -12.7194
  -4956334.70048  -3860845.16544  23203147.8444   23203146.7464
      2861.2504
   3323129.42548   2571351.41546  22221959.4384   22221956.6764
     -2215.5004
  -2918569.03349  -2268133.46248  21083794.5474   21083792.8634
      1710.6094
 04  9 10 21 25 45.0000000  0  6G 3G 8G13G19G23G27
  -1915142.87247  -1489708.87444  22810831.3914   22810831.0434
       736.2504
  -4986111.57248  -3870276.07846  22095775.8204   22095775.7114
      2937.8444
   -528675.04649   -413315.48748  20243000.0634   20242997.7384
       -20.1094
  -4999211.66648  -3894255.72444  23194990.0084   23194987.3914
      2856.1564
   3356399.46848   2597276.08046  22228289.7424   22228287.5944
     -2220.0004
  -2944206.61849  -2288110.78748  21078915.8914   21078914.1214
      1708.1884
 04  9 10 21 26  0.0000000  0  6G 3G 8G13G19G23G27
  -1926126.61347  -1498267.63044  22808740.7894   22808741.0314
       728.3594
  -5030168.75049  -3904606.32946  22087391.9924   22087391.7854
      2936.5784
   -528324.80449   -413042.58248  20243066.8984   20243064.3444
       -26.5164
  -5042023.39948  -3927615.46644  23186842.7194   23186840.6454
      2852.1564
   3389726.21548   2623244.93246  22234632.3204   22234629.5984
     -2223.5164
  -2969820.93649  -2308070.00248  21074041.4534   21074040.2234
      1707.0784
 04  9 10 21 26 15.0000000  0  6G 3G 8G13G19G23G27
  -1936990.94848  -1506733.31144  22806673.5474   22806673.1094
       719.8284
  -5074206.18448  -3938921.17946  22079012.1334   22079011.6564
      2934.7504
   -527878.05949   -412694.47548  20243151.8284   20243149.5664
       -33.4844
  -5084773.85848  -3960927.44844  23178707.5004   23178705.1564
      2847.4844
   3423105.04648   2649254.38746  22240984.3524   22240981.2624
     -2227.4534
  -2995416.24749  -2328014.38348  21069171.2734   21069169.1604
      1705.2664
 04  9 10 21 26 30.0000000  0  6G 3G 8G13G19G23G27
  -1947722.78047  -1515095.78044  22804630.8134   22804631.2624
       711.3914
  -5118210.80548  -3973210.47946  22070638.5314   22070637.3674
      2932.8594
   -527321.74549   -412260.98748  20243257.7814   20243255.2424
       -40.3914
  -5127449.82847  -3994181.40344  23170585.7194   23170583.8984
      2842.9694
   3456548.86248   2675314.47546  22247348.4844   22247345.1564
     -2231.3594
  -3020979.64449  -2347933.90948  21064306.3834   21064305.3484
      1703.5314
 04  9 10 21 26 45.0000000  0  6G 3G 8G13G19G23G27
  -1958326.18747  -1523358.15544  22802613.5864   22802613.5164
       702.5944
  -5162186.78148  -4007477.44646  22062269.5474   22062269.1454
      2930.7194
   -526659.93049   -411745.29648  20243383.8984   20243381.0784
       -47.6874
  -5170055.05048  -4027380.22144  23162478.4384   23162476.4964
      2837.9844
   3490053.43648   2701421.89546  22253724.1564   22253721.1564
     -2235.6564
  -3046515.13049  -2367831.68447  21059446.8914   21059445.2424
      1701.3754
 04  9 10 21 27  0.0000000  0  6G 3G 8G13G19G23G27
  -1968805.15447  -1531523.56444  22800619.2734   22800619.5394
       694.8754
  -5206138.14248  -4041725.22346  22053905.8134   22053905.3914
      2929.6884
   -525896.65649   -411150.53348  20243528.6804   20243526.1454
       -53.7974
  -5212593.33448  -4060526.87744  23154383.7734   23154381.5044
      2834.1414
   3523614.40848   2727573.27146  22260110.1414   22260108.0124
     -2238.7504
  -3072026.94249  -2387711.00647  21054592.3594   21054590.9024
      1700.5314
 04  9 10 21 27 15.0000000  0  6G 3G 8G13G19G23G27
  -1979159.36748  -1539591.76944  22798649.0704   22798649.2344
       686.2344
  -5250064.59049  -4075953.61346  22045547.2274   22045546.3014
      2927.7664
   -525031.58849   -410476.46348  20243693.6094   20243691.1294
       -60.8914
  -5255063.89447  -4093620.77944  23146301.8834   23146299.8284
      2829.3134
   3557232.00448   2753768.75946  22266507.8054   22266505.2734
     -2242.9374
  -3097514.52449  -2407571.46148  21049742.0944   21049740.4924
      1698.5314
 04  9 10 21 27 30.0000000  0  6G 3G 8G13G19G23G27
  -1989386.94247  -1547561.29444  22796702.8594   22796702.7894
       677.6094
  -5293964.42748  -4110161.24146  22037193.2974   22037192.2584
      2925.7504
   -524062.91849   -409721.65648  20243877.7664   20243875.7814
       -67.9224
  -5297464.59248  -4126660.24144  23138232.7194   23138231.0704
      2824.3914
   3590907.80248   2780009.61346  22272916.1254   22272913.0204
     -2246.8754
  -3122976.28049  -2427411.78047  21044897.1254   21044895.6254
      1696.6254
 04  9 10 21 27 45.0000000  0  6G 3G 8G13G19G23G27
  -1999487.85847  -1555432.13544  22794781.0084   22794781.1994
       668.3134
  -5337837.28849  -4144347.87046  22028844.5944   22028843.6644
      2923.1254
   -522990.58749   -408886.08248  20244081.9924   20244079.1994
       -75.8124
  -5339795.12248  -4159645.02644  23130178.2344   23130175.6844
      2818.8754
   3624641.68148   2806295.71046  22279335.6024   22279332.8984
     -2251.7344
  -3148412.15249  -2447231.93648  21040056.9304   21040055.3204
      1694.0314
 04  9 10 21 28  0.0000000  0  6G 3G 8G13G19G23G27
  -2009461.55547  -1563203.81144  22792882.9454   22792882.9264
       660.7194
  -5381683.00849  -4178513.33046  22020500.7974   22020499.8594
      2922.2194
   -521814.20749   -407969.41848  20244305.7504   20244303.3954
       -81.8914
  -5382054.71048  -4192574.52444  23122135.8834   23122134.2154
      2815.0164
   3658433.76448   2832627.18146  22285766.0944   22285763.3914
     -2254.7814
  -3173821.77549  -2467031.63148  21035221.4924   21035219.9614
      1693.1094
 04  9 10 21 28 15.0000000  0  6G 3G 8G13G19G23G27
  -2019305.83948  -1570874.67844  22791008.9844   22791009.3284
       651.1884
  -5425499.35649  -4212655.91746  22012162.4224   22012162.3554
      2919.5004
   -520531.54949   -406969.94947  20244549.9064   20244547.6024
       -89.7034
  -5424240.90548  -4225446.83744  23114108.2424   23114106.1414
      2809.2664
   3692286.14348   2859005.62946  22292207.7344   22292204.7074
     -2259.5314
  -3199202.91049  -2486809.14048  21030391.5634   21030390.1094
      1690.4694
 04  9 10 21 28 30.0000000  0  7G 3G 8G13G10G19G23G27
  -2029023.58247  -1578446.93244  22789160.2194   22789160.0744
       643.6254
  -5469289.03648  -4246777.71346  22003830.2504   22003829.3674
      2918.4844
   -519145.58849   -405889.98948  20244813.7894   20244811.3674
       -95.7344
   -110337.40155    -75596.99952  24063205.4774   24063205.3634
      2879.9064
  -5466356.29347  -4258263.98444  23106093.6254   23106092.3444
      2805.3594
   3726195.70848   2885428.64046  22298660.9144   22298658.0904
     -2262.4534
  -3224558.41549  -2506566.66348  21025566.6644   21025565.1094
      1689.5164
 04  9 10 21 28 45.0000000  0  7G 3G 8G13G10G19G23G27
  -2038615.47447  -1585921.11944  22787334.4694   22787334.8014
       635.4384
  -5513052.76148  -4280879.30046  21995502.2114   21995501.2814
      2916.9534
   -517656.96649   -404730.03248  20245096.8134   20245094.0824
      -102.4374
   -153485.75645   -109219.04142  24054994.4694   24054995.0084
      2873.4694
  -5508401.20447  -4291026.19844  23098092.5234   23098091.7274
      2800.8444
   3760161.65248   2911895.56746  22305124.2894   22305121.7034
     -2266.0314
  -3249889.07449  -2526304.83148  21020746.3914   21020744.8244
      1688.0944
 04  9 10 21 29  0.0000000  0  7G 3G 8G13G10G19G23G27
  -2048082.05048  -1593297.67044  22785533.1254   22785533.0864
       626.7344
  -5556791.12449  -4314961.11846  21987178.4454   21987178.0784
      2914.8594
   -516066.25249   -403490.51948  20245399.8284   20245397.2584
      -109.6874
   -196537.21146   -142765.62142  24046801.9144   24046802.8484
      2866.6094
  -5550375.95548  -4323733.75644  23090105.4694   23090103.8094
      2795.7504
   3794183.03148   2938405.70146  22311598.1254   22311596.1054
     -2270.1724
  -3275195.53349  -2546024.14548  21015930.8134   21015929.0004
      1686.0944
 04  9 10 21 29 15.0000000  0  7G 3G 8G13G10G19G23G27
  -2057421.64548  -1600575.27044  22783755.8594   22783755.7194
       618.4064
  -5600502.55948  -4349021.95646  21978860.7814   21978859.8244
      2913.2664
   -514371.69649   -402170.08848  20245721.8834   20245719.2974
      -116.4374
   -239489.76646   -176235.12242  24038629.1094   24038629.6374
      2860.3284
  -5592278.56148  -4356385.10745  23082131.9224   23082130.3794
      2791.1414
   3828261.46348   2964960.27746  22318083.1024   22318080.8054
     -2273.7344
  -3300476.12949  -2565723.30748  21011120.1094   21011118.2304
      1684.5474
 04  9 10 21 29 30.0000000  0  7G 3G 8G13G10G19G23G27
  -2066635.02748  -1607754.51344  22782003.2344   22782002.5634
       610.1094
  -5644187.69248  -4383062.29746  21970547.8674   21970546.8484
      2911.5944
   -512574.13849   -400769.39548  20246064.1024   20246061.5744
      -123.1094
   -282343.94746   -209627.98342  24030474.2504   24030474.2464
      2853.8444
  -5634109.43148  -4388980.53645  23074171.8054   23074169.8874
      2786.4064
   3862395.85448   2991558.47146  22324578.9774   22324576.6884
     -2277.3124
  -3325731.55349  -2585402.84548  21006314.0394   21006312.7774
      1682.9534
 04  9 10 21 29 45.0000000  0  7G 3G 8G13G10G19G23G27
  -2075723.31548  -1614836.28844  22780273.0944   22780273.3014
       601.3594
  -5687847.70348  -4417083.07346  21962239.4924   21962238.5044
      2909.3754
   -510674.63349   -399289.27148  20246425.6414   20246423.2814
      -130.4844
   -325100.73346   -242944.89642  24022338.0944   24022338.1524
      2846.7664
  -5675869.31448  -4421520.66745  23066224.9454   23066223.4224
      2781.2034
   3896585.11248   3018199.40746  22331084.9384   22331082.4184
     -2281.5164
  -3350962.97749  -2605063.69548  21001512.5314   21001510.8674
      1680.8284
 04  9 10 21 30  0.0000000  0  7G 3G 8G13G10G19G23G27
  -2084688.00448  -1621821.74044  22778567.4614   22778567.7304
       593.6884
  -5731483.96948  -4451085.32946  21953935.8984   21953935.1094
      2908.5474
   -508674.85749   -397731.00248  20246806.1024   20246803.8954
      -136.4844
   -367761.42446   -276187.03142  24014219.7814   24014219.3324
      2841.1094
  -5717559.60748  -4454006.57445  23058291.3284   23058289.2154
      2777.2974
   3930827.29748   3044881.59346  22337601.4694   22337598.1334
     -2284.3754
  -3376172.02649  -2624707.09848  20996715.2584   20996713.5984
      1680.0314
 04  9 10 21 30 15.0000000  0  7G 3G 8G13G10G19G23G27
  -2093530.55148  -1628712.05344  22776884.5004   22776884.5594
       585.1884
  -5775098.17148  -4485070.40046  21945636.2114   21945635.5744
      2906.6254
   -506576.30749   -396095.77848  20247205.5084   20247203.1454
      -143.4064
   -410327.15846   -309355.10442  24006119.5234   24006119.0044
      2834.3444
  -5759181.45048  -4486439.14245  23050370.9924   23050369.2234
      2772.2814
   3965120.76048   3071603.74146  22344127.0634   22344124.3134
     -2288.1254
  -3401360.18349  -2644334.23848  20991922.1094   20991920.3164
      1678.2194
 04  9 10 21 30 30.0000000  0  7G 3G 8G13G10G19G23G27
  -2102245.95048  -1635503.23644  22775226.2734   22775226.2274
       577.1564
  -5818684.95448  -4519034.09846  21937342.0784   21937341.3404
      2905.2504
   -504373.86849   -394379.60248  20247624.5634   20247622.3834
      -149.9694
   -452792.83045   -342445.18842  23998038.5634   23998038.4024
      2828.1254
  -5800729.48548  -4518814.21145  23042464.7424   23042463.1374
      2767.7194
   3999470.42148   3098369.66145  22350662.8754   22350660.5744
     -2291.5624
  -3426522.49449  -2663941.22348  20987134.0864   20987132.6294
      1676.9534
 04  9 10 21 30 45.0000000  0  7G 3G 8G13G10G19G23G27
  -2110837.00448  -1642197.58144  22773591.3134   22773591.2304
       568.5474
  -5862247.65849  -4552979.05846  21929052.3444   21929052.1214
      2903.3134
   -502070.36849   -392584.67748  20248062.8834   20248060.5784
      -156.9534
   -495161.04646   -375459.31642  23989976.8284   23989975.8714
      2821.2504
  -5842206.22048  -4551133.71245  23034572.0164   23034569.9494
      2762.6884
   4033873.13148   3125176.92346  22357209.8754   22357207.2704
     -2295.3594
  -3451661.61749  -2683530.14448  20982350.3834   20982348.5744
      1675.1884
 04  9 10 21 31  0.0000000  0  7G 3G 8G13G10G19G23G27
  -2119298.71848  -1648791.10044  22771981.0944   22771981.0354
       560.0004
  -5905781.06148  -4586901.16346  21920768.2504   21920767.6294
      2901.4534
   -499660.72949   -390707.03348  20248521.4144   20248518.5234
      -163.9534
   -537426.43246   -408393.41242  23981933.0164   23981933.6254
      2814.5004
  -5883606.39648  -4583393.55245  23026693.9844   23026692.0124
      2757.6724
   4068333.77548   3152029.33346  22363767.7274   22363764.9924
     -2299.0624
  -3476772.75149  -2703097.25748  20977571.7814   20977570.3794
      1673.2664
 04  9 10 21 31 15.0000000  0  7G 3G 8G13G10G19G23G27
  -2127636.34748  -1655287.94544  22770394.6484   22770394.1764
       551.3134
  -5949290.46248  -4620804.56546  21912488.5704   21912487.8404
      2899.4224
   -497150.40349   -388750.94948  20248999.4144   20248996.8674
      -171.0624
   -579594.24546   -441251.41642  23973908.5084   23973909.0434
      2807.5944
  -5924935.03247  -4615597.64645  23018829.3594   23018827.5704
      2752.4694
   4102846.63948   3178922.44145  22370335.3134   22370332.6914
     -2302.9534
  -3501861.27349  -2722646.74448  20972797.7814   20972796.1254
      1671.4384
 04  9 10 21 31 30.0000000  0  7G 3G 8G13G10G19G23G27
  -2135842.00848  -1661681.95344  22768833.5234   22768833.1994
       542.8754
  -5992767.81649  -4654683.00146  21904215.1484   21904214.4804
      2897.7194
   -494531.37149   -386710.15048  20249497.6254   20249495.2854
      -177.9534
   -621656.19746   -474026.93542  23965904.8204   23965905.0594
      2800.8444
  -5966183.80048  -4647739.50045  23010979.6724   23010978.0004
      2747.5634
   4137419.58648   3205862.37045  22376915.1094   22376911.3524
     -2306.5314
  -3526919.04249  -2742172.26448  20968029.0864   20968027.4804
      1669.7504
 04  9 10 21 31 45.0000000  0  7G 3G 8G13G10G19G23G27
  -2143920.37148  -1667976.78144  22767295.9534   22767295.8754
       534.4064
  -6036217.74449  -4688540.07046  21895946.4304   21895946.1684
      2895.8134
   -491808.39949   -384588.35648  20250015.8134   20250013.1524
      -184.9224
   -663616.83245   -506723.53142  23957919.7734   23957920.6414
      2793.8914
  -6007357.15447  -4679822.60144  23003144.0474   23003142.6484
      2742.5784
   4172047.76648   3232845.33045  22383503.9694   22383501.1484
     -2310.2664
  -3551951.00349  -2761677.68748  20963265.8284   20963264.0004
      1668.0474
 04  9 10 21 32  0.0000000  0  7G 3G 8G13G10G19G23G27
  -2151870.20948  -1674171.45344  22765783.5554   22765782.7584
       525.8444
  -6079639.21449  -4722374.98046  21887684.0164   21887683.0904
      2894.0164
   -488980.42249   -382384.75848  20250553.9384   20250551.7114
      -191.8444
   -705474.77746   -539340.10242  23949954.7894   23949955.2424
      2787.3134
  -6048453.63847  -4711845.80044  22995323.8134   22995322.5944
      2737.3754
   4206732.18648   3259872.10745  22390104.1484   22390101.1214
     -2313.9534
  -3576955.89249  -2781162.02148  20958507.3674   20958506.0744
      1666.2504
 04  9 10 21 32 15.0000000  0  7G 3G 8G13G10G19G23G27
  -2159697.31348  -1680270.50044  22764293.6414   22764293.5004
       517.6564
  -6123037.98149  -4756192.18546  21879425.6414   21879424.5634
      2892.4224
   -486053.29349   -380103.88048  20251110.7274   20251108.4024
      -198.5164
   -747235.57546   -571880.97842  23942007.2664   23942008.1374
      2780.8134
  -6089478.72447  -4743813.35744  22987517.0004   22987515.1724
      2732.4844
   4241466.73248   3286937.95345  22396714.4064   22396711.3444
     -2317.4064
  -3601939.53849  -2800629.79248  20953753.0314   20953751.8204
      1664.8754
 04  9 10 21 32 30.0000000  0  7G 3G 8G13G10G19G23G27
  -2167399.74348  -1686272.37244  22762828.0084   22762827.5864
       509.2974
  -6166412.19149  -4789990.24246  21871171.6094   21871170.8914
      2890.7974
   -483024.79549   -377744.01548  20251687.0164   20251684.9734
      -205.3284
   -788897.01746   -604344.41742  23934080.4924   23934080.0164
      2774.0634
  -6130430.01547  -4775723.40544  22979723.5784   22979722.3324
      2727.5474
   4276253.23148   3314044.29245  22403333.5314   22403330.8324
     -2320.8284
  -3626899.83249  -2820079.36948  20949003.5084   20949002.1524
      1663.2034
 04  9 10 21 32 45.0000000  0  7G 3G 8G13G10G19G23G27
  -2174975.33448  -1692175.42344  22761386.5314   22761386.0554
       501.0004
  -6209759.35249  -4823767.21846  21862922.8754   21862922.3484
      2889.0944
   -479892.88349   -375303.57948  20252283.0004   20252280.9414
      -212.0624
   -830456.67346   -636728.57242  23926171.5234   23926171.6254
      2767.4384
  -6171305.12547  -4807574.11244  22971946.4144   22971944.3554
      2722.6414
   4311093.60348   3341192.59645  22409963.4694   22409961.3364
     -2324.2194
  -3651834.87149  -2839509.25648  20944258.3984   20944257.0234
      1661.6884
 04  9 10 21 33  0.0000000  0  7G 3G 8G13G10G19G23G27
  -2182423.35348  -1697979.08344  22759969.2584   22759968.7504
       491.9534
  -6253079.00449  -4857522.78646  21854679.1884   21854678.9344
      2886.7344
   -476656.79249   -372781.95148  20252898.9144   20252896.3914
      -219.5474
   -871913.60646   -669032.60843  23918282.2814   23918282.6604
      2760.0944
  -6212103.07347  -4839364.69144  22964182.4144   22964180.7034
      2716.8754
   4345988.39748   3368383.29645  22416603.7814   22416601.1994
     -2328.4064
  -3676743.75649  -2858918.77748  20939518.5634   20939517.1214
      1659.4384
 04  9 10 21 33 15.0000000  0  7G 3G 8G13G10G19G23G27
  -2189742.55048  -1703682.35044  22758575.8834   22758576.1564
       483.5474
  -6296369.87249  -4891255.90746  21846441.2194   21846440.7734
      2885.0004
   -473315.46449   -370178.32648  20253534.7894   20253532.4574
      -226.2974
   -913266.42846   -701255.59142  23910413.6094   23910412.8484
      2753.3134
  -6252822.26447  -4871093.90744  22956433.7584   22956432.1604
      2711.9384
   4380938.63048   3395617.20745  22423254.7584   22423252.1954
     -2332.0164
  -3701625.41749  -2878307.08248  20934783.8524   20934782.0784
      1657.8134
 04  9 10 21 33 30.0000000  0  7G 3G 8G13G10G19G23G27
  -2196932.99448  -1709285.28544  22757208.4144   22757207.9534
       475.3754
  -6339631.80049  -4924966.48346  21838209.0084   21838207.9734
      2883.4694
   -469868.75149   -367492.58648  20254190.8054   20254188.9184
      -232.9844
   -954514.91746   -733397.21442  23902563.6804   23902563.6524
      2746.7504
  -6293462.33647  -4902761.45544  22948700.2664   22948698.3954
      2706.9844
   4415944.11148   3422894.16445  22429915.7734   22429913.2114
     -2335.1724
  -3726479.68549  -2897674.03848  20930053.9694   20930052.2504
      1656.3594
 04  9 10 21 33 45.0000000  0  7G 3G 8G13G10G19G23G27
  -2203997.53648  -1714790.10444  22755864.1644   22755863.7624
       466.4224
  -6382867.90949  -4958656.94046  21829981.5634   21829980.8524
      2881.1254
   -466319.60549   -364727.02748  20254866.0944   20254863.5664
      -240.4374
   -995661.80146   -765459.71642  23894733.6484   23894733.4964
      2739.3914
  -6334026.06447  -4934369.53344  22940981.3284   22940979.3714
      2701.1564
   4451001.76848   3450211.77045  22436587.4064   22436584.9694
     -2339.3284
  -3751309.63349  -2917022.04648  20925329.4064   20925327.5354
      1654.0784
 04  9 10 21 34  0.0000000  0  7G 3G 8G13G10G19G23G27
  -2210939.39048  -1720199.34544  22754542.6024   22754541.8244
       458.7974
  -6426081.04949  -4992329.50846  21821758.0164   21821757.2304
      2880.1724
   -462671.25549   -361884.16948  20255560.3524   20255557.6994
      -246.5164
  -1036710.01146   -797445.29442  23886922.6254   23886922.6454
      2733.2974
  -6374516.27447  -4965920.31544  22933276.1884   22933274.0554
      2696.9064
   4486108.19548   3477567.38645  22443267.9774   22443265.2114
     -2342.0624
  -3776118.28849  -2936353.45548  20920608.0474   20920606.7814
      1653.2504
 04  9 10 21 34 15.0000000  0  7G 3G 8G13G10G19G23G27
  -2217757.32948  -1725512.00244  22753245.0234   22753244.9494
       450.2974
  -6469270.03749  -5025983.24546  21813539.5944   21813538.5044
      2878.4534
   -458922.53649   -358963.08948  20256274.0084   20256271.7854
      -253.2814
  -1077658.18046   -829352.96543  23879130.2424   23879130.6054
      2726.5004
  -6414931.39047  -4997412.58244  22925586.0164   22925583.5944
      2691.7504
   4521264.45048   3504961.83345  22449958.1644   22449955.3444
     -2345.4694
  -3800904.62249  -2955667.47148  20915891.4924   20915890.3914
      1651.7034
 04  9 10 21 34 30.0000000  0  7G 3G 8G13G10G19G23G27
  -2224450.36048  -1730727.35344  22751971.1804   22751970.9144
       442.2814
  -6512434.06649  -5059617.53446  21805325.2274   21805324.7934
      2877.0164
   -455072.35349   -355962.96448  20257006.6414   20257004.0044
      -259.8444
  -1118504.92346   -861181.55842  23871357.2974   23871358.2504
      2719.9064
  -6455270.05447  -5028845.28144  22917909.1644   22917907.1454
      2686.9534
   4556471.31548   3532395.71045  22456657.4534   22456655.1174
     -2348.6254
  -3825667.50749  -2974963.22748  20911179.6334   20911177.7304
      1650.3444
 04  9 10 21 34 45.0000000  0  7G 3G 8G13G10G19G23G27
  -2231017.02148  -1735844.20344  22750721.2814   22750721.9064
       433.5004
  -6555571.59349  -5093231.16846  21797116.6954   21797116.3444
      2874.8754
   -451119.28649   -352882.65848  20257758.6804   20257756.4614
      -266.9844
  -1159248.59745   -892929.86142  23863603.2894   23863604.7934
      2712.8134
  -6495530.57047  -5060217.08744  22910247.5394   22910246.0124
      2681.4224
   4591729.99048   3559869.95845  22463367.6724   22463364.5164
     -2352.2814
  -3850405.46849  -2994239.54748  20906471.8524   20906470.5864
      1648.3444
 04  9 10 21 35  0.0000000  0  7G 3G 8G13G10G19G23G27
  -2237456.85148  -1740862.26144  22749496.3984   22749495.8714
       424.9064
  -6598682.08249  -5126823.73146  21788913.1884   21788912.3674
      2873.0164
   -447062.87549   -349721.82448  20258530.6024   20258528.3674
      -274.0474
  -1199888.56246   -924597.35443  23855870.5554   23855871.0944
      2705.7194
  -6535712.16247  -5091527.39344  22902601.6644   22902599.0204
      2675.9844
   4627040.74048   3587384.78245  22470086.0314   22470084.0314
     -2356.0164
  -3875118.17749  -3013496.20248  20901769.4454   20901767.7114
      1646.5474
 04  9 10 21 35 15.0000000  0  7G 3G 8G13G10G19G23G27
  -2243771.92348  -1745783.08844  22748295.0784   22748295.0204
       416.6884
  -6641767.54649  -5160396.81146  21780714.0554   21780713.8054
      2871.3594
   -442905.19149   -346482.07748  20259321.6804   20259319.7034
      -280.7344
  -1240426.74646   -956185.50943  23848156.4534   23848156.9304
      2699.0004
  -6575816.68647  -5122777.63544  22894969.8444   22894968.1134
      2671.0004
   4662401.31248   3614938.42746  22476815.3914   22476813.1604
     -2359.1724
  -3899807.66549  -3032734.75448  20897070.9774   20897069.3524
      1645.0474
 04  9 10 21 35 30.0000000  0  7G 3G 8G13G10G19G23G27
  -2249960.31948  -1750605.21944  22747116.6024   22747117.0434
       408.5164
  -6684826.09349  -5193948.91046  21772520.6804   21772519.3364
      2869.8594
   -438644.34249   -343161.94748  20260132.7344   20260130.3794
      -287.3594
  -1280861.01346   -987692.70142  23840461.9774   23840462.2544
      2692.3914
  -6615841.82847  -5153966.03045  22887353.9534   22887351.3364
      2665.9534
   4697813.46548   3642532.26445  22483554.3594   22483551.3554
     -2362.3124
  -3924472.10949  -3051953.80248  20892377.4304   20892375.6994
      1643.6724
 04  9 10 21 35 45.0000000  0  7G 3G 8G13G10G19G23G27
  -2256024.09148  -1755330.23044  22745963.5474   22745962.8014
       399.7344
  -6727859.78649  -5227481.64146  21764331.4304   21764330.5314
      2867.7344
   -434282.38249   -339763.02148  20260962.8054   20260960.0314
      -294.5474
  -1321192.95445  -1019120.16743  23832787.5704   23832786.9384
      2685.1094
  -6655789.23847  -5185093.85245  22879751.8204   22879749.7154
      2660.2344
   4733274.96448   3670164.56145  22490302.9224   22490300.1564
     -2366.0784
  -3949113.33049  -3071154.74248  20887688.0234   20887686.1094
      1641.7034
 04  9 10 21 36  0.0000000  0  7G 3G 8G13G10G19G23G27
  -2261962.98048  -1759957.91744  22744833.0474   22744833.2344
       391.5634
  -6770868.14949  -5260994.62946  21756147.0314   21756146.3524
      2866.0944
   -429819.10849   -336285.15448  20261811.8914   20261809.2384
      -301.2034
  -1361422.34545  -1050467.70942  23825131.9224   23825131.7194
      2678.3134
  -6695658.45847  -5216160.74045  22872164.6804   22872162.4614
      2655.0944
   4768785.80648   3697835.31245  22497059.7814   22497057.6604
     -2369.2974
  -3973731.17049  -3090337.47148  20883003.7664   20883002.0554
      1640.1414
 04  9 10 21 36 15.0000000  0  7G 3G 8G13G10G19G23G27
  -2267774.17548  -1764486.11044  22743727.0864   22743727.0204
       383.5164
  -6813848.31049  -5294485.64146  21747968.4384   21747967.4144
      2864.7974
   -425251.59149   -332726.05848  20262681.1414   20262678.8794
      -307.6414
  -1401545.93546  -1081732.81643  23817496.7664   23817496.8324
      2671.8914
  -6735446.27347  -5247164.18045  22864593.2274   22864591.5354
      2650.1254
   4804348.73248   3725546.64845  22503827.6644   22503825.3164
     -2372.1724
  -3998322.83148  -3109499.80148  20878323.9384   20878322.5004
      1638.9694
 04  9 10 21 36 30.0000000  0  8G 3G 8G13G10G19G23G27G28
  -2273467.51148  -1768922.47144  22742644.0004   22742643.4884
       375.5634
  -6856810.30049  -5327962.49746  21739792.7114   21739792.2384
      2863.4384
   -420589.81349   -329093.50548  20263568.3204   20263565.9144
      -313.9534
  -1441573.50246  -1112923.08742  23809879.9534   23809879.8794
      2665.2344
  -6775162.21447  -5278111.63545  22857035.6724   22857033.5984
      2645.3594
   4839953.74548   3753290.78545  22510603.1024   22510600.2304
     -2375.1094
  -4022898.03448  -3128649.29448  20873647.2194   20873645.9574
      1637.7504
   -145890.84058    -94330.75952  24108284.3594   24108286.2544
      4097.1414
 04  9 10 21 36 45.0000000  0  8G 3G 8G13G10G19G23G27G28
  -2279041.08448  -1773265.50944  22741583.4224   22741583.1604
       367.1564
  -6899752.00749  -5361423.53946  21731621.1484   21731620.2774
      2861.6564
   -415831.70149   -325385.89948  20264473.7424   20264471.4344
      -320.8754
  -1481502.78045  -1144036.79843  23802280.7894   23802281.1844
      2658.2664
  -6814804.01247  -5309001.29045  22849492.0864   22849490.2584
      2639.8594
   4875602.55548   3781069.02745  22517386.5784   22517384.2344
     -2378.4844
  -4047454.86148  -3147784.47848  20868974.5554   20868972.4304
      1636.0634
   -207341.50448   -142214.31643  24096591.1564   24096592.5394
      4095.9064
 04  9 10 21 37  0.0000000  0  8G 3G 8G13G10G19G23G27G28
  -2284491.08448  -1777512.25244  22740546.5784   22740545.9534
       358.9384
  -6942669.50749  -5394865.71747  21723454.4614   21723453.6914
      2860.1564
   -410973.56848   -321600.34548  20265398.2504   20265395.8634
      -327.4534
  -1521329.84546  -1175070.84142  23794702.3284   23794702.2664
      2651.5314
  -6854367.77747  -5339830.15945  22841963.4224   22841961.1724
      2634.6884
   4911298.50348   3808884.00945  22524179.5474   22524176.6994
     -2381.5164
  -4071989.57048  -3166902.43248  20864305.6024   20864303.8984
      1634.6564
   -268776.39048   -190085.58142  24084900.1174   24084901.1684
      4094.8444
 04  9 10 21 37 15.0000000  0  8G 3G 8G13G10G19G23G27G28
  -2289812.33448  -1781658.68044  22739533.9694   22739533.2854
       350.3594
  -6985557.69049  -5428285.05847  21715292.8054   21715292.0904
      2858.1254
   -406010.23149   -317732.82248  20266342.7034   20266340.4574
      -334.5004
  -1561049.23845  -1206020.98942  23787143.7814   23787144.3244
      2644.1724
  -6893847.80547  -5370593.77145  22834449.7974   22834448.4184
      2629.0474
   4947046.87047   3836739.83445  22530981.1804   22530979.0744
     -2385.0944
  -4096496.88949  -3185999.03648  20859642.1484   20859640.6414
      1632.8134
   -330189.92048   -237940.17043  24073212.4694   24073214.6174
      4093.4064
 04  9 10 21 37 30.0000000  0  8G 3G 8G13G10G19G23G27G28
  -2295015.26448  -1785712.90344  22738543.3444   22738543.3134
       343.1254
  -7028427.09749  -5461689.76646  21707135.1884   21707134.4344
      2857.5314
   -400952.29049   -313791.57148  20267305.1024   20267302.6174
      -340.1254
  -1600671.39846  -1236895.38842  23779604.1954   23779604.4734
      2638.3444
  -6933254.37147  -5401300.14945  22826951.8674   22826949.5554
      2624.8284
   4982836.94147   3864628.16745  22537792.2734   22537790.1024
     -2387.0944
  -4120987.43149  -3205082.56648  20854981.5864   20854980.1334
      1632.3754
   -391592.48748   -285786.26542  24061528.3674   24061530.0824
      4093.3134
 04  9 10 21 37 44.9990000  0  8G 3G 8G13G10G19G23G27G28
  -2300094.12148  -1789670.45744  22737576.9954   22737577.1164
       334.3134
  -7071269.40249  -5495073.36646  21698982.4484   21698982.1014
      2855.3914
   -395794.47349   -309772.50848  20268286.8314   20268284.5074
      -347.3754
  -1640187.78945  -1267687.37542  23772084.2534   23772084.2654
      2631.0784
  -6972578.91847  -5431942.59045  22819467.9564   22819466.5694
      2619.0004
   5018671.61447   3892551.23845  22544611.3474   22544609.5894
     -2390.8444
  -4145453.89848  -3224147.34548  20850326.1514   20850324.2024
      1630.2814
   -452974.35447   -333616.19842  24049848.2224   24049849.4404
      4091.7194
 04  9 10 21 37 59.9990000  0  8G 3G 8G13G10G19G23G27G28
  -2305051.99848  -1793533.73644  22736633.6444   22736633.3624
       326.1724
  -7114092.53349  -5528442.01646  21690833.6754   21690832.6594
      2853.9224
   -390538.46549   -305676.92848  20269287.0654   20269284.8744
      -353.9064
  -1679605.83045  -1298402.72242  23764582.7144   23764583.9764
      2624.2504
  -7011828.82747  -5462526.89945  22811999.3554   22811997.6084
      2613.9224
   5054552.99147   3920510.69745  22551440.1054   22551437.1204
     -2393.9064
  -4169902.04149  -3243197.84748  20845673.5814   20845671.9524
      1628.9534
   -514345.88147   -381438.06042  24038169.5734   24038170.9834
      4090.7034
 04  9 10 21 38 14.9990000  0  8G 3G 8G13G10G19G23G27G28
  -2309891.25048  -1797304.56244  22735712.6904   22735712.5854
       318.2664
  -7156896.33249  -5561795.60746  21682688.3474   21682687.4604
      2852.5164
   -385187.34149   -301507.22748  20270304.8864   20270302.7414
      -360.2344
  -1718925.51146  -1329041.31442  23757101.2064   23757101.7064
      2617.6254
  -7051003.86347  -5493052.85045  22804544.1754   22804542.6284
      2608.7664
   5090475.92047   3948502.56345  22558276.2844   22558273.4134
     -2396.5944
  -4194332.86049  -3262234.84048  20841024.4954   20841023.3664
      1627.7194
   -575705.40147   -429250.57342  24026492.4094   24026494.6244
      4089.7974
 04  9 10 21 38 29.9990000  0  8G 3G 8G13G10G19G23G27G28
  -2314605.11948  -1800977.71544  22734815.6594   22734815.4134
       310.2194
  -7199673.98049  -5595128.82446  21674547.8004   21674546.8084
      2851.1564
   -379734.45849   -297258.22948  20271342.7694   20271340.4834
      -366.7034
  -1758139.82545  -1359597.93742  23749637.7924   23749639.1754
      2610.9694
  -7090097.10947  -5523515.07345  22797104.0734   22797103.7224
      2603.6724
   5126446.75647   3976531.74245  22565120.9724   22565118.1244
     -2399.4064
  -4218739.59549  -3281253.06348  20836380.2224   20836378.3784
      1626.4694
   -637046.11147   -477048.43443  24014820.5344   24014821.6714
      4088.9064
 04  9 10 21 38 44.9990000  0  8G 3G 8G13G10G19G23G27G28
  -2319200.64248  -1804558.62644  22733941.1594   22733940.7844
       302.7034
  -7242432.30649  -5628446.96346  21666411.1124   21666410.6594
      2850.1254
   -374186.62049   -292935.24448  20272398.6444   20272396.8554
      -372.7974
  -1797255.49345  -1390077.63042  23742195.5504   23742195.9834
      2604.6414
  -7129115.01647  -5553918.57745  22789680.4014   22789678.2964
      2598.9534
   5162458.48648   4004592.78745  22571974.4644   22571971.2024
     -2401.8444
  -4243129.24549  -3300257.97348  20831738.9724   20831736.9874
      1625.6564
   -698374.72048   -524836.86442  24003149.8084   24003151.0934
      4088.3914
 04  9 10 21 38 59.9990000  0  8G 3G 8G13G10G19G23G27G28
  -2323677.32448  -1808046.93644  22733089.1054   22733089.1674
       294.5944
  -7285170.92649  -5661749.76146  21658278.5584   21658277.5074
      2848.6254
   -368543.49349   -288538.01548  20273471.9804   20273469.3974
      -379.4224
  -1836271.77545  -1420479.91442  23734770.7534   23734770.4254
      2597.7504
  -7168057.03647  -5584262.95745  22782269.9954   22782267.9684
      2593.7034
   5198511.47347   4032685.98045  22578833.9334   22578831.8234
     -2404.9374
  -4267501.21349  -3319249.10548  20827100.9724   20827100.2414
      1624.3284
   -759690.47048   -572615.27043  23991482.4334   23991482.7614
      4087.3284
 04  9 10 21 39 14.9990000  0  8G 3G 8G13G10G19G23G27G28
  -2328030.09348  -1811438.71444  22732261.0814   22732260.8864
       285.5634
  -7327884.60249  -5695033.12947  21650150.1124   21650149.6054
      2846.2344
   -362799.94849   -284062.53948  20274565.4404   20274563.4804
      -386.6874
  -1875183.55345  -1450800.76042  23727365.7304   23727365.6754
      2590.2664
  -7206917.63147  -5614543.91245  22774874.6674   22774872.4524
      2587.5004
   5234610.49747   4060815.04345  22585703.8944   22585701.4134
     -2408.6414
  -4291850.49849  -3338222.58348  20822467.4564   20822465.9174
      1622.0634
   -820988.13048   -620379.60042  23979817.4564   23979818.0694
      4085.4694
 04  9 10 21 39 29.9990000  0  8G 3G 8G13G10G19G23G27G28
  -2332257.54648  -1814732.82744  22731456.9174   22731456.2534
       277.4844
  -7370572.03749  -5728296.04146  21642027.2764   21642026.3904
      2844.8594
   -356954.60849   -279507.73648  20275677.8624   20275675.5934
      -393.2504
  -1913988.98846  -1481038.76142  23719981.8394   23719981.8314
      2583.2034
  -7245695.10347  -5644760.08845  22767496.3474   22767494.0304
      2582.2034
   5270756.74548   4088980.90045  22592582.5894   22592579.5694
     -2411.4064
  -4316175.62749  -3357177.21948  20817838.7144   20817836.6834
      1620.7194
   -882266.16048   -668128.59443  23968156.1594   23968157.2574
      4084.3594
 04  9 10 21 39 44.9990000  0  8G 3G 8G13G10G19G23G27G28
  -2336366.94548  -1817934.94844  22730675.1284   22730674.0264
       269.8444
  -7413240.52649  -5761544.19246  21633907.3474   21633906.3944
      2843.7974
   -351014.87449   -274879.37248  20276808.1444   20276805.7334
      -399.2504
  -1952695.32946  -1511199.52142  23712615.0194   23712616.1594
      2577.0944
  -7284396.43547  -5674916.92445  22760131.3864   22760129.2374
      2577.3284
   5306942.84947   4117177.83145  22599468.0034   22599466.2374
     -2413.8754
  -4340483.93349  -3376118.75048  20813212.9954   20813211.1514
      1619.8754
   -943531.81548   -715867.98343  23956497.8234   23956498.7654
      4083.7814
 04  9 10 21 39 59.9990000  0  8G 3G 8G13G10G19G23G27G28
  -2340352.46648  -1821040.53744  22729916.0504   22729915.5584
       261.8284
  -7455883.88649  -5794772.75846  21625793.0034   21625791.7454
      2842.2974
   -344974.77649   -270172.82348  20277957.4014   20277955.2024
      -405.8124
  -1991296.37945  -1541278.25342  23705269.9644   23705269.9094
      2570.0944
  -7323015.47047  -5705009.64845  22752782.2064   22752780.1124
      2572.1094
   5343174.39247   4145410.14245  22606363.4334   22606360.4444
     -2416.6724
  -4364769.41849  -3395042.50048  20808591.1364   20808589.9564
      1618.4384
  -1004778.74948   -763592.78643  23944843.0504   23944843.6904
      4082.6724
 04  9 10 21 40 14.9990000  0  8G 3G 8G13G10G19G23G27G28
  -2344222.82448  -1824056.41244  22729179.7844   22729179.3004
       253.7814
  -7498510.82249  -5827988.54446  21617681.2534   21617679.8784
      2840.8284
   -338843.02548   -265394.84448  20279124.1904   20279121.8434
      -412.2034
  -2029800.64546  -1571281.53042  23697943.5814   23697942.8084
      2563.3444
  -7361560.46147  -5735044.67345  22745447.3394   22745444.8944
      2566.8594
   5379442.56847   4173671.01245  22613264.3554   22613262.1204
     -2419.5004
  -4389040.77748  -3413955.25048  20803972.8234   20803970.6404
      1617.2504
  -1066015.54548   -811309.67143  23933189.9094   23933190.4054
      4081.7664
 04  9 10 21 40 29.9990000  0  8G 3G 8G13G10G19G23G27G28
  -2347971.64748  -1826977.57744  22728466.1284   22728466.0814
       246.1884
  -7541115.17749  -5861186.70846  21609573.6834   21609572.4914
      2839.8444
   -332613.27849   -260540.49048  20280309.6284   20280307.2534
      -418.2034
  -2068201.46946  -1601204.20142  23690636.4254   23690635.5774
      2556.9844
  -7400024.70647  -5765016.77545  22738127.4804   22738125.4054
      2561.9224
   5415753.58147   4201965.26545  22620174.5814   22620172.3434
     -2421.7194
  -4413291.62749  -3432852.00248  20799358.0894   20799356.6324
      1616.3594
  -1127235.57448   -859013.49943  23921539.7764   23921540.7414
      4081.1414
 04  9 10 21 40 44.9990000  0  8G 3G 8G13G10G19G23G27G28
  -2351602.56348  -1829806.86044  22727774.8474   22727774.8784
       237.9844
  -7583700.16849  -5894369.80846  21601470.2694   21601469.1124
      2838.2034
   -326289.01749   -255612.51348  20281513.2924   20281510.5504
      -424.9844
  -2106502.21846  -1631048.92042  23683347.7534   23683347.6014
      2549.8914
  -7438411.65547  -5794928.66445  22730822.8624   22730820.4094
      2556.4064
   5452103.57547   4230289.87645  22627091.4644   22627089.2574
     -2424.7504
  -4437525.48349  -3451735.53148  20794746.4724   20794744.7804
      1614.8914
  -1188442.21648   -906706.89543  23909892.4094   23909893.4094
      4079.7974
 04  9 10 21 40 59.9990000  0  8G 3G 8G13G10G19G23G27G28
  -2355115.97548  -1832544.56444  22727106.7454   22727106.2334
       230.5784
  -7626266.22549  -5927538.13547  21593369.8704   21593369.1124
      2837.3284
   -319870.73849   -250611.26448  20282734.4874   20282732.5694
      -430.7814
  -2144703.01846  -1660815.75642  23676077.4484   23676077.6904
      2543.6884
  -7476721.22947  -5824780.24745  22723532.9564   22723529.9684
      2551.6884
   5488492.09447   4258644.52445  22634016.1204   22634013.7764
     -2426.9064
  -4461742.73149  -3470606.10248  20790138.1124   20790136.2844
      1614.1884
  -1249635.65348   -954389.99142  23898247.3474   23898248.3584
      4079.3594
 04  9 10 21 41 14.9990000  0  8G 3G 8G13G10G19G23G27G28
  -2358506.46848  -1835186.52144  22726461.2844   22726460.9804
       221.2504
  -7668808.09649  -5960687.62847  21585274.6984   21585273.5504
      2834.6724
   -313353.08149   -245532.58148  20283975.1904   20283972.7534
      -438.4844
  -2182798.37246  -1690500.43642  23668828.4094   23668828.8314
      2535.4384
  -7514947.76947  -5854567.12945  22716258.3084   22716256.3194
      2545.0004
   5524924.24447   4287033.14445  22640949.3864   22640946.8864
     -2430.9224
  -4485937.94148  -3489459.51548  20785533.9094   20785531.8904
      1611.6094
  -1310810.35648  -1002058.51342  23886606.2304   23886607.8944
      4076.9844
 04  9 10 21 41 29.9990000  0  8G 3G 8G13G10G19G23G27G28
  -2361773.89448  -1837732.54544  22725839.9014   22725839.1714
       214.1094
  -7711325.23049  -5993817.83547  21577183.7304   21577182.5304
      2833.9534
   -306735.66149   -240376.15548  20285234.0654   20285231.6054
      -444.1564
  -2220787.81546  -1720102.59342  23661598.9724   23661599.6634
      2529.5004
  -7553090.68847  -5884288.86345  22709000.0894   22708998.0114
      2540.3914
   5561400.17047   4315455.90445  22647890.3784   22647888.3474
     -2432.8914
  -4510110.77549  -3508295.48348  20780934.1204   20780932.1014
      1611.1254
  -1371965.81148  -1049712.03542  23874969.0654   23874969.9254
      4076.6724
 04  9 10 21 41 44.9990000  0  8G 3G 8G13G10G19G23G27G28
  -2364923.64248  -1840186.90944  22725239.8784   22725239.7144
       205.8284
  -7753823.36049  -6026933.24247  21569096.6754   21569095.6834
      2832.3594
   -300024.17449   -235146.43148  20286511.3474   20286509.1634
      -450.7194
  -2258676.52446  -1749626.26143  23654389.5114   23654389.2334
      2522.3444
  -7591155.19847  -5913949.48245  22701756.6054   22701754.6364
      2534.7974
   5597914.11847   4343908.27945  22654838.0504   22654836.2334
     -2435.7344
  -4534266.80149  -3527118.35648  20776337.3474   20776335.6834
      1609.6094
  -1433107.35948  -1097354.70942  23863333.6054   23863334.2334
      4075.3444
 04  9 10 21 41 59.9990000  0  8G 3G 8G13G10G19G23G27G28
  -2367954.41848  -1842548.53144  22724663.3784   22724663.2374
       197.9384
  -7796300.69149  -6060032.43747  21561013.4644   21561012.2414
      2830.9844
   -293217.32649   -229842.40348  20287806.6204   20287803.9644
      -457.1254
  -2296463.02946  -1779070.26942  23647198.7454   23647199.1054
      2515.4534
  -7629139.64347  -5943547.71445  22694528.7534   22694526.5624
      2529.4064
   5634467.28747   4372391.21845  22661794.5344   22661792.4444
     -2438.3284
  -4558404.54849  -3545926.98948  20771743.9954   20771742.4374
      1608.4384
  -1494233.44747  -1144985.36042  23851701.4174   23851702.7264
      4074.3594
 04  9 10 21 42 14.9990000  0  8G 3G 8G13G10G19G23G27G28
  -2370864.26248  -1844815.95044  22724109.4254   22724109.2694
       189.5004
  -7838755.39649  -6093114.01347  21552934.6754   21552933.6444
      2829.0474
   -286313.12549   -224462.52348  20289120.5034   20289118.2694
      -464.0314
  -2334145.16746  -1808432.94842  23640027.9404   23640027.8124
      2508.1564
  -7667041.72047  -5973081.75245  22687315.4644   22687313.5544
      2523.6094
   5671061.49647   4400906.12145  22668757.6444   22668755.7694
     -2441.3124
  -4582522.10149  -3564719.87948  20767154.2924   20767152.9564
      1606.6884
  -1555341.90948  -1192602.21342  23840073.1594   23840073.8474
      4072.8284
 04  9 10 21 42 29.9990000  0  8G 3G 8G13G10G19G23G27G28
  -2373653.94048  -1846989.73144  22723578.4644   22723578.5654
       182.1884
  -7881188.29749  -6126178.60147  21544860.1284   21544858.8974
      2828.3284
   -279312.03649   -219007.12848  20290452.6124   20290450.1324
      -469.7344
  -2371723.23246  -1837714.54243  23632876.8004   23632876.8744
      2501.9694
  -7704861.82247  -6002551.92845  22680118.4874   22680116.2454
      2518.8754
   5707695.96547   4429452.42244  22675729.7224   22675727.0344
     -2443.3124
  -4606620.01849  -3583497.46348  20762569.0034   20762567.5034
      1606.1724
  -1616433.20148  -1240205.73743  23828447.6124   23828448.4484
      4072.4224
 04  9 10 21 42 44.9990000  0  8G 3G 8G13G10G19G23G27G28
  -2376321.20648  -1849068.10144  22723071.6204   22723070.9644
       173.4384
  -7923596.61949  -6159224.03047  21536789.5894   21536788.7264
      2826.0634
   -272211.84949   -213474.53148  20291803.6054   20291801.4604
      -476.9374
  -2409194.87146  -1866913.18443  23625746.3554   23625746.7614
      2494.2194
  -7742597.43847  -6031956.28045  22672938.1984   22672935.5654
      2512.5164
   5744372.62647   4458031.57745  22682708.5654   22682706.8194
     -2446.9224
  -4630696.01249  -3602257.97548  20757987.1984   20757985.8354
      1604.0634
  -1677504.83348  -1287793.93543  23816826.0034   23816827.1554
      4070.4844
 04  9 10 21 42 59.9990000  0  8G 3G 8G13G10G19G23G27G28
  -2378865.55048  -1851050.72144  22722587.0734   22722587.0074
       165.2814
  -7965980.09949  -6192250.10047  21528724.3704   21528723.8194
      2824.5004
   -265012.11149   -207864.35148  20293174.1514   20293171.8554
      -483.5314
  -2446559.43746  -1896028.41343  23618636.5504   23618636.4524
      2487.1094
  -7780247.72747  -6061294.12045  22665773.0974   22665771.4484
      2506.9224
   5781091.74347   4486643.82545  22689696.3004   22689694.1944
     -2449.5944
  -4654749.59749  -3621001.02348  20753409.9874   20753408.4524
      1602.6414
  -1738556.16548  -1335366.32443  23805207.9484   23805209.0264
      4069.1414
 04  9 10 21 43 14.9990000  0  8G 3G 8G13G10G19G23G27G28
  -2381291.38648  -1852940.98044  22722125.6834   22722125.3664
       157.7664
  -8008342.90849  -6225260.05747  21520663.1834   21520662.3354
      2823.5474
   -257717.21949   -202180.03248  20294562.3784   20294559.7264
      -489.4534
  -2483820.92546  -1925063.33143  23611546.0734   23611545.6754
      2480.6564
  -7817816.66647  -6090568.57345  22658624.1204   22658622.4214
      2501.9384
   5817848.94847   4515285.74745  22696690.7064   22696688.8864
     -2451.7504
  -4678784.99849  -3639729.89948  20748836.1674   20748835.2884
      1601.7504
  -1799591.29148  -1382926.07043  23793593.3944   23793594.5424
      4068.5004
 04  9 10 21 43 29.9990000  0  8G 3G 8G13G10G19G23G27G28
  -2383594.84948  -1854735.86444  22721687.6674   22721686.9014
       149.9694
  -8050681.12749  -6258250.83547  21512606.6904   21512605.8234
      2822.2194
   -250323.29349   -196418.53848  20295969.1204   20295966.9684
      -495.7664
  -2520975.25547  -1954014.74343  23604475.1594   23604475.8194
      2473.8444
  -7855300.04147  -6119776.34745  22651491.2534   22651489.3744
      2496.4844
   5854647.91747   4543960.23345  22703694.1054   22703692.0034
     -2454.1564
  -4702798.29249  -3658441.55448  20744266.4804   20744265.1404
      1600.6254
  -1860605.96748  -1430469.92143  23781983.1594   23781984.0224
      4067.4224
 04  9 10 21 43 44.9990000  0  8G 3G 8G13G10G19G23G27G28
  -2385779.78648  -1856438.41944  22721271.3474   22721271.4254
       141.5314
  -8092998.59349  -6291225.47846  21504553.5974   21504552.5694
      2820.2344
   -242834.26649   -190582.94748  20297394.2844   20297392.4524
      -502.6254
  -2558026.08247  -1982885.50043  23597425.0194   23597425.3124
      2466.3754
  -7892701.32547  -6148920.16845  22644374.5264   22644372.2144
      2490.4064
   5891484.61447   4572664.10045  22710703.6984   22710701.6794
     -2457.3124
  -4726793.35349  -3677138.99748  20739700.4954   20739698.8514
      1598.8444
  -1921604.00748  -1478000.78443  23770375.4484   23770376.3864
      4065.7504
 04  9 10 21 43 59.9990000  0  8G 3G 8G13G10G19G23G27G28
  -2387842.44948  -1858045.68244  22720879.0424   22720878.8234
       133.5164
  -8135291.64549  -6324181.08947  21496505.6204   21496504.6404
      2818.7664
   -235246.40149   -184670.32648  20298837.9954   20298836.1084
      -509.1094
  -2594969.53546  -2011672.57743  23590394.3944   23590395.3234
      2459.3594
  -7930016.54347  -6177996.91745  22637272.9724   22637271.3624
      2484.9384
   5928362.51847   4601400.06645  22717721.1284   22717719.2334
     -2459.7974
  -4750766.36349  -3695819.25948  20735138.3624   20735136.6324
      1597.5314
  -1982581.35348  -1525515.50143  23758771.4804   23758772.3784
      4064.5944
 04  9 10 21 44 14.9990000  0  8G 3G 8G13G10G19G23G27G28
  -2389785.04748  -1859559.39044  22720509.1594   22720509.4564
       125.7664
  -8177562.03549  -6357119.04047  21488461.6444   21488461.1244
      2817.4844
   -227561.77549   -178682.32548  20300300.7454   20300298.2304
      -515.2814
  -2631807.40446  -2040377.40343  23583385.0654   23583385.3474
      2452.6094
  -7967247.47547  -6207008.00145  22630188.6284   22630186.1984
      2479.5164
   5965279.52647   4630166.51845  22724746.5114   22724744.2964
     -2462.1724
  -4774719.36349  -3714483.93248  20730580.5034   20730579.0384
      1596.4694
  -2043539.97448  -1573015.65543  23747171.6754   23747172.1204
      4063.5784
 04  9 10 21 44 29.9990000  0  8G 3G 8G13G10G19G23G27G28
  -2391610.46448  -1860981.79144  22720162.4404   22720161.7614
       117.4534
  -8219812.81149  -6390041.71047  21480422.0814   21480420.7414
      2815.7034
   -219783.26349   -172621.15948  20301780.8624   20301778.8124
      -522.0004
  -2668542.36346  -2069002.03543  23576394.2454   23576394.5074
      2445.2344
  -8004396.79848  -6235955.49845  22623118.9094   22623116.6754
      2473.3914
   6002232.30147   4658960.83545  22731778.3784   22731775.9404
     -2465.0004
  -4798655.27949  -3733135.29948  20726025.9254   20726023.9524
      1594.7664
  -2104482.58248  -1620503.36143  23735575.0114   23735575.3314
      4061.9844
 04  9 10 21 44 44.9990000  0  8G 3G 8G13G10G19G23G27G28
  -2393311.43848  -1862307.23844  22719838.9564   22719838.0424
       109.2814
  -8262036.42749  -6422943.21447  21472386.7534   21472385.4994
      2814.0634
   -211903.66249   -166481.21748  20303280.3314   20303277.7264
      -528.6724
  -2705166.96346  -2097540.65743  23569425.3084   23569425.4764
      2438.0944
  -8041456.95047  -6264833.51246  22616066.4804   22616064.7964
      2467.6724
   6039228.03447   4687788.62645  22738818.6834   22738816.6874
     -2467.8284
  -4822566.88649  -3751767.71348  20721475.0504   20721473.4054
      1593.3754
  -2165401.80848  -1667972.76243  23723982.2844   23723982.7024
      4060.5314
 04  9 10 21 44 59.9990000  0  8G 3G 8G13G10G19G23G27G28
  -2394896.70548  -1863542.48344  22719536.7224   22719536.2964
       101.9064
  -8304241.58349  -6455830.32147  21464355.4874   21464354.2064
      2813.1564
   -203931.73449   -160269.33648  20304797.1834   20304794.8584
      -534.4844
  -2741689.55046  -2125999.79943  23562475.0894   23562475.0544
      2431.5314
  -8078436.16948  -6293648.44645  22609030.2454   22609028.0154
      2462.6724
   6076257.86347   4716642.98245  22745865.0814   22745862.8704
     -2469.6414
  -4846462.56949  -3770387.71748  20716928.4174   20716926.8474
      1592.5944
  -2226306.00448  -1715430.52543  23712392.4644   23712393.0304
      4059.7504
 04  9 10 21 45 14.9990000  0  8G 3G 8G13G10G19G23G27G28
  -2396359.07948  -1864682.00544  22719258.0734   22719257.7764
        93.6414
  -8346421.26649  -6488697.59547  21456328.9014   21456328.1284
      2811.3134
   -195860.33549   -153979.94948  20306333.1594   20306330.6944
      -541.2034
  -2778102.91447  -2154373.86143  23555545.9644   23555545.6594
      2424.1414
  -8115327.00947  -6322394.52846  22602009.8474   22602008.0224
      2456.7194
   6113328.86148   4745529.41945  22752919.2924   22752917.2144
     -2472.4694
  -4870335.23549  -3788989.78948  20712385.1984   20712383.8084
      1590.9224
  -2287187.76047  -1762870.77043  23700806.6594   23700807.3004
      4058.3444
 04  9 10 21 45 29.9990000  0  8G 3G 8G13G10G19G23G27G28
  -2397704.66048  -1865730.49944  22719001.6754   22719002.5464
        85.7504
  -8388581.21049  -6521549.47947  21448306.0424   21448304.9254
      2809.9224
   -187695.36749   -147617.63848  20307886.4804   20307884.4054
      -547.5314
  -2814412.87746  -2182667.26443  23548635.7924   23548636.1794
      2417.1724
  -8152135.20647  -6351076.20445  22595005.3084   22595003.0584
      2451.0634
   6150434.77148   4774443.05844  22759980.4174   22759978.4644
     -2474.9694
  -4894190.88149  -3807578.59248  20707845.7374   20707844.2414
      1589.7344
  -2348053.00247  -1810298.16643  23689225.0814   23689225.6284
      4057.0634
 04  9 10 21 45 44.9990000  0  8G 3G 8G13G10G19G23G27G28
  -2398930.49248  -1866685.69644  22718768.8624   22718769.0624
        77.5314
  -8430718.39149  -6554383.62547  21440287.7224   21440286.5464
      2808.1724
   -179433.86749   -141180.11148  20309458.9334   20309457.0114
      -554.2344
  -2850616.24946  -2210877.68943  23541746.0194   23541746.7144
      2409.8444
  -8188857.44548  -6379690.91545  22588017.9874   22588015.1984
      2445.0784
   6187578.33848   4803386.04245  22767048.6204   22767046.4294
     -2477.7194
  -4918026.44849  -3826151.76248  20703310.0264   20703308.4604
      1588.1094
  -2408898.46348  -1857710.12543  23677646.0584   23677647.1404
      4055.4064
 04  9 10 21 45 59.9990000  0  8G 3G 8G13G10G19G23G27G28
  -2400033.65148  -1867545.28144  22718559.0424   22718558.7924
        69.8444
  -8472829.51849  -6587197.46747  21432273.9174   21432273.0384
      2806.9694
   -171072.89249   -134665.06748  20311049.9954   20311047.6364
      -560.3914
  -2886709.63946  -2239002.36943  23534877.8154   23534878.3314
      2402.9844
  -8225490.31047  -6408235.97345  22581046.2764   22581044.0814
      2439.5474
   6224762.48547   4832360.65144  22774124.6754   22774122.3704
     -2479.9064
  -4941838.86449  -3844706.87048  20698778.7454   20698777.1944
      1587.0944
  -2469720.87148  -1905104.12343  23666072.2224   23666072.2374
      4054.4224
 04  9 10 21 46 14.9990000  0  8G 3G 8G13G10G19G23G27G28
  -2401022.78748  -1868316.02744  22718370.5974   22718370.7494
        62.2974
  -8514923.50149  -6619997.96247  21424263.5584   21424262.9094
      2805.7664
   -162621.11349   -128079.28248  20312658.2764   20312655.7654
      -566.4374
  -2922701.50246  -2267047.97943  23528029.8084   23528029.5224
      2396.1094
  -8262042.33848  -6436718.04845  22574090.9094   22574088.4524
      2434.1564
   6261978.34647   4861359.95844  22781205.8474   22781204.2724
     -2482.0004
  -4965636.70749  -3863250.65548  20694250.1514   20694248.3084
      1586.0944
  -2530528.56047  -1952486.64743  23654499.5264   23654500.9644
      4053.3914
 04  9 10 21 46 29.9990000  0  8G 3G 8G13G10G19G23G27G28
  -2401891.13648  -1868992.66644  22718205.3704   22718205.4134
        54.1254
  -8556993.44249  -6652779.71647  21416258.5654   21416256.9484
      2804.1564
   -154071.79749   -121417.49348  20314284.9334   20314282.8154
      -572.8914
  -2958584.92246  -2295009.05743  23521200.8784   23521201.0654
      2389.0164
  -8298506.44248  -6465131.60445  22567150.9404   22567148.8744
      2428.2194
   6299232.54047   4890389.14244  22788295.7144   22788293.9914
     -2484.5784
  -4989413.09349  -3881777.69248  20689725.5504   20689723.6944
      1584.6724
  -2591314.60448  -1999852.34443  23642932.7614   23642933.4174
      4051.9844
 04  9 10 21 46 44.9990000  0  8G 3G 8G13G10G19G23G27G28
  -2402642.98748  -1869578.51244  22718062.5114   22718062.3314
        46.3444
  -8599043.34649  -6685545.86147  21408256.4404   21408255.1754
      2802.7344
   -145429.05349   -114682.88848  20315929.7224   20315927.9294
      -579.2034
  -2994364.01846  -2322888.86943  23514392.3624   23514393.0424
      2381.9384
  -8334886.57048  -6493479.72845  22560228.6124   22560226.4214
      2422.7034
   6336520.60648   4919444.71644  22795391.5814   22795389.6984
     -2486.8914
  -5013172.28049  -3900291.35348  20685204.4404   20685202.6904
      1583.4694
  -2652083.18748  -2047204.42143  23631369.2144   23631369.8784
      4050.7034
 04  9 10 21 46 59.9990000  0  8G 3G 8G13G10G19G23G27G28
  -2403273.31448  -1870069.67344  22717942.3234   22717942.4014
        38.5944
  -8641068.33149  -6718292.57947  21400259.0114   21400258.2104
      2801.4224
   -136688.02349   -107871.70648  20317593.0894   20317591.0224
      -585.4064
  -3030033.54847  -2350683.27043  23507604.1364   23507604.8084
      2374.8914
  -8371177.28248  -6521758.18045  22553323.1444   22553320.4764
      2417.0474
   6373847.46848   4948530.53044  22802495.2454   22802492.9764
     -2489.2034
  -5036909.25449  -3918787.68048  20680687.0734   20680685.8554
      1582.3284
  -2712829.06548  -2094538.80643  23619809.4804   23619810.3044
      4049.5314
 04  9 10 21 47 14.9990000  0  8G 3G 8G13G10G19G23G27G28
  -2403783.59048  -1870467.28944  22717845.1284   22717845.4724
        30.3914
  -8683069.65149  -6751020.87247  21392266.7224   21392265.8624
      2799.7664
   -127850.08249   -100985.01748  20319274.9954   20319272.6204
      -591.9694
  -3065594.64846  -2378393.22243  23500837.1754   23500838.0544
      2367.6564
  -8407379.63748  -6549967.78345  22546433.4804   22546431.2024
      2410.9384
   6411211.51448   4977645.30544  22809604.0504   22809602.8154
     -2491.7664
  -5060625.30249  -3937267.72548  20676174.1444   20676172.7024
      1580.8284
  -2773553.38248  -2141856.37543  23608254.3624   23608254.8434
      4047.9384
 04  9 10 21 47 29.9990000  0  8G 3G 8G13G10G19G23G27G28
  -2404178.06148  -1870774.65344  22717770.2064   22717769.8354
        22.3594
  -8725051.34749  -6783733.85647  21384278.0034   21384277.2144
      2798.0784
   -118919.46349    -94026.09848  20320974.4334   20320972.2614
      -598.5474
  -3101051.39146  -2406021.83243  23494090.1834   23494090.8044
      2360.2034
  -8443497.53447  -6578111.56245  22539560.1984   22539558.2724
      2404.8754
   6448608.33448   5006785.62744  22816720.7924   22816719.4484
     -2494.2814
  -5084324.55849  -3955734.66448  20671664.3944   20671662.9724
      1579.3284
  -2834260.05748  -2189160.20043  23596701.9404   23596702.3234
      4046.4534
 04  9 10 21 47 44.9990000  0  8G 3G 8G13G10G19G23G27G28
  -2404452.39348  -1870988.43044  22717717.8474   22717717.6714
        14.6564
  -8767009.09549  -6816428.19047  21376293.2614   21376292.5814
      2796.7194
   -109891.87849    -86991.62048  20322692.3314   20322690.0854
      -604.6414
  -3136399.17346  -2433565.52343  23487363.8784   23487364.3584
      2353.2034
  -8479526.20847  -6606185.82745  22532704.6984   22532701.9214
      2399.3444
   6486041.98348   5035954.64544  22823844.5654   22823842.5974
     -2496.4224
  -5108002.72649  -3974185.18048  20667158.4334   20667157.1204
      1578.1724
  -2894944.63048  -2236446.83543  23585154.5424   23585154.5694
      4045.3284
 04  9 10 21 47 59.9990000  0  8G 3G 8G13G10G19G23G27G28
  -2404609.54348  -1871110.88544  22717687.4564   22717688.0734
         6.1564
  -8808945.81549  -6849106.14347  21368313.0194   21368312.1944
      2794.6254
   -100770.16349    -79883.80048  20324428.1674   20324425.8044
      -611.6564
  -3171640.58046  -2461026.35043  23480657.8944   23480658.2764
      2345.3444
  -8515468.29247  -6634192.61245  22525865.1904   22525862.4484
      2392.7814
   6523509.60448   5065150.13644  22830974.7374   22830972.3514
     -2499.3914
  -5131662.48349  -3992621.35648  20662656.2304   20662654.3944
      1576.3134
  -2955609.65348  -2283718.19743  23573609.3314   23573610.3704
      4043.2034
 04  9 10 21 48 14.9990000  0  8G 3G 8G13G10G19G23G27G28
  -2404646.40248  -1871139.58244  22717680.9174   22717680.9334
        -1.5624
  -8850858.09049  -6881765.04747  21360337.5654   21360336.3664
      2793.3134
    -91551.15149    -72700.17148  20326182.6364   20326180.3154
      -617.9064
  -3206772.38246  -2488401.77143  23473972.2374   23473972.6244
      2338.4844
  -8551320.32748  -6662129.24145  22519043.0584   22519040.2804
      2387.0944
   6561014.18848   5094374.42944  22838111.5344   22838109.3704
     -2501.4844
  -5155300.73649  -4011040.76548  20658158.2614   20658156.5344
      1575.1884
  -3016251.88748  -2330971.81043  23562069.9804   23562070.0584
      4042.0314
 04  9 10 21 48 29.9990000  0  8G 3G 8G13G10G19G23G27G28
  -2404565.95648  -1871076.90944  22717696.6444   22717696.4764
        -9.3594
  -8892748.78649  -6914407.13047  21352365.9954   21352365.0504
      2791.8754
    -82237.94249    -65443.13948  20327955.0264   20327952.7884
      -624.1254
  -3241797.36247  -2515693.94243  23467307.4644   23467307.5974
      2331.3444
  -8587085.15748  -6689997.90445  22512236.5974   22512234.4834
      2381.2664
   6598552.42348   5123624.94544  22845254.9644   22845252.7724
     -2503.7504
  -5178920.34149  -4029445.65748  20653663.6364   20653662.0074
      1573.9534
  -3076873.98548  -2378209.73343  23550534.3784   23550534.6834
      4040.6564
 04  9 10 21 48 44.9990000  0  8G 3G 8G13G10G19G23G27G28
  -2404361.62448  -1870917.67344  22717735.3554   22717735.1714
       -18.3754
  -8934611.38449  -6947027.30847  21344399.7924   21344398.8704
      2789.3134
    -72823.83749    -58107.47748  20329746.5114   20329744.0814
      -631.5944
  -3276708.61947  -2542897.49642  23460664.1514   23460664.1474
      2323.0314
  -8622755.81848  -6717793.18545  22505448.7224   22505446.1474
      2374.3284
   6636130.78348   5152906.74744  22852405.9014   22852403.6514
     -2507.1724
  -5202514.55749  -4047830.75648  20649173.7304   20649172.1594
      1571.5314
  -3137469.16848  -2425426.67043  23539003.3784   23539004.0154
      4038.2034
 04  9 10 21 48 59.9990000  0  8G 3G 8G13G10G19G23G27G28
  -2404036.83148  -1870664.58044  22717796.9954   22717796.9014
       -25.3754
  -8976448.89549  -6979627.95647  21336438.0894   21336437.6284
      2788.6254
    -63312.18249    -50695.82248  20331556.4804   20331553.7144
      -637.0784
  -3311509.18947  -2570014.80743  23454041.3554   23454042.0424
      2316.6094
  -8658335.29248  -6745517.43045  22498678.3314   22498676.2374
      2369.2344
   6673745.88948   5182217.14344  22859563.7694   22859562.1794
     -2508.6724
  -5226086.64149  -4066198.61148  20644688.0194   20644686.6204
      1570.9844
  -3198040.52248  -2472625.08743  23527477.1594   23527477.0814
      4037.5164
 04  9 10 21 49 14.9990000  0  8G 3G 8G13G10G19G23G27G28
  -2403594.43348  -1870319.84544  22717881.0974   22717881.1164
       -33.7194
  -9018264.19849  -7012211.29747  21328481.0654   21328480.4684
      2786.6414
    -53705.92249    -43210.43048  20333384.2614   20333382.2494
      -643.8594
  -3346201.82947  -2597048.02043  23447439.5504   23447440.0154
      2309.0004
  -8693826.15047  -6773172.62045  22491924.1284   22491922.2884
      2362.7974
   6711394.66848   5211553.81144  22866728.5344   22866726.5264
     -2511.2814
  -5249639.49449  -4084551.46948  20640206.1444   20640204.2144
      1569.2504
  -3258590.76948  -2519807.01343  23515954.2694   23515954.8154
      4035.6724
 04  9 10 21 49 29.9990000  0  8G 3G 8G13G10G19G23G27G28
  -2403032.41848  -1869881.90444  22717988.0424   22717987.9644
       -41.2504
  -9060055.27549  -7044775.75547  21320528.5974   21320527.9254
      2785.5164
    -44002.99749    -35649.71248  20335230.7374   20335228.5854
      -649.8444
  -3380784.25747  -2623995.34043  23440859.0974   23440859.0264
      2302.0784
  -8729226.08548  -6800756.93846  22485188.1754   22485186.2494
      2357.2034
   6749078.97748   5240918.14844  22873899.7454   22873897.6634
     -2513.2194
  -5273170.94949  -4102887.66248  20635728.3864   20635726.6244
      1568.2814
  -3319117.52448  -2566970.68043  23504435.9804   23504436.7614
      4034.6414
 04  9 10 21 49 44.9990000  0  8G 3G 8G13G10G19G23G27G28
  -2402356.14148  -1869354.93644  22718116.9804   22718116.6874
       -48.8594
  -9101827.27549  -7077325.35247  21312579.5814   21312578.3474
      2784.1724
    -34208.72349    -28017.81648  20337094.4094   20337092.2144
      -655.9694
  -3415261.71347  -2650860.87543  23434297.4874   23434298.3744
      2295.0784
  -8764539.97448  -6828274.23246  22478468.3474   22478465.9834
      2351.4064
   6786793.25848   5270305.84344  22881076.1364   22881074.3824
     -2515.2664
  -5296686.20449  -4121211.24248  20631253.4564   20631251.6594
      1567.1414
  -3379625.95448  -2614120.02743  23492922.0194   23492922.3474
      4033.2504
 04  9 10 21 49 59.9990000  0  8G 3G 8G13G10G19G23G27G28
  -2401558.69648  -1868733.54044  22718268.5264   22718268.1164
       -56.9064
  -9143572.94949  -7109854.43247  21304635.5654   21304634.7144
      2782.4694
    -24316.02549    -20309.24148  20338977.0424   20338975.0544
      -662.4844
  -3449626.95246  -2677638.96743  23427757.9644   23427758.8004
      2287.5164
  -8799760.54948  -6855718.81646  22471766.2534   22471763.7334
      2345.2664
   6824544.36148   5299722.23944  22888259.8154   22888258.3554
     -2517.6414
  -5320178.31649  -4139516.77648  20626783.1364   20626781.5774
      1565.6884
  -3440108.79548  -2661249.45943  23481412.3704   23481412.4014
      4031.6564
 04  9 10 21 50 14.9990000  0  8G 3G 8G13G10G19G23G27G28
  -2400645.19248  -1868021.70144  22718442.4724   22718442.1984
       -64.8124
  -9185297.34649  -7142366.93647  21296695.9334   21296694.8194
      2780.8754
    -14330.20049    -12528.08848  20340877.1754   20340875.3554
      -668.8444
  -3483884.76047  -2704333.35243  23421239.1514   23421239.8274
      2280.2034
  -8834892.56348  -6883094.38346  22465080.4874   22465077.7724
      2339.1564
   6862327.00948   5329163.19544  22895450.8704   22895447.9294
     -2519.9064
  -5343652.19349  -4157808.10048  20622315.8944   20622314.1984
      1564.3134
  -3500570.94148  -2708362.79543  23469906.6284   23469906.7964
      4030.1094
 04  9 10 21 50 29.9990000  0  8G 3G 8G13G10G19G23G27G28
  -2399618.38748  -1867221.59544  22718637.8624   22718637.6754
       -72.3594
  -9227003.18849  -7174864.98347  21288759.5584   21288758.5464
      2779.6884
     -4254.03049     -4676.53548  20342794.8004   20342792.6054
      -674.9374
  -3518037.79147  -2730946.07243  23414739.9954   23414740.3624
      2273.2504
  -8869938.44648  -6910402.83946  22458411.3314   22458409.0114
      2333.3914
   6900138.37148   5358626.53344  22902645.5424   22902643.3044
     -2521.8914
  -5367110.50849  -4176087.30448  20617852.0894   20617850.1474
      1563.2504
  -3561014.96648  -2755461.95643  23458404.7614   23458404.9484
      4028.8444
 04  9 10 21 50 44.9990000  0  8G 3G 8G13G10G19G23G27G28
  -2398473.05348  -1866329.13744  22718855.7924   22718855.9444
       -80.5004
  -9268685.52249  -7207344.71147  21280827.5654   21280826.4254
      2777.8444
      5917.83049      3249.57648  20344730.0584   20344728.2144
      -681.5314
  -3552080.48547  -2757472.85243  23408262.7224   23408262.4254
      2265.6724
  -8904892.70948  -6937639.90446  22451760.0584   22451757.5194
      2326.9694
   6937983.45148   5388116.16444  22909846.7374   22909845.1124
     -2524.4064
  -5390547.96349  -4194350.24548  20613392.2224   20613390.6714
      1561.5314
  -3621435.37148  -2802542.74743  23446906.7614   23446907.0814
      4027.0164
 04  9 10 21 50 59.9990000  0  8G 3G 8G13G10G19G23G27G28
  -2397206.45548  -1865342.16244  22719096.8474   22719096.3274
       -88.7344
  -9310340.99249  -7239803.50347  21272900.5424   21272899.5814
      2775.9384
     16188.13049     11252.38247  20346684.6514   20346682.7534
      -688.1564
  -3586009.78547  -2783911.24843  23401806.1594   23401805.8744
      2257.9064
  -8939752.24548  -6964803.15745  22445126.2764   22445123.7534
      2320.5474
   6975864.92148   5417634.11844  22917055.3314   22917053.8974
     -2526.8284
  -5413961.67649  -4212594.70748  20608936.6124   20608934.9804
      1559.8754
  -3681829.10148  -2849602.72343  23435413.9804   23435414.7374
      4025.1724
 04  9 10 21 51 14.9990000  0  8G 3G 8G13G10G19G23G27G28
  -2395817.62948  -1864259.94944  22719360.7064   22719360.9874
       -96.5624
  -9351968.50249  -7272240.50147  21264979.1984   21264978.2614
      2774.3284
     26557.74649     19332.60248  20348657.9724   20348655.7804
      -694.5784
  -3619824.69246  -2810260.50543  23395371.2304   23395371.0584
      2250.5634
  -8974515.76748  -6991891.58845  22438511.2924   22438508.8004
      2314.4384
   7013783.65548   5447181.10144  22924270.6674   22924269.6444
     -2529.0314
  -5437350.61549  -4230819.83948  20604486.0734   20604484.6444
      1558.5784
  -3742195.08548  -2896641.07943  23423926.5974   23423927.3084
      4023.5474
 04  9 10 21 51 29.9990000  0  8G 3G 8G13G10G19G23G27G28
  -2394309.73548  -1863084.95844  22719648.2614   22719647.9834
      -104.5004
  -9393571.28149  -7304658.24247  21257062.6984   21257061.5654
      2772.6724
     37023.69949     27487.86348  20350649.9484   20350647.3004
      -700.9374
  -3653527.99346  -2836522.80143  23388957.4484   23388957.5264
      2243.1254
  -9009185.99147  -7018907.32345  22431914.0194   22431911.2614
      2308.2814
   7051736.26748   5476754.51244  22931493.5114   22931491.9834
     -2531.2504
  -5460717.80549  -4249028.03248  20600039.4644   20600037.7024
      1557.1414
  -3802535.99348  -2943659.89443  23412443.7924   23412444.6554
      4021.9224
 04  9 10 21 51 44.9990000  0  8G 3G 8G13G10G19G23G27G28
  -2392683.63848  -1861817.85444  22719957.3624   22719957.1944
      -112.6094
  -9435149.92349  -7337057.16147  21249150.4954   21249149.2694
      2770.8914
     47585.18349     35717.58348  20352659.4954   20352656.8784
      -707.5314
  -3687120.25746  -2862698.57043  23382564.3944   23382565.1594
      2235.5944
  -9043763.44148  -7045850.76845  22425333.8004   22425331.3084
      2301.8754
   7089721.85348   5506353.60344  22938722.0734   22938720.5344
     -2533.6564
  -5484063.94149  -4267219.83348  20595596.4954   20595594.7494
      1555.5314
  -3862852.45748  -2990659.66743  23400966.4094   23400966.9374
      4020.0634
 04  9 10 21 51 59.9990000  0  8G 3G 8G13G10G19G23G27G28
  -2390934.93048  -1860455.22944  22720290.1904   22720290.1944
      -120.5164
  -9476699.99149  -7369433.84047  21241243.5894   21241242.0464
      2769.2034
     58246.71449     44025.25648  20354687.8084   20354686.0854
      -713.9064
  -3720596.81647  -2888784.18243  23376194.2454   23376194.4524
      2228.0944
  -9078243.31548  -7072718.18045  22418772.5114   22418769.8704
      2295.5634
   7127744.71648   5535981.73244  22945957.2844   22945956.0934
     -2535.8914
  -5507384.41349  -4285391.62648  20591158.8704   20591157.4214
      1554.0474
  -3923139.74348  -3037636.70143  23389494.0654   23389494.9014
      4018.3134
 04  9 10 21 52 14.9990000  0  8G 3G 8G13G10G19G23G27G28
  -2389066.92748  -1858999.63244  22720645.5654   22720645.4134
      -128.7664
  -9518224.43449  -7401790.53047  21233341.8784   21233341.0734
      2767.2034
     69004.84449     52408.19548  20356735.2924   20356733.3704
      -720.6414
  -3753960.79647  -2914782.07643  23369846.0894   23369845.6014
      2220.2664
  -9112628.55748  -7099511.84645  22412229.3084   22412226.7304
      2289.0164
   7165801.46048   5565636.27044  22953199.7454   22953198.1244
     -2538.4534
  -5530682.49449  -4303545.96948  20586725.5654   20586723.3434
      1552.2344
  -3983400.95448  -3084593.41943  23378026.9094   23378027.2614
      4016.2664
 04  9 10 21 52 29.9990000  0  8G 3G 8G13G10G19G23G27G28
  -2387078.10748  -1857449.88944  22721024.6444   22721023.8974
      -137.0624
  -9559721.59149  -7434125.97547  21225445.1364   21225444.2224
      2765.1094
     79861.15549     60867.64848  20358801.2374   20358799.2764
      -727.4844
  -3787210.44047  -2940690.87543  23363518.6834   23363518.4174
      2212.4694
  -9146917.34648  -7126230.36445  22405704.0734   22405701.5074
      2282.2814
   7203893.51748   5595318.31844  22960447.6984   22960446.5734
     -2541.1254
  -5553956.46049  -4321681.52648  20582296.5424   20582294.6594
      1550.3444
  -4043634.31348  -3131528.42643  23366564.2224   23366565.7224
      4014.1724
 04  9 10 21 52 44.9990000  0  8G 3G 8G13G10G19G23G27G28
  -2384964.26748  -1855802.73444  22721426.4014   22721426.4524
      -144.9224
  -9601187.05249  -7466436.69947  21217554.4174   21217553.3394
      2763.5164
     90819.81549     69406.85148  20360886.7224   20360884.3194
      -733.8284
  -3820341.30946  -2966507.11243  23357213.2614   23357214.1754
      2204.9064
  -9181105.17047  -7152870.20845  22399198.0424   22399195.9484
      2276.0634
   7242024.87848   5625031.00544  22967704.4874   22967702.8004
     -2543.1564
  -5577202.02949  -4339794.94748  20577872.8784   20577871.3044
      1548.9694
  -4103835.32148  -3178438.23543  23355108.6904   23355109.1554
      4012.5314
 04  9 10 21 52 59.9990000  0  8G 3G 8G13G10G19G23G27G28
  -2382724.31948  -1854057.32744  22721852.7374   22721852.6874
      -153.5314
  -9642619.85849  -7498721.98747  21209669.9874   21209669.3274
      2761.1884
    101882.05249     78026.76248  20362991.7694   20362989.5034
      -740.9064
  -3853352.03147  -2992229.75943  23350932.1904   23350932.4014
      2196.6564
  -9215190.52348  -7179430.19845  22392712.6054   22392709.3664
      2268.9694
   7280196.52948   5654775.09144  22974968.4874   22974966.6904
     -2546.0164
  -5600418.04249  -4357885.34248  20573455.2224   20573453.5074
      1546.8284
  -4164002.68348  -3225321.85043  23343659.5974   23343659.1834
      4010.1414
 04  9 10 21 53 14.9990000  0  8G 3G 8G13G10G19G23G27G28
  -2380365.92248  -1852219.60944  22722301.2224   22722301.3084
      -161.2504
  -9684027.48749  -7530987.65947  21201790.6674   21201789.2304
      2759.5944
    113040.28449     86721.48448  20365115.0814   20365113.2574
      -747.1724
  -3886249.96447  -3017864.48443  23344671.6124   23344671.8824
      2189.3594
  -9249180.64647  -7205915.98645  22386243.7304   22386241.4444
      2262.7664
   7318400.76748   5684544.55744  22982238.1364   22982236.2184
     -2548.1094
  -5623611.90649  -4375958.48148  20569041.3944   20569039.8274
      1545.4694
  -4224143.74448  -3272184.94643  23332214.5974   23332214.7224
      4008.4534
 04  9 10 21 53 29.9990000  0  8G 3G 8G13G10G19G23G27G28
  -2377882.60348  -1850284.55844  22722775.0654   22722774.0694
      -170.0004
  -9725403.24249  -7563228.49947  21193917.0264   21193915.1904
      2757.0004
    124300.95949     95496.02148  20367258.1444   20367256.1324
      -754.4224
  -3919028.34947  -3043406.08343  23338434.3084   23338434.7724
      2181.0164
  -9283068.65648  -7232322.21545  22379795.7374   22379792.4374
      2255.5474
   7356644.00448   5714344.41544  22989515.0584   22989513.8044
     -2551.0944
  -5646776.96349  -4394009.17648  20564633.2924   20564631.7724
      1543.1094
  -4284251.78848  -3319022.32743  23320776.4404   23320776.5114
      4005.7974
 04  9 10 21 53 44.9990000  0  8G 3G 8G13G10G19G23G27G28
  -2375273.00848  -1848251.09444  22723270.2694   22723270.3044
      -178.0164
  -9766745.55549  -7595443.27947  21186049.7924   21186048.7224
      2755.2034
    135665.48949    104351.48348  20369420.7304   20369418.4524
      -760.9844
  -3951685.73647  -3068853.37043  23332219.6364   23332219.8704
      2173.3134
  -9316853.01748  -7258647.66846  22373366.3394   22373363.6874
      2249.0004
   7394927.33748   5744175.52744  22996800.5424   22996799.0074
     -2553.2974
  -5669911.83449  -4412036.34848  20560230.7374   20560229.3354
      1541.5164
  -4344325.10448  -3365832.64343  23309344.7694   23309344.6674
      4003.8914
 04  9 10 21 53 59.9990000  0  8G 3G 8G13G10G19G23G27G28
  -2372534.98248  -1846117.57444  22723792.1834   22723791.3394
      -186.9374
  -9808052.11549  -7627630.19547  21178189.1984   21178188.4564
      2752.4534
    147135.95349    113289.49848  20371603.4254   20371601.5154
      -768.3284
  -3984219.73647  -3094204.53043  23326028.3784   23326029.0304
      2164.6564
  -9350531.26348  -7284890.43645  22366957.5114   22366955.1084
      2241.5944
   7433252.70348   5774039.38544  23004093.7534   23004092.4804
     -2556.4694
  -5693014.29649  -4430038.26048  20555834.6284   20555833.3744
      1538.9694
  -4404361.35148  -3412614.06443  23297918.8784   23297920.0734
      4001.0784
 04  9 10 21 54 14.9990000  0  8G 3G 8G13G10G19G23G27G28
  -2369673.75447  -1843888.04444  22724336.2614   22724336.2414
      -194.4534
  -9849327.86649  -7659793.09947  21170335.2924   21170333.5894
      2751.1414
    158707.16449    122306.01348  20373805.4404   20373803.2304
      -774.3914
  -4016635.27547  -3119463.38543  23319859.9404   23319860.4484
      2157.4384
  -9384108.13448  -7311054.21746  22360568.2694   22360565.9994
      2235.5164
   7471614.87948   5803931.93444  23011393.8234   23011392.3704
     -2558.2974
  -5716089.38249  -4448018.84548  20551443.6204   20551442.0264
      1537.8284
  -4464365.33748  -3459370.35343  23286501.4254   23286502.1014
      3999.5634
 04  9 10 21 54 29.9990000  0  8G 3G 8G13G10G19G23G27G28
  -2366687.48347  -1841561.05644  22724904.1204   22724903.6364
      -203.1414
  -9890571.11449  -7691930.67847  21162486.5034   21162485.2614
      2748.5164
    170381.10149    131402.59048  20376026.8154   20376024.7804
      -781.6094
  -4048930.18447  -3144628.23043  23313715.0114   23313715.2224
      2149.0634
  -9417581.40748  -7337137.26945  22354198.1204   22354195.7064
      2228.1884
   7510015.76648   5833854.63944  23018701.8944   23018700.1514
     -2561.2664
  -5739135.07849  -4465976.52248  20547058.2614   20547057.0304
      1535.4384
  -4524334.96948  -3506099.86443  23275089.6984   23275090.2454
      3996.9224
 04  9 10 21 54 44.9990000  0  8G 3G 8G13G10G19G23G27G28
  -2363573.95247  -1839134.93144  22725497.2304   22725496.8044
      -212.1564
  -9931779.49549  -7724041.11047  21154644.9174   21154643.7804
      2745.7664
    182159.94549    140580.88748  20378268.3234   20378265.9484
      -789.0164
  -4081102.10347  -3169697.22743  23307592.2374   23307592.7534
      2140.3754
  -9450948.64548  -7363137.69345  22347848.8474   22347846.2764
      2220.6724
   7548457.32948   5863809.04044  23026016.8864   23026015.4294
     -2564.3754
  -5762149.00249  -4483909.44448  20542678.9254   20542677.0384
      1532.8754
  -4584267.80548  -3552800.69243  23263685.0734   23263686.0424
      3994.0164
 04  9 10 21 54 59.9990000  0  8G 3G 8G13G10G19G23G27G28
  -2360328.83547  -1836606.27244  22726114.6834   22726113.9014
      -220.6564
  -9972948.21049  -7756120.61147  21146810.9874   21146809.6124
      2743.3284
    194048.09949    149844.36948  20380530.6054   20380528.3394
      -796.0784
  -4113146.34747  -3194666.74643  23301495.2924   23301495.1164
      2132.0944
  -9484205.07148  -7389051.77646  22341520.6054   22341517.5934
      2213.5474
   7586943.78348   5893798.42144  23033341.2454   23033338.6164
     -2567.2194
  -5785126.62949  -4501814.08948  20538306.4644   20538304.6594
      1530.7034
  -4644159.18548  -3599469.24944  23252287.9404   23252288.9804
      3991.4224
 04  9 10 21 55 14.9990000  0  8G 3G 8G13G10G19G23G27G28
  -2356953.26747  -1833975.94444  22726756.9404   22726756.6794
      -229.3754
 -10014078.43949  -7788170.13147  21138983.9954   21138982.6284
      2740.6884
    206044.40349    159192.13348  20382813.7534   20382811.3474
      -803.3754
  -4145063.99547  -3219537.64643  23295421.4954   23295421.3394
      2123.6254
  -9517351.57448  -7414880.21545  22335212.5504   22335209.8124
      2206.0944
   7625473.74448   5923821.73243  23040672.0814   23040671.2334
     -2570.1254
  -5808069.13949  -4519691.36348  20533940.2454   20533939.0544
      1528.3134
  -4704010.11148  -3646106.26344  23240899.2304   23240898.9604
      3988.6884
 04  9 10 21 55 29.9990000  0  8G 3G 8G13G10G19G23G27G28
  -2353451.44547  -1831247.25744  22727423.5894   22727423.1634
      -237.0474
 -10055174.06649  -7820192.67547  21131163.6674   21131162.3434
      2739.0944
    218144.61649    168620.85648  20385115.9874   20385113.7964
      -809.6094
  -4176858.82448  -3244312.82343  23289371.1514   23289370.5624
      2116.1414
  -9550391.81048  -7440625.82345  22328925.0654   22328922.9604
      2199.6724
   7664043.04848   5953875.68144  23048012.1984   23048010.5654
     -2572.0784
  -5830980.38949  -4537544.27748  20529580.7534   20529579.0934
      1526.8914
  -4763824.43648  -3692714.76044  23229516.7924   23229516.6404
      3986.9694
 04  9 10 21 55 44.9990000  0  8G 3G 8G13G10G19G23G27G28
  -2349824.61447  -1828421.15444  22728113.5264   22728113.1474
      -247.0624
 -10096236.48149  -7852189.35547  21123349.7304   21123348.1284
      2735.3284
    230347.60349    178129.66348  20387438.0504   20387435.7884
      -817.9534
  -4208531.90247  -3268993.13043  23283343.6904   23283343.5224
      2106.4224
  -9583326.73048  -7466289.38245  22322657.8004   22322655.2764
      2191.1564
   7702650.31848   5983959.19944  23055359.4254   23055357.5264
     -2576.0624
  -5853861.55849  -4555373.75848  20525226.5264   20525224.8904
      1523.3134
  -4823603.23148  -3739295.56744  23218140.5734   23218140.9094
      3983.0164
 04  9 10 21 55 59.9990000  0  8G 3G 8G13G10G19G23G27G28
  -2346066.69748  -1825492.90844  22728827.9254   22728828.1554
      -254.6564
 -10137259.20249  -7884155.09447  21115543.2614   21115541.8584
      2733.8134
    242659.55949    187723.39548  20389781.0654   20389779.0384
      -824.0944
  -4240076.82047  -3293573.55843  23277340.8624   23277340.2144
      2099.0784
  -9616149.90047  -7491865.85745  22316411.4484   22316409.7884
      2184.7814
   7741301.67848   6014077.08444  23062713.6674   23062712.0464
     -2577.9374
  -5876706.35749  -4573174.89048  20520879.2614   20520877.5774
      1522.1094
  -4883339.79248  -3785843.49244  23206773.6754   23206773.4214
      3981.3754
 04  9 10 21 56 14.9990000  0  8G 3G 8G13G10G19G23G27G28
  -2342181.66247  -1822465.60144  22729567.5344   22729567.5544
      -263.7504
 -10178246.05349  -7916092.89147  21107743.5814   21107742.8274
      2730.7814
    255076.46749    197398.89548  20392143.8084   20392141.9524
      -831.7974
  -4271497.24947  -3318056.99243  23271361.3234   23271361.7614
      2090.0164
  -9648864.91548  -7517358.05346  22310186.3234   22310183.7574
      2176.8284
   7779992.85748   6044225.98744  23070076.5894   23070075.5424
     -2581.2504
  -5899518.65249  -4590950.70348  20516538.1284   20516536.7924
      1519.2504
  -4943038.05648  -3832361.53644  23195412.8394   23195413.1124
      3978.1254
 04  9 10 21 56 29.9990000  0  8G 3G 8G13G10G19G23G27G28
  -2338169.08347  -1819338.93244  22730331.3474   22730330.9334
      -271.5004
 -10219196.40449  -7948002.24747  21099950.8154   21099949.6364
      2729.0634
    267598.96749    207156.67047  20394526.6594   20394524.4834
      -838.0624
  -4302792.45848  -3342442.85943  23265406.0194   23265406.1874
      2082.3284
  -9681470.86348  -7542765.26845  22303981.9254   22303979.0544
      2170.3754
   7818724.46748   6074406.40344  23077446.9954   23077445.8514
     -2583.2344
  -5922297.65649  -4608700.57348  20512203.5584   20512202.2764
      1517.7504
  -5002697.08248  -3878849.04744  23184060.2144   23184060.3864
      3976.2034
 04  9 10 21 56 44.9990000  0  8G 3G 8G13G10G19G23G27G28
  -2334030.79748  -1816114.28244  22731118.5584   22731118.9404
      -280.0314
 -10260112.00449  -7979884.52447  21092164.8314   21092163.9804
      2726.6724
    280225.14949    216995.24147  20396929.3624   20396927.2844
      -845.0784
  -4333964.06447  -3366732.40743  23259474.5034   23259474.2694
      2074.0004
  -9713969.31948  -7568088.72546  22297797.4014   22297794.7534
      2163.0314
   7857494.45248   6104616.69844  23084824.9334   23084823.4334
     -2585.9064
  -5945045.17149  -4626425.90448  20507874.8784   20507873.1514
      1515.5634
  -5062318.57548  -3925307.30344  23172714.4804   23172714.3974
      3973.6094
 04  9 10 21 56 59.9990000  0  8G 3G 8G13G10G19G23G27G28
  -2329759.51148  -1812786.01644  22731931.9094   22731931.5344
      -289.0624
 -10300985.33949  -8011733.86347  21084387.3154   21084385.7264
      2723.6564
    292962.22649    226920.22147  20399353.4404   20399352.0154
      -852.7034
  -4365004.69648  -3390919.88543  23253567.1984   23253567.6554
      2065.1094
  -9746352.74048  -7593322.53946  22291634.8554   22291632.5194
      2155.2194
   7896309.85548   6134862.39844  23092211.7614   23092210.2024
     -2589.0314
  -5967753.84449  -4644120.96948  20503553.6204   20503552.1054
      1512.7814
  -5121894.90948  -3971730.35544  23161377.8864   23161378.4604
      3970.3754
 04  9 10 21 57 14.9990000  0  8G 3G 8G13G10G19G23G27G28
  -2325359.80247  -1809357.66244  22732768.6204   22732768.3234
      -297.8914
 -10341820.70649  -8043553.62147  21076616.0654   21076614.6674
      2720.8444
    305805.73249    236928.13548  20401797.2064   20401794.9874
      -860.0164
  -4395918.64448  -3415008.67043  23247685.1594   23247684.6404
      2056.3914
  -9778625.26248  -7618469.93145  22285493.5344   22285491.8124
      2147.5944
   7935166.10448   6165139.92844  23099605.5264   23099604.4054
     -2592.0004
  -5990428.06649  -4661789.20148  20499238.5814   20499236.7534
      1510.2344
  -5181430.32848  -4018121.53944  23150048.6594   23150048.4684
      3967.4064
 04  9 10 21 57 29.9990000  0  8G 3G 8G13G10G19G23G27G28
  -2320829.15647  -1805827.28444  22733631.1124   22733631.2414
      -306.2504
 -10382615.39249  -8075341.66947  21068853.4334   21068852.0894
      2718.4224
    318758.38349    247021.10347  20404262.3864   20404259.8044
      -867.0474
  -4426702.99648  -3438996.45243  23241827.0654   23241826.7374
      2048.0784
  -9810783.86148  -7643528.55145  22279374.2144   22279371.4404
      2140.2504
   7974065.64948   6195451.20344  23107007.7454   23107006.6594
     -2594.6254
  -6013065.08949  -4679428.42548  20494930.9954   20494929.5584
      1508.0784
  -5240921.97748  -4064478.60544  23138727.2534   23138727.0624
      3964.7504
 04  9 10 21 57 44.9990000  0  8G 3G 8G13G10G19G23G27G28
  -2316166.71547  -1802194.20544  22734518.1984   22734518.0304
      -315.3444
 -10423368.66349  -8107097.45547  21061098.3624   21061096.7104
      2715.4534
    331820.75749    257199.56748  20406747.8004   20406745.7374
      -874.5944
  -4457356.76948  -3462882.49843  23235993.8004   23235993.4564
      2039.1414
  -9842827.59748  -7668497.67946  22273276.2764   22273274.1364
      2132.3444
   8013009.22348   6225796.78544  23114418.0114   23114417.2494
     -2597.7664
  -6035663.86049  -4697037.85348  20490630.6674   20490628.8434
      1505.2194
  -5300368.89748  -4110800.81744  23127414.3004   23127414.9994
      3961.5944
 04  9 10 21 57 59.9990000  0  8G 3G 8G13G10G19G23G27G28
  -2311373.44647  -1798459.19344  22735430.0974   22735430.3784
      -323.2974
 -10464080.94049  -8138821.27847  21053351.2144   21053349.6084
      2713.3444
    344992.12749    267462.96347  20409254.2534   20409252.4134
      -881.1874
  -4487880.71548  -3486667.36443  23230185.0264   23230184.8744
      2031.1254
  -9874756.96648  -7693377.67246  22267200.4254   22267197.9524
      2125.3444
   8051995.71148   6256175.78744  23121837.9334   23121836.6714
     -2599.9534
  -6058225.31349  -4714618.19048  20486337.1834   20486335.6904
      1503.3914
  -5359771.69648  -4157088.65044  23116111.7224   23116111.1874
      3959.1884
 04  9 10 21 58 14.9990000  0  8G 3G 8G13G10G19G23G27G28
  -2306455.32547  -1794626.90444  22736365.6674   22736366.0694
      -331.8284
 -10504758.37449  -8170517.97447  21045610.5974   21045609.1984
      2710.8754
    358266.62849    277806.72448  20411780.6514   20411778.3274
      -888.1414
  -4518280.42648  -3510355.44043  23224400.1364   23224399.9484
      2022.6254
  -9906577.50448  -7718172.87346  22261145.4254   22261142.4094
      2117.9224
   8091019.15648   6286583.60444  23129264.1754   23129262.5304
     -2602.5944
  -6080755.11349  -4732173.87148  20482049.9564   20482048.1904
      1501.1094
  -5419136.05548  -4203346.53544  23104813.9954   23104814.4564
      3956.5314
 04  9 10 21 58 29.9990000  0  8G 3G 8G13G10G19G23G27G28
  -2301403.22747  -1790690.19644  22737327.3944   22737327.2184
      -341.1874
 -10545391.42549  -8202180.06547  21037877.9724   21037877.5034
      2707.4384
    371653.34149    288237.91848  20414327.6834   20414326.1714
      -896.1874
  -4548546.62747  -3533939.46943  23218640.2374   23218640.3664
      2013.3444
  -9938279.86848  -7742875.98745  22255112.7614   22255109.7804
      2109.6094
   8130088.58348   6317027.25344  23136698.4804   23136697.2144
     -2606.1094
  -6103243.98949  -4749697.67348  20477770.1204   20477768.7304
      1497.8754
  -5478452.57848  -4249567.14044  23093526.3784   23093527.0504
      3952.8444
 04  9 10 21 58 44.9990000  0  8G 3G 8G13G10G19G23G27G28
  -2296223.77247  -1786654.26144  22738313.3624   22738313.1714
      -349.4534
 -10585986.63349  -8233812.69847  21030153.1674   21030151.6554
      2705.2034
    385145.55149    298751.30548  20416895.3154   20416893.3394
      -902.9694
  -4578685.70548  -3557424.47143  23212905.5894   23212905.7804
      2005.1884
  -9969870.17048  -7767491.79246  22249101.3084   22249098.9484
      2102.4534
   8169197.15148   6347501.39044  23144140.9484   23144139.1084
     -2608.4374
  -6125698.53849  -4767194.71948  20473497.7144   20473496.0544
      1495.8754
  -5537727.59448  -4295755.40244  23082246.4644   23082246.7964
      3950.3284
 04  9 10 21 58 59.9990000  0  8G 3G 8G13G10G19G23G27G28
  -2290914.79547  -1782517.41244  22739323.3624   22739323.3904
      -358.0624
 -10626541.40449  -8265413.79847  21022435.8234   21022434.3234
      2702.4844
    398745.63349    309348.76048  20419483.1124   20419481.5424
      -910.1254
  -4608695.14047  -3580808.43243  23207194.5194   23207194.7724
      1996.5164
 -10001345.85348  -7792018.27345  22243110.9724   22243108.6404
      2094.7034
   8208346.97148   6378007.67444  23151590.8474   23151589.6164
     -2611.2034
  -6148116.18349  -4784663.01248  20469231.3314   20469230.0584
      1493.4694
  -5596958.56748  -4341909.34844  23070975.4174   23070975.9404
      3947.4384
 04  9 10 21 59 14.9990000  0  8G 3G 8G13G10G19G23G27G28
  -2285475.24247  -1778278.78644  22740359.0654   22740358.2104
      -367.3284
 -10667054.71649  -8296982.59847  21014726.2374   21014725.1714
      2699.1884
    412454.59249    320031.05748  20422091.7924   20422089.9954
      -917.8444
  -4638573.75148  -3604090.44643  23201509.0504   23201509.0694
      1987.2034
 -10032705.64648  -7816454.43746  22237144.0974   22237141.2184
      2086.3914
   8247539.03048   6408546.86844  23159048.5654   23159047.4484
     -2614.5164
  -6170495.95149  -4802101.78248  20464972.9174   20464971.2454
      1490.4384
  -5656144.14048  -4388027.92543  23059713.0504   23059712.8904
      3943.8754
 04  9 10 21 59 29.9990000  0  8G 3G 8G13G10G19G23G27G28
  -2279901.23947  -1773935.41944  22741419.4404   22741419.4804
      -376.0784
 -10707522.49449  -8328515.92847  21007025.7144   21007024.5694
      2696.3914
    426276.27649    330801.17848  20424722.3704   20424720.4014
      -925.2034
  -4668317.45448  -3627267.35043  23195849.2144   23195849.0854
      1978.4844
 -10063945.29248  -7840796.98846  22231199.0894   22231196.2574
      2078.6884
   8286777.04448   6439121.86344  23166516.0734   23166514.2574
     -2617.3284
  -6192833.60649  -4819507.74648  20460722.3784   20460720.3624
      1487.8284
  -5715280.10248  -4434107.83844  23048460.0814   23048459.5544
      3940.8134
 04  9 10 21 59 44.9990000  0  8G 3G 8G13G10G19G23G27G28
  -2274198.05247  -1769491.37144  22742503.8314   22742503.8154
      -385.2344
 -10747949.84049  -8360017.73647  20999332.5264   20999331.1944
      2693.1414
    440205.48949    341655.11248  20427373.0034   20427370.5074
      -932.8594
  -4697931.25347  -3650343.01843  23190213.9954   23190213.7804
      1969.2504
 -10095069.71448  -7865049.75646  22225276.1754   22225273.6904
      2070.4224
   8326055.73748   6469728.59044  23173990.1204   23173989.0194
     -2620.6414
  -6215134.34149  -4836884.93848  20456478.3084   20456476.4564
      1484.7814
  -5774371.59348  -4480153.10944  23037215.2064   23037214.1084
      3937.2504
 04  9 10 21 59 59.9990000  0  8G 3G 8G13G10G19G23G27G28
  -2268360.72947  -1764942.81744  22743615.0194   22743615.1474
      -393.5474
 -10788331.54949  -8391483.98547  20991648.0734   20991647.0584
      2690.5784
    454247.39549    352596.84548  20430045.1124   20430042.5224
      -939.8284
  -4727409.73348  -3673313.24743  23184604.7764   23184604.1284
      1960.7504
 -10126073.29348  -7889208.33946  22219376.0264   22219373.6324
      2062.8754
   8365380.08548   6500370.87444  23181473.5504   23181472.1324
     -2623.2194
  -6237392.85749  -4854229.22748  20452242.8394   20452241.0974
      1482.5164
  -5833413.06748  -4526159.39444  23025980.1984   23025979.9094
      3934.4064
 04  9 10 22  0 14.9990000  0  8G 3G 8G13G10G19G23G27G28
  -2262391.61348  -1760291.54444  22744751.5424   22744750.8124
      -402.6094
 -10828669.74049  -8422916.33847  20983972.1594   20983970.9834
      2687.4694
    468399.63649    363624.55247  20432737.9334   20432736.2844
      -947.4224
  -4756755.08447  -3696179.73843  23179019.9334   23179020.0624
      1951.7344
 -10156958.29048  -7913274.54846  22213499.2144   22213496.7104
      2054.8134
   8404747.54848   6531046.74243  23188964.3394   23188963.2614
     -2626.1874
  -6259611.43549  -4871542.40148  20448014.9174   20448012.8744
      1479.7034
  -5892406.66048  -4572128.38244  23014753.9094   23014753.5544
      3931.0634
 04  9 10 22  0 29.9990000  0  8G 3G 8G13G10G19G23G27G28
  -2256288.47548  -1755535.85844  22745912.0194   22745911.8624
      -410.9224
 -10868961.96249  -8454312.84747  20976304.9014   20976303.1124
      2685.0164
    482664.45849    374739.98648  20435452.5654   20435450.4604
      -954.3444
  -4785964.74647  -3718940.48843  23173461.1124   23173461.1714
      1943.1724
 -10187722.02548  -7937246.25446  22207644.8394   22207642.5264
      2047.2974
   8444160.30648   6561757.91943  23196464.7924   23196463.1164
     -2628.5624
  -6281787.51549  -4888822.45348  20443794.8704   20443793.3004
      1477.3754
  -5951349.89848  -4618058.11244  23003536.5974   23003536.3434
      3928.2814
 04  9 10 22  0 44.9990000  0  8G 3G 8G13G10G19G23G27G28
  -2250055.85948  -1750679.28344  22747098.5114   22747098.5624
      -419.4534
 -10909212.37549  -8485676.79447  20968645.1984   20968643.6014
      2682.2814
    497037.43749    385939.69547  20438187.7374   20438185.3904
      -961.5004
  -4815043.15448  -3741598.99143  23167928.3004   23167928.1474
      1934.5004
 -10218368.71848  -7961126.76446  22201812.6364   22201810.6554
      2039.5314
   8483613.75548   6592500.79443  23203972.6054   23203971.1984
     -2631.3124
  -6303925.53549  -4906072.85048  20439581.9724   20439580.1594
      1474.8754
  -6010247.01448  -4663951.91444  22992329.2764   22992328.6404
      3925.1884
 04  9 10 22  0 59.9990000  0  8G 3G 8G13G10G19G23G27G28
  -2243687.53748  -1745716.95044  22748310.4874   22748310.4174
      -428.9694
 -10949414.79749  -8517003.34347  20960995.1514   20960993.2534
      2678.7194
    511524.79549    397228.54048  20440944.6204   20440942.2024
      -969.5004
  -4843983.76448  -3764150.10743  23162420.8784   23162421.0074
      1924.9384
 -10248891.77048  -7984910.92346  22196005.1594   22196002.0734
      2030.8914
   8523114.03348   6623280.15943  23211489.0814   23211487.9254
     -2634.7344
  -6326019.11949  -4923288.63448  20435377.8864   20435376.2184
      1471.5314
  -6069091.48148  -4709804.68644  22981131.8554   22981131.2764
      3921.3134
 04  9 10 22  1 14.9990000  0  8G 3G 8G13G10G19G23G27G28
  -2237185.35348  -1740650.33943  22749547.8474   22749547.6014
      -438.1874
 -10989570.74649  -8548293.67047  20953353.5584   20953352.7574
      2675.2814
    526124.53849    408604.94948  20443722.9644   20443720.9914
      -977.2974
  -4872788.27048  -3786595.16143  23156939.9174   23156939.3234
      1915.4384
 -10279292.68748  -8008599.90946  22190219.8784   22190217.1204
      2022.4224
   8562659.13248   6654094.45543  23219014.5814   23219013.6714
     -2638.1094
  -6348069.86749  -4940471.03048  20431181.5584   20431180.0934
      1468.3914
  -6127884.89348  -4755617.67244  22969943.7064   22969943.2334
      3917.6724
 04  9 10 22  1 29.9990000  0  8G 3G 8G13G10G19G23G27G28
  -2230553.55947  -1735482.68943  22750809.8394   22750808.9524
      -446.4374
 -11029684.45349  -8579551.09047  20945719.8554   20945718.8624
      2672.8444
    540832.42649    420065.63348  20446521.8554   20446519.4604
      -984.1724
  -4901460.67048  -3808937.29043  23151483.4874   23151482.8784
      1907.0634
 -10309575.36748  -8032196.76846  22184456.7534   22184454.3274
      2014.9224
   8602244.66748   6684940.26043  23226547.0344   23226546.6634
     -2640.3594
  -6370081.97249  -4957623.32148  20426992.9254   20426991.4564
      1466.2194
  -6186631.28848  -4801394.03544  22958764.2534   22958764.3194
      3914.9064
 04  9 10 22  1 44.9990000  0  8G 3G 8G13G10G19G23G27G28
  -2223787.88047  -1730210.75143  22752096.3394   22752096.7924
      -455.5624
 -11069751.33849  -8610772.02147  20938095.6054   20938094.6084
      2669.4844
    555653.06849    431614.18048  20449341.9484   20449339.6404
      -991.8444
  -4929996.31348  -3831172.83143  23146053.5034   23146052.6164
      1897.7504
 -10339735.01048  -8055697.74846  22178717.4484   22178715.5654
      2006.3594
   8641875.10648   6715821.06843  23234088.4484   23234087.9914
     -2643.5624
  -6392050.86849  -4974741.92648  20422812.0814   20422810.7614
      1463.1094
  -6245325.83848  -4847129.98544  22947594.7304   22947594.6674
      3911.1414
 04  9 10 22  1 59.9990000  0  8G 3G 8G13G10G19G23G27G28
  -2216889.22447  -1724835.16343  22753410.0114   22753409.7844
      -464.2814
 -11109772.23249  -8641957.11947  20930479.9014   20930478.6904
      2666.6414
    570585.51449    443249.83448  20452183.3704   20452181.3084
      -999.1254
  -4958395.84947  -3853302.33743  23140648.9644   23140648.5934
      1888.7504
 -10369772.28448  -8079103.39346  22173001.7694   22172999.6944
      1998.5004
   8681549.30348   6746735.92243  23241638.8554   23241637.3664
     -2646.3284
  -6413977.20549  -4991827.38748  20418639.8944   20418638.0934
      1460.3754
  -6303969.23048  -4892826.08744  22936435.8944   22936435.3584
      3907.9534
 04  9 10 22  2 14.9990000  0  8G 3G 8G13G10G19G23G27G28
  -2209858.95947  -1719357.03543  22754748.0654   22754747.3434
      -472.9374
 -11149748.34349  -8673107.31847  20922872.6514   20922871.2534
      2663.6884
    585628.46049    454971.59948  20455045.9874   20455044.1634
     -1006.4064
  -4986660.47047  -3875326.69043  23135270.1594   23135269.8744
      1879.9384
 -10399688.19548  -8102414.45046  22167309.1054   22167306.0654
      1990.3594
   8721265.81548   6777683.80543  23249196.4874   23249195.7494
     -2649.1094
  -6435862.32549  -5008880.71648  20414475.3624   20414473.6944
      1457.6564
  -6362562.50948  -4938483.11944  22925285.4874   22925285.0464
      3904.6564
 04  9 10 22  2 29.9990000  0  8G 3G 8G13G10G19G23G27G28
  -2202700.35747  -1713778.92243  22756110.3394   22756109.6874
      -481.5624
 -11189682.57749  -8704224.88847  20915272.9644   20915272.2414
      2660.7664
    600778.53449    466776.84448  20457929.2924   20457927.1054
     -1013.6094
  -5014793.27747  -3897248.34743  23129917.3394   23129916.9954
      1871.0164
 -10429485.74848  -8125633.28546  22161638.3314   22161635.9054
      1982.3754
   8761021.22847   6808661.95343  23256762.1514   23256761.0074
     -2651.7344
  -6457709.19649  -5025904.25848  20410318.0424   20410316.0074
      1455.0474
  -6421108.60248  -4984103.40744  22914145.1364   22914144.5654
      3901.4224
 04  9 10 22  2 44.9990000  0  8G 3G 8G13G10G19G23G27G28
  -2195406.67847  -1708095.52343  22757497.9014   22757497.4914
      -490.3444
 -11229567.82849  -8735304.28747  20907683.5194   20907682.2184
      2657.7034
    616042.69949    478670.99148  20460833.4564   20460831.2144
     -1021.1094
  -5042787.14247  -3919061.74343  23124589.5264   23124589.7764
      1861.9534
 -10459157.75048  -8148754.29746  22155992.0264   22155989.4094
      1974.2344
   8800822.32148   6839675.73943  23264335.5894   23264335.0034
     -2654.6094
  -6479510.90149  -5042892.58848  20406169.2924   20406167.4374
      1452.2344
  -6479600.48448  -5029681.45044  22903013.6904   22903013.4764
      3897.9694
 04  9 10 22  2 59.9990000  0  8G 3G 8G13G10G19G23G27G28
  -2187983.31447  -1702311.07843  22758910.9804   22758910.1714
      -499.8444
 -11269409.32049  -8766349.58947  20900102.0034   20900101.2064
      2654.0634
    631415.51149    490649.78648  20463759.2224   20463756.9174
     -1029.0474
  -5070647.21447  -3940770.88143  23119287.8784   23119287.6054
      1852.3134
 -10488709.04748  -8171781.25646  22150368.6984   22150366.0224
      1965.4224
   8840663.64848   6870720.83843  23271917.5344   23271916.2144
     -2658.0314
  -6501272.48849  -5059849.66448  20402028.1364   20402026.5264
      1448.8284
  -6538043.23148  -5075221.17744  22891892.5974   22891892.3314
      3894.0004
 04  9 10 22  3 14.9990000  0  8G 3G 8G13G10G19G23G27G28
  -2180427.53347  -1696423.45143  22760348.4644   22760348.5384
      -508.3594
 -11309204.11849  -8797358.50847  20892529.1204   20892527.9254
      2651.2344
    646899.83949    502715.48548  20466705.6364   20466703.4724
     -1036.2504
  -5098370.54747  -3962373.45943  23114012.6124   23114012.2304
      1843.5474
 -10518136.68148  -8194711.84146  22144768.5654   22144766.5694
      1957.5634
   8880547.85548   6901799.37343  23279507.1594   23279506.3554
     -2660.5164
  -6522991.11949  -5076773.27648  20397895.1284   20397893.5694
      1446.2814
  -6596433.81748  -5120720.28744  22880781.0584   22880781.0814
      3890.7344
 04  9 10 22  3 29.9990000  0  8G 3G 8G13G10G19G23G27G28
  -2172745.33747  -1690437.31743  22761810.5734   22761810.1124
      -516.2344
 -11348958.16749  -8828335.67247  20884964.3784   20884962.9874
      2649.0164
    662489.62149    514863.36848  20469672.2144   20469670.2884
     -1042.7194
  -5125962.93947  -3983874.02543  23108761.2454   23108761.6014
      1835.2344
 -10547446.40948  -8217550.55246  22139191.2064   22139188.3354
      1950.0634
   8920468.80448   6932906.51143  23287103.7924   23287102.8154
     -2662.6094
  -6544672.65449  -5093667.97648  20393769.3784   20393767.6554
      1444.3134
  -6654777.96948  -5166183.20844  22869678.5894   22869678.8584
      3888.1414
 04  9 10 22  3 44.9990000  0  8G 3G 8G13G10G19G23G27G28
  -2164939.47047  -1684354.81443  22763295.7924   22763295.1634
      -524.2664
 -11388673.83749  -8859282.92947  20877406.5114   20877405.2494
      2646.6094
    678182.22849    527091.35848  20472658.5654   20472656.4724
     -1049.3754
  -5153426.77047  -4005274.39843  23103535.9334   23103535.8154
      1826.8594
 -10576640.42048  -8240299.09746  22133635.7764   22133633.0074
      1942.5944
   8960423.66548   6964040.12043  23294707.6284   23294705.7064
     -2664.5944
  -6566319.55049  -5110535.68148  20389650.2064   20389647.9804
      1442.2034
  -6713077.98647  -5211611.71744  22858583.9804   22858584.0544
      3885.4534
 04  9 10 22  3 59.9990000  0  8G 3G 8G13G10G19G23G27G28
  -2157005.48947  -1678172.50543  22764805.8474   22764804.9564
      -533.6094
 -11428346.29949  -8890196.53147  20869856.8944   20869855.6834
      2642.9384
    693982.15949    539402.97448  20475665.1984   20475662.6874
     -1057.3284
  -5180757.45847  -4026571.01943  23098334.9254   23098333.9764
      1817.2194
 -10605713.97848  -8262953.78646  22128103.2144   22128100.8154
      1933.7974
   9000416.81248   6995203.53043  23302317.8084   23302316.7494
     -2667.9534
  -6587927.04949  -5127372.69348  20385538.4484   20385536.7224
      1438.7814
  -6771329.17547  -5257002.20244  22847499.3944   22847499.1944
      3881.4064
 04  9 10 22  4 14.9990000  0  8G 3G 8G13G10G19G23G27G28
  -2148941.69247  -1671889.01544  22766339.9874   22766339.4604
      -541.8754
 -11467973.90749  -8921075.17647  20862315.8944   20862315.0034
      2640.4224
    709891.14949    551799.57648  20478692.4174   20478690.4254
     -1064.1724
  -5207952.96647  -4047762.32143  23093159.9804   23093159.4214
      1808.6094
 -10634664.94448  -8285512.95346  22122594.2374   22122591.4014
      1926.0634
   9040449.95848   7026398.12043  23309935.4644   23309934.3584
     -2670.1414
  -6609493.48349  -5144177.70648  20381434.3004   20381432.5074
      1436.4534
  -6829529.42947  -5302352.99944  22836424.3474   22836423.9994
      3878.5314
 04  9 10 22  4 29.9990000  0  8G 3G 8G13G10G19G23G27G28
  -2140752.05646  -1665507.47843  22767898.1754   22767897.7884
      -549.5624
 -11507560.51749  -8951921.86147  20854783.1284   20854781.5074
      2638.1884
    725905.18149    564278.04747  20481739.6514   20481738.0814
     -1070.6564
  -5235017.08348  -4068851.22343  23088009.1444   23088009.7414
      1800.3594
 -10663497.04148  -8307979.47846  22117107.5504   22117105.1324
      1918.6094
   9080519.01648   7057620.68844  23317561.1514   23317559.8624
     -2671.9844
  -6631022.44449  -5160953.50948  20377337.6364   20377335.9374
      1434.4534
  -6887682.48348  -5347667.00744  22825358.2764   22825358.0074
      3875.7974
 04  9 10 22  4 44.9990000  0  8G 3G 8G13G10G19G23G27G28
  -2132436.38847  -1659027.74643  22769480.8154   22769480.2614
      -558.8124
 -11547105.50749  -8982736.13247  20847258.0584   20847256.7144
      2634.7504
    742024.43749    576838.49547  20484807.1754   20484805.0344
     -1078.4064
  -5261949.45748  -4089837.49043  23082884.7694   23082884.0694
      1790.8914
 -10692209.81048  -8330353.04046  22111643.1204   22111641.3474
      1909.9064
   9120623.99348   7088871.25243  23325192.6054   23325192.0034
     -2675.1724
  -6652513.73249  -5177699.96948  20373247.9254   20373246.3084
      1431.2504
  -6945787.96648  -5392943.95544  22814301.2454   22814300.8194
      3871.8594
 04  9 10 22  4 59.9990000  0  8G 3G 8G13G10G19G23G27G28
  -2123995.79547  -1652450.63643  22771086.5584   22771086.6514
      -567.0944
 -11586609.90749  -9013518.76547  20839740.4094   20839739.3474
      2632.0004
    758247.92349    589480.15847  20487894.3554   20487892.4724
     -1085.2814
  -5288750.74648  -4110721.59343  23077784.9334   23077784.0544
      1782.1564
 -10720803.75748  -8352634.00845  22106202.1904   22106199.7304
      1902.0634
   9160763.98748   7120149.09643  23332831.4644   23332830.3974
     -2677.3124
  -6673967.95249  -5194417.52648  20369165.6054   20369163.5654
      1428.7814
  -7003846.40848  -5438184.24744  22803252.7304   22803252.7064
      3868.7974
 04  9 10 22  5 14.9990000  0  8G 3G 8G13G10G19G23G27G28
  -2115426.80147  -1645773.50143  22772717.3004   22772717.2264
      -575.2664
 -11626069.91549  -9044266.81547  20832231.4334   20832230.5814
      2629.4534
    774579.39549    602205.97347  20491002.0194   20491000.5034
     -1092.0474
  -5315417.31048  -4131500.72143  23072709.9094   23072709.5224
      1773.6094
 -10749275.15148  -8374819.47146  22100784.5584   22100781.4874
      1894.3134
   9200942.29748   7151456.78643  23340476.1674   23340476.2334
     -2679.5624
  -6695381.45749  -5211103.38548  20365090.3944   20365088.7374
      1426.5164
  -7061854.15847  -5483385.03744  22792213.8784   22792214.4054
      3865.7814
 04  9 10 22  5 29.9990000  0  8G 3G 8G13G10G19G23G27G28
  -2106731.73347  -1638998.13743  22774372.2924   22774371.3664
      -583.9844
 -11665487.77149  -9074982.01847  20824730.6984   20824729.3824
      2626.3444
    791016.45049    615014.04747  20494129.9174   20494127.9994
     -1099.4694
  -5341951.37647  -4152176.60643  23067660.4404   23067660.2764
      1764.4694
 -10777626.08348  -8396911.08746  22095389.5654   22095386.4954
      1885.9534
   9241156.44648   7182792.40343  23348129.3864   23348128.5694
     -2682.2974
  -6716756.58449  -5227759.32448  20361022.8004   20361020.9644
      1423.6564
  -7119813.28248  -5528547.94344  22781184.6674   22781184.6164
      3862.2344
 04  9 10 22  5 44.9990000  0  8G 3G 8G13G10G19G23G27G28
  -2097915.48047  -1632128.30243  22776049.5264   22776049.2724
      -591.6094
 -11704868.05849  -9105667.93847  20817236.6284   20817235.8704
      2624.3134
    807554.14449    627900.56947  20497276.7224   20497275.1674
     -1105.6414
  -5368357.49948  -4172752.78643  23062635.8554   23062635.4484
      1756.3914
 -10805860.95148  -8418912.24146  22090016.1754   22090013.4684
      1878.6724
   9281401.48648   7214152.10844  23355787.3154   23355787.0154
     -2683.7974
  -6738097.85949  -5244388.88048  20356961.8004   20356960.3004
      1421.9064
  -7177728.26648  -5573676.44844  22770164.2764   22770164.0544
      3859.7034
 04  9 10 22  5 59.9990000  0  8G 3G 8G13G10G19G23G27G28
  -2088975.20647  -1625161.86643  22777751.1674   22777750.3944
      -600.1094
 -11744207.71349  -9136322.21147  20809751.0424   20809749.7184
      2621.3134
    824195.32949    640867.69747  20500443.6124   20500442.0224
     -1112.7664
  -5394632.53547  -4193226.82543  23057635.4014   23057635.4804
      1747.3594
 -10833976.52148  -8440820.46046  22084666.5654   22084663.1244
      1870.4534
   9321680.19848   7245538.02443  23363452.3084   23363451.8624
     -2686.2974
  -6759402.30049  -5260989.74548  20352907.8004   20352905.8124
      1419.1414
  -7235595.86648  -5618768.05044  22759151.7224   22759151.9254
      3856.3754
 04  9 10 22  6 14.9990000  0  8G 3G 8G13G10G19G23G27G28
  -2079903.96147  -1618093.35544  22779477.8864   22779477.1324
      -609.3754
 -11783499.40549  -9166939.10347  20802273.7224   20802272.5584
      2617.6254
    840947.21449    653921.11847  20503631.1444   20503629.8784
     -1120.7194
  -5420769.23247  -4213593.08843  23052661.6594   23052662.3004
      1737.5634
 -10861965.37948  -8462629.93046  22079340.0654   22079337.3084
      1861.5164
   9361999.65348   7276955.72044  23371124.4874   23371124.6364
     -2689.4844
  -6780662.61349  -5277556.22148  20348861.9644   20348860.5894
      1415.6724
  -7293408.92448  -5663817.12744  22748150.9174   22748150.1244
      3852.1414
 04  9 10 22  6 29.9990000  0  8G 3G 8G13G10G19G23G27G28
  -2070705.72747  -1610925.90143  22781227.0584   22781227.6674
      -617.5314
 -11822746.82849  -9197521.49047  20794805.1594   20794803.8664
      2615.0004
    857805.77949    667057.63747  20506839.4954   20506837.6634
     -1127.4694
  -5446771.30847  -4233854.42343  23047712.7844   23047713.9214
      1728.9384
 -10889831.33848  -8484343.63446  22074037.0504   22074034.4684
      1853.5474
   9402355.67948   7308401.86343  23378804.6054   23378803.8744
     -2691.6724
  -6801882.50249  -5294091.19348  20344823.7144   20344822.3004
      1413.2664
  -7351171.08648  -5708826.53244  22737158.6364   22737158.6714
      3849.1414
 04  9 10 22  6 44.9990000  0  8G 3G 8G13G10G19G23G27G28
  -2061382.59347  -1603661.11543  22783001.3154   22783001.7884
      -624.9534
 -11861952.03949  -9228070.98847  20787344.4564   20787343.2414
      2613.1094
    874768.92049    680275.66547  20510067.3704   20510065.9724
     -1133.6094
  -5472640.68547  -4254012.37043  23042790.7374   23042791.2764
      1721.0474
 -10917576.12348  -8505962.91146  22068757.6754   22068754.3744
      1846.3914
   9442746.05148   7339874.82443  23386490.4254   23386489.9524
     -2693.0004
  -6823063.97049  -5310596.22548  20340792.9174   20340791.2264
      1411.6724
  -7408884.10947  -5753797.68544  22726176.7144   22726176.0074
      3846.6564
 04  9 10 22  6 59.9990000  0  8G 3G 8G13G10G19G23G27G28
  -2051941.96147  -1596304.79143  22784797.7374   22784798.7694
      -633.5164
 -11901122.15049  -9258593.14347  20779890.9254   20779889.4804
      2609.8594
    891829.39049    693569.52347  20513314.0584   20513312.6674
     -1140.9064
  -5498384.51848  -4274072.49243  23037892.5734   23037892.0074
      1711.7974
 -10945206.60448  -8527493.13246  22063499.7454   22063497.6284
      1837.8594
   9483163.41547   7371368.77943  23394181.8314   23394180.7224
     -2695.6724
  -6844214.16849  -5327076.89748  20336768.5264   20336766.8084
      1408.6564
  -7466554.97948  -5798735.97144  22715202.5264   22715201.0034
      3843.0784
 04  9 10 22  7 14.9990000  0  8G 3G 8G13G10G19G23G27G28
  -2042377.63847  -1588852.06844  22786618.4804   22786618.5114
      -641.9224
 -11940250.77849  -9289082.98247  20772444.6754   20772443.4214
      2607.1094
    908993.14349    706943.86147  20516580.4014   20516578.7024
     -1147.7974
  -5523996.33648  -4294029.75743  23033018.6364   23033018.7614
      1702.9224
 -10972716.27848  -8548929.23546  22058264.3704   22058261.9764
      1829.7814
   9523613.99147   7402888.61343  23401879.6284   23401878.6634
     -2697.9374
  -6865326.56449  -5343528.11948  20332751.1834   20332749.1984
      1406.1414
  -7524177.14648  -5843636.32144  22704236.4954   22704235.9684
      3839.7664
 04  9 10 22  7 29.9990000  0  8G 3G 8G13G10G19G23G27G28
  -2032687.83547  -1581301.58844  22788462.6514   22788462.2454
      -650.1564
 -11979335.86749  -9319538.87747  20765007.0734   20765006.0654
      2604.2814
    926262.21349    720400.26847  20519866.4804   20519864.6164
     -1154.7664
  -5549474.13848  -4313882.56343  23028169.9404   23028170.2534
      1694.0784
 -11000102.99748  -8570269.50046  22053052.8154   22053050.2654
      1821.6884
   9564099.36547   7434435.57743  23409583.5814   23409582.8974
     -2700.2344
  -6886399.25349  -5359948.38948  20328741.1054   20328739.0854
      1403.5004
  -7581748.64448  -5888497.17444  22693281.2534   22693280.6634
      3836.4224
 04  9 10 22  7 44.9990000  0  8G 3G 8G13G10G19G23G27G28
  -2022874.74747  -1573654.99844  22790329.7454   22790329.5504
      -658.0624
 -12018379.30049  -9349962.31447  20757577.2534   20757576.9014
      2601.7344
    943634.52149    733937.12747  20523172.3234   20523171.0504
     -1161.3754
  -5574819.84947  -4333632.45743  23023346.7694   23023346.8004
      1685.5784
 -11027368.56948  -8591515.37346  22047864.2064   22047861.7724
      1813.9224
   9604617.40048   7466008.03143  23417294.6594   23417293.1554
     -2702.0944
  -6907434.26749  -5376339.30548  20324738.2224   20324736.5624
      1401.3284
  -7639271.17648  -5933319.88144  22682334.7224   22682334.9174
      3833.3594
 04  9 10 22  7 59.9990000  0  8G 3G 8G13G10G19G23G27G28
  -2012940.41447  -1565913.97544  22792220.1444   22792220.0194
      -666.9064
 -12057382.86349  -9380354.68648  20750155.5424   20750153.8154
      2598.3444
    961108.06049    747552.87047  20526497.3784   20526495.5114
     -1168.7814
  -5600035.38547  -4353280.90143  23018547.7304   23018548.7614
      1676.1564
 -11054514.71548  -8612668.18646  22042698.7694   22042696.4484
      1805.1884
   9645165.94647   7497604.21043  23425010.8474   23425009.4294
     -2704.8124
  -6928433.24449  -5392702.14148  20320742.0974   20320740.3194
      1398.1094
  -7696746.62648  -5978105.90644  22671397.6594   22671397.5304
      3829.5004
 04  9 10 22  8 14.9990000  0  8G 3G 8G13G10G19G23G27G28
  -2002878.68547  -1558073.68143  22794134.9724   22794134.1084
      -674.3594
 -12096340.29749  -9410711.13048  20742741.8624   20742740.5194
      2596.3134
    978689.03249    761252.30947  20529842.8864   20529841.0544
     -1175.0474
  -5625114.19247  -4372822.81243  23013776.0734   23013776.0154
      1667.9844
 -11081534.96648  -8633722.91546  22037557.5114   22037554.3004
      1797.7814
   9685751.04148   7529228.85143  23432733.9404   23432732.8004
     -2706.1724
  -6949389.86349  -5409031.97948  20316754.2224   20316752.2414
      1396.3594
  -7754168.40848  -6022850.10244  22660470.8314   22660470.1554
      3827.0784
 04  9 10 22  8 29.9990000  0  8G 3G 8G13G10G19G23G27G28
  -1992696.12647  -1550139.20844  22796072.6444   22796072.7454
      -682.4534
 -12135257.77049  -9441036.41548  20735336.4644   20735334.9724
      2593.5784
    996370.85249    775030.34648  20533207.6754   20533206.1674
     -1181.7504
  -5650062.71247  -4392263.21643  23009028.5264   23009028.4524
      1659.2814
 -11108435.52548  -8654684.36446  22032438.0424   22032435.3354
      1789.7974
   9726366.04147   7560876.84243  23440462.5424   23440461.8474
     -2708.2504
  -6970310.55349  -5425333.80848  20312773.2064   20312771.1084
      1393.9224
  -7811542.82648  -6067557.38944  22649553.1514   22649552.1324
      3823.7814
 04  9 10 22  8 44.9990000  0  8G 3G 8G13G10G19G23G27G28
  -1982393.01548  -1542110.80844  22798034.0734   22798033.2964
      -691.7974
 -12174135.26749  -9471330.55548  20727938.2454   20727937.0504
      2589.5314
   1014153.37949    788886.84147  20536592.0194   20536589.9334
     -1189.7664
  -5674880.93247  -4411602.09343  23004305.9014   23004306.1904
      1649.1884
 -11135216.19648  -8675552.39946  22027342.1444   22027338.7144
      1780.4224
   9767010.78547   7592547.98243  23448197.5504   23448196.7304
     -2711.5944
  -6991195.14249  -5441607.50448  20308798.9014   20308797.0504
      1390.1564
  -7868869.78648  -6112227.69044  22638643.5424   22638643.0624
      3819.2194
 04  9 10 22  8 59.9990000  0  8G 3G 8G13G10G19G23G27G28
  -1971965.33848  -1533985.37243  22800017.6204   22800017.6054
      -699.1564
 -12212968.41549  -9501590.14547  20720548.4724   20720547.3514
      2587.4694
   1032040.71549    802825.01447  20539995.4254   20539993.9764
     -1195.9064
  -5699564.60247  -4430836.09343  22999608.3784   22999608.9334
      1641.1564
 -11161872.56048  -8696323.57846  22022269.3704   22022266.4804
      1773.0004
   9807689.21747   7624245.37243  23455937.2224   23455937.3744
     -2712.9064
  -7012039.48849  -5457849.85548  20304832.3624   20304830.6324
      1388.3914
  -7926144.89248  -6156857.60544  22627744.4644   22627744.5464
      3816.7664
 04  9 10 22  9 14.9990000  0  8G 3G 8G13G10G19G23G27G28
  -1961418.40248  -1525766.98444  22802024.7614   22802024.5854
      -707.3284
 -12251762.32749  -9531819.16347  20713166.3394   20713164.4484
      2584.6724
   1050027.68549    816840.81647  20543418.7534   20543416.8514
     -1202.6724
  -5724118.66947  -4449969.13143  22994936.4094   22994936.0774
      1632.4534
 -11188409.62547  -8717001.78946  22017219.7764   22017216.7374
      1764.8754
   9848395.90248   7655964.78143  23463684.0504   23463682.8944
     -2714.9694
  -7032848.57849  -5474064.72548  20300872.7304   20300870.9564
      1385.8444
  -7983373.05048  -6201450.90944  22616854.8004   22616854.0894
      3813.4534
 04  9 10 22  9 29.9990000  0  8G 3G 8G13G10G19G23G27G28
  -1950745.57348  -1517450.49044  22804055.8394   22804055.6444
      -715.2034
 -12290510.39949  -9562012.44447  20705792.5504   20705792.0074
      2582.1094
   1068120.76349    830939.31947  20546861.3084   20546859.8004
     -1209.2664
  -5748536.32546  -4468995.86443  22990289.3704   22990289.2494
      1623.7664
 -11214820.43448  -8737581.61146  22012193.5584   22012190.7924
      1756.9694
   9889137.42748   7687711.38143  23471437.1984   23471436.0304
     -2716.7034
  -7053615.66749  -5490246.86248  20296920.6284   20296919.2144
      1383.5634
  -8040547.37348  -6246002.27544  22605974.4874   22605974.2654
      3810.2974
 04  9 10 22  9 44.9980000  0  8G 3G 8G13G10G19G23G27G28
  -1939947.80748  -1509036.67243  22806109.8574   22806109.3224
      -723.6564
 -12329209.89649  -9592167.90147  20698428.6314   20698427.2174
      2579.0944
   1086318.55649    845119.38948  20550324.4124   20550322.3184
     -1216.3284
  -5772815.95747  -4487915.05643  22985669.3654   22985669.2134
      1614.6564
 -11241103.05347  -8758061.56546  22007192.3654   22007189.8304
      1748.5784
   9929910.91048   7719482.82043  23479196.1624   23479195.3344
     -2719.0314
  -7074339.20949  -5506395.08648  20292977.2324   20292975.7524
      1380.7664
  -8097663.88448  -6290508.61244  22595105.5764   22595105.0414
      3806.6564
 04  9 10 22  9 59.9980000  0  8G 3G 8G13G10G19G23G27G28
  -1929028.09648  -1500527.80644  22808188.9284   22808187.8144
      -732.4224
 -12367870.15449  -9622292.75747  20691071.6624   20691070.5614
      2575.5784
   1104619.21649    859379.63147  20553807.0924   20553805.4674
     -1223.7814
  -5796965.01447  -4506732.48943  22981074.4124   22981074.1704
      1605.2034
 -11267265.01548  -8778447.49446  22002214.0684   22002211.2914
      1739.6724
   9970717.19247   7751279.82943  23486960.8894   23486959.7914
     -2721.7194
  -7095026.23349  -5522514.83548  20289040.6234   20289039.1004
      1377.4694
  -8154734.28948  -6334978.98944  22584245.2874   22584244.8264
      3802.7034
 04  9 10 22 10 14.9980000  0  8G 3G 8G13G10G19G23G27G28
  -1917986.71648  -1491924.14744  22810289.4044   22810288.8574
      -739.6094
 -12406487.99549  -9652384.57247  20683722.7954   20683721.5614
      2573.6884
   1123021.99349    873719.44847  20557308.7564   20557306.4364
     -1229.7344
  -5820981.23046  -4525446.41243  22976504.0144   22976503.7404
      1597.2504
 -11293303.96948  -8798737.57546  21997258.7174   21997255.8224
      1732.3754
  10011553.90248   7783100.57043  23494731.9514   23494731.2564
     -2722.9374
  -7115674.74649  -5538604.58848  20285111.2724   20285109.4124
      1375.7504
  -8211754.18548  -6379410.05444  22573394.5224   22573393.9944
      3800.2194
 04  9 10 22 10 29.9980000  0  8G 3G 8G13G10G19G23G27G28
  -1906830.69947  -1483231.17644  22812412.0454   22812412.5374
      -748.0164
 -12445069.98849  -9682448.46547  20676381.0684   20676379.4084
      2570.4844
   1141519.86249    888133.35447  20560828.8654   20560827.0064
     -1236.8284
  -5844871.27547  -4544062.02843  22971958.2324   22971957.8654
      1587.9694
 -11319226.38948  -8818936.84946  21992325.8654   21992323.2684
      1723.7664
  10052414.08448   7814939.58843  23502507.6314   23502507.2254
     -2725.2664
  -7136291.47749  -5554669.57848  20281187.7254   20281185.7324
      1372.8754
  -8268730.14748  -6423806.86645  22562552.2564   22562551.7644
      3796.4224
 04  9 10 22 10 44.9980000  0  8G 3G 8G13G10G19G23G27G28
  -1895553.56547  -1474443.79144  22814558.1624   22814558.3934
      -755.6094
 -12483609.51549  -9712479.24247  20669047.1474   20669045.7254
      2568.0944
   1160119.40549    902626.49847  20564368.2174   20564366.6044
     -1243.1874
  -5868628.44846  -4562574.07243  22967436.7014   22967436.6864
      1579.6884
 -11345025.41348  -8839039.96446  21987416.5374   21987413.6744
      1716.0164
  10093304.19947   7846801.92243  23510288.3114   23510288.6934
     -2726.8914
  -7156869.67449  -5570704.51848  20277272.1394   20277270.5724
      1370.7034
  -8325655.33048  -6468164.08644  22551719.9824   22551719.6314
      3793.4384
 04  9 10 22 10 59.9980000  0  8G 3G 8G13G10G19G23G27G28
  -1884153.73048  -1465560.82343  22816727.5374   22816727.4674
      -764.0474
 -12522104.79749  -9742475.55748  20661721.6624   20661720.1434
      2564.9224
   1178822.28349    917200.15647  20567926.9284   20567925.8344
     -1250.2504
  -5892250.95346  -4580981.21043  22962941.8114   22962941.8464
      1570.3914
 -11370699.23248  -8859045.52246  21982530.9434   21982528.0334
      1707.4534
  10134225.72147   7878688.73143  23518076.0924   23518075.7644
     -2729.1254
  -7177407.46849  -5586707.99148  20273363.8034   20273362.1114
      1367.8594
  -8382527.87548  -6512480.31544  22540897.6624   22540896.8614
      3789.8284
 04  9 10 22 11 14.9980000  0  8G 3G 8G13G10G19G23G27G28
  -1872633.28047  -1456583.85944  22818920.3184   22818919.6274
      -772.5784
 -12560557.54949  -9772438.73848  20654404.5764   20654403.4474
      2561.5944
   1197626.40449    931852.70148  20571505.5224   20571503.8894
     -1257.5314
  -5915740.64247  -4599284.89243  22958471.8574   22958472.0494
      1561.0634
 -11396249.53948  -8878954.83946  21977669.2794   21977665.8654
      1698.7034
  10175176.49147   7910598.34043  23525868.6474   23525868.1974
     -2731.5314
  -7197906.72449  -5602681.44048  20269462.8344   20269461.4674
      1364.8284
  -8439349.54648  -6556756.88044  22530084.8424   22530084.1934
      3785.9384
 04  9 10 22 11 29.9980000  0  8G 3G 8G13G10G19G23G27G28
  -1860993.76648  -1447514.10543  22821134.4594   22821134.7254
      -779.7344
 -12598969.09549  -9802369.79547  20647094.7724   20647093.5024
      2559.5784
   1216530.26549    946582.97047  20575102.8264   20575100.9164
     -1263.4064
  -5939098.85247  -4617486.05443  22954026.6234   22954027.0494
      1553.0784
 -11421677.56548  -8898768.85946  21972829.8734   21972827.1544
      1691.3754
  10216155.05848   7942529.60243  23533666.9904   23533666.5184
     -2732.7194
  -7218368.80249  -5618625.91048  20265569.0614   20265567.4004
      1363.0944
  -8496121.51748  -6600994.74445  22519281.2794   22519280.7754
      3783.3754
 04  9 10 22 11 44.9980000  0  8G 3G 8G13G10G19G23G27G28
  -1849233.57947  -1438350.32443  22823372.3344   22823373.2364
      -787.9534
 -12637337.39049  -9832267.15248  20639793.8114   20639792.4514
      2556.5474
   1235535.68249    961392.37147  20578719.4044   20578717.7524
     -1270.3124
  -5962323.73847  -4635583.36143  22949605.9594   22949607.3614
      1544.0004
 -11446981.17548  -8918485.93446  21968015.2954   21968012.4824
      1682.8284
  10257162.91948   7974483.69443  23541470.4044   23541469.9864
     -2734.7034
  -7238791.67849  -5634539.83348  20261682.8734   20261681.3424
      1360.2974
  -8552841.80348  -6645192.31045  22508488.1544   22508487.4634
      3779.7344
 04  9 10 22 11 59.9980000  0  8G 3G 8G13G10G19G23G27G28
  -1837351.29348  -1429091.40743  22825633.6314   22825633.8114
      -796.0624
 -12675660.99949  -9862129.68947  20632500.6934   20632499.6074
      2553.4064
   1254644.07549    976282.01947  20582355.6544   20582353.8504
     -1277.2194
  -5985413.53047  -4653575.39843  22945212.9754   22945214.0024
      1534.9224
 -11472158.61048  -8938104.70446  21963223.9674   21963221.3144
      1674.2974
  10298201.45848   8006461.72143  23549280.0924   23549278.9754
     -2736.7664
  -7259173.77549  -5650421.97848  20257804.3734   20257802.3574
      1357.5474
  -8609508.59148  -6689348.20744  22497704.1314   22497704.2364
      3776.1094
 04  9 10 22 12 14.9980000  0  8G 3G 8G13G10G19G23G27G28
  -1825351.33548  -1419740.82743  22827917.6074   22827917.3264
      -804.4064
 -12713944.16449  -9891960.73247  20625215.6004   20625214.1784
      2550.3754
   1273850.91049    991248.36148  20586010.6474   20586009.1194
     -1284.2814
  -6008372.62047  -4671465.60943  22940844.9124   22940844.3614
      1525.6724
 -11497214.09148  -8957628.44846  21958455.8424   21958452.8264
      1665.7504
  10339266.10648   8038460.05143  23557094.1934   23557094.1434
     -2738.9844
  -7279519.26049  -5666275.61048  20253932.5684   20253931.0684
      1354.7034
  -8666126.10948  -6733465.71145  22486930.1394   22486929.9084
      3772.3284
 04  9 10 22 12 29.9980000  0  8G 3G 8G13G10G19G23G27G28
  -1813227.93147  -1410294.00443  22830224.3574   22830223.5534
      -812.0784
 -12752180.32549  -9921755.12148  20617939.8034   20617938.4794
      2547.7504
   1293162.15149   1006296.07647  20589685.4204   20589683.9904
     -1290.5944
  -6031194.86647  -4689249.15943  22936501.6234   22936501.6704
      1517.1254
 -11522141.36048  -8977052.26646  21953712.6624   21953709.2524
      1657.7344
  10380362.71347   8070483.28843  23564914.2324   23564914.6624
     -2740.6254
  -7299822.10849  -5682095.99848  20250069.1624   20250067.6194
      1352.2504
  -8722688.13748  -6777539.96145  22476167.0534   22476166.1784
      3769.2344
 04  9 10 22 12 44.9980000  0  8G 3G 8G13G10G19G23G27G28
  -1800986.51448  -1400755.25643  22832554.2324   22832553.7444
      -819.6094
 -12790375.03649  -9951517.22148  20610671.5144   20610670.4324
      2545.3134
   1312572.51349   1021421.01447  20593379.1934   20593377.7294
     -1296.9694
  -6053885.39246  -4706930.07843  22932183.3894   22932184.4594
      1508.6564
 -11546945.42448  -8996380.10246  21948992.6784   21948989.5614
      1649.9064
  10421485.92447   8102527.27143  23572740.2014   23572739.7404
     -2742.0474
  -7320087.40749  -5697887.13948  20246212.8574   20246210.9164
      1350.1094
  -8779199.71448  -6821574.90845  22465413.3184   22465412.0924
      3766.1884
 04  9 10 22 12 59.9980000  0  8G 3G 8G13G10G19G23G27G28
  -1788627.25848  -1391124.69843  22834905.9984   22834905.5254
      -828.0784
 -12828527.89849  -9981246.71948  20603411.0924   20603409.9364
      2541.9224
   1332081.80049   1036623.04747  20597091.4514   20597089.6004
     -1304.1254
  -6076444.17947  -4724508.33443  22927890.8734   22927890.9634
      1499.3284
 -11571626.12848  -9015611.80046  21944295.8574   21944292.9204
      1641.0784
  10462635.43647   8134591.73943  23580571.3734   23580570.3184
     -2744.3914
  -7340315.07649  -5713648.95348  20242363.2404   20242361.6044
      1347.0634
  -8835660.66548  -6865570.41345  22454668.8424   22454668.3654
      3762.1094
 04  9 10 22 13 14.9980000  0  8G 3G 8G13G10G19G23G27G28
  -1776145.62347  -1381398.76143  22837280.9594   22837280.6154
      -835.8754
 -12866634.32049 -10010940.02247  20596159.7094   20596158.4594
      2539.1254
   1351694.66549   1051905.78447  20600823.6544   20600822.0644
     -1310.7194
  -6098866.37347  -4741980.20343  22923624.3894   22923623.9824
      1490.5474
 -11596178.44248  -9034743.46446  21939623.2484   21939620.6074
      1632.7814
  10503815.81848   8166680.25343  23588407.7564   23588407.3144
     -2746.1094
  -7360500.30749  -5729377.69748  20238522.4674   20238520.5884
      1344.5944
  -8892066.09548  -6909522.64445  22443935.1864   22443934.4244
      3758.7974
 04  9 10 22 13 29.9980000  0  8G 3G 8G13G10G19G23G27G28
  -1763540.98047  -1371576.96943  22839679.1394   22839678.8544
      -844.3914
 -12904693.22649 -10040596.31447  20588917.6474   20588916.1974
      2535.7504
   1371411.66149   1067269.65847  20604575.7254   20604574.0494
     -1317.8594
  -6121151.20947  -4759345.00543  22919383.4594   22919383.5804
      1481.2034
 -11620601.60048  -9053774.47946  21934976.3034   21934973.2174
      1623.9694
  10545027.53648   8198793.17643  23596250.3574   23596249.6664
     -2748.2974
  -7380642.28849  -5745072.75548  20234689.4824   20234688.0764
      1341.4694
  -8948415.15748  -6953430.96845  22433212.6624   22433211.7874
      3754.7504
 04  9 10 22 13 44.9980000  0  8G 3G 8G13G10G19G23G27G28
  -1750811.99647  -1361658.30643  22842102.0534   22842101.8654
      -852.5164
 -12942703.32449 -10070214.56348  20581684.6314   20581683.1894
      2532.5784
   1391234.12549   1082715.72047  20608348.1314   20608345.9124
     -1324.7814
  -6143297.10847  -4776601.53643  22915169.2724   22915168.9324
      1471.9384
 -11644893.90648  -9072703.53946  21930353.8894   21930350.1044
      1615.3444
  10586271.88347   8230931.53143  23604098.1004   23604097.8774
     -2750.5314
  -7400739.40749  -5760732.85448  20230865.1704   20230863.9594
      1338.5314
  -9004706.20048  -6997294.07145  22422500.0534   22422499.7484
      3751.0474
 04  9 10 22 13 59.9980000  0  8G 3G 8G13G10G19G23G27G28
  -1737966.25348  -1351648.64143  22844545.9904   22844546.2484
      -860.0474
 -12980672.00849 -10099800.53547  20574458.9984   20574457.7644
      2530.1254
   1411154.65249   1098238.19947  20612138.8894   20612136.5454
     -1331.0474
  -6165311.39447  -4793755.52543  22910979.8974   22910979.6704
      1463.4844
 -11669062.44448  -9091536.14846  21925754.2254   21925751.5184
      1607.3914
  10627541.20847   8263089.37243  23611950.6154   23611951.6074
     -2751.8284
  -7420798.97449  -5776363.66448  20227047.8504   20227045.8144
      1336.2814
  -9060946.35148  -7041117.51745  22411798.0144   22411797.6434
      3747.9534
 04  9 10 22 14 14.9980000  0  7G 3G 8G13G10G19G27G28
  -1725006.42748  -1341550.08543  22847012.5144   22847012.1824
      -868.1564
 -13018601.34649 -10129355.85548  20567241.3034   20567240.1784
      2526.9384
   1431170.55149   1113834.99247  20615947.6934   20615945.9284
     -1337.9374
  -6187196.51047  -4810808.86043  22906815.5064   22906815.2294
      1454.2504
 -11693109.66548  -9110274.22346  21921178.7324   21921175.1624
      1598.7344
  -7440823.31049  -5791967.05148  20223237.6544   20223235.4474
      1333.3754
  -9117138.00948  -7084903.16744  22401105.4284   22401104.6354
      3744.1724
 04  9 10 22 14 29.9980000  0  7G 3G 8G13G10G19G27G28
  -1711926.60547  -1331358.03943  22849500.8034   22849501.4324
      -876.2974
 -13056485.29149 -10158875.81048  20560032.3894   20560031.4084
      2523.7664
   1451287.94349   1129510.86547  20619776.1934   20619774.2134
     -1344.8284
  -6208946.24047  -4827756.70543  22902676.2644   22902675.8424
      1445.1094
 -11717029.26648  -9128912.85946  21916626.4204   21916623.4984
      1589.9844
  -7460806.31349  -5807538.20948  20219434.6004   20219432.4864
      1330.4844
  -9173274.75648  -7128646.04845  22390422.8424   22390422.0414
      3740.2974
 04  9 10 22 14 44.9980000  0  7G 3G 8G13G10G19G27G28
  -1698727.77048  -1321073.21643  22852013.1004   22852012.9004
      -883.9694
 -13094324.22349 -10188360.66948  20552831.8734   20552830.6624
      2521.0314
   1471505.81649   1145265.04647  20623623.0684   20623621.6004
     -1351.2664
  -6230561.41547  -4844599.67943  22898563.1624   22898563.0684
      1436.4384
 -11740821.80947  -9147452.47446  21912098.9434   21912095.9124
      1581.8754
  -7480748.57249  -5823077.62448  20215639.7174   20215638.0724
      1328.0164
  -9229357.26249  -7172346.65044  22379751.0224   22379750.3114
      3736.9384
 04  9 10 22 14 59.9980000  0  7G 3G 8G13G10G19G27G28
  -1685408.39148  -1310694.50443  22854548.0374   22854547.5064
      -892.1724
 -13132116.54749 -10217809.21848  20545640.0294   20545638.9754
      2517.7194
   1491825.78149   1161098.76347  20627489.8654   20627488.4244
     -1358.2504
  -6252040.31448  -4861336.47343  22894475.7014   22894475.8074
      1427.1724
 -11764485.37648  -9165891.60146  21907595.8264   21907593.0574
      1572.9844
  -7500648.40949  -5838583.99048  20211852.9514   20211851.1074
      1325.0474
  -9285383.72049  -7216003.58145  22369089.5294   22369088.6154
      3732.9694
 04  9 10 22 15 14.9980000  0  7G 3G 8G13G10G19G27G28
  -1671969.62548  -1300222.76243  22857104.4434   22857104.2484
      -899.5164
 -13169863.18849 -10247222.19148  20538457.4594   20538455.5224
      2515.3444
   1512246.64249   1177011.10347  20631376.0844   20631374.1664
     -1364.2504
  -6273383.75048  -4877967.73243  22890413.7794   22890414.1474
      1418.7194
 -11788020.81548  -9184230.88646  21903117.2014   21903114.3144
      1565.1254
  -7520506.74949  -5854058.02548  20208074.3184   20208072.8574
      1322.9534
  -9341354.97449  -7259617.50445  22358438.4674   22358437.4124
      3730.0164
 04  9 10 22 15 29.9980000  0  7G 3G 8G13G10G19G27G28
  -1658420.34247  -1289664.88843  22859683.2094   22859682.9084
      -907.7664
 -13207572.66549 -10276606.17748  20531281.2484   20531279.8814
      2511.9064
   1532759.65749   1192995.26147  20635279.4434   20635277.5104
     -1371.4224
  -6294600.44948  -4894500.22143  22886376.9514   22886377.1664
      1409.3754
 -11811436.64048  -9202476.95946  21898661.3894   21898657.9824
      1556.2814
  -7540332.04949  -5869506.30748  20204301.4824   20204299.6784
      1319.7814
  -9397279.53849  -7303195.03845  22347795.6934   22347795.2724
      3725.9534
 04  9 10 22 15 44.9980000  0  7G 3G 8G13G10G19G27G28
  -1644745.61347  -1279009.26243  22862285.4824   22862285.4554
      -915.3124
 -13245230.02649 -10305949.57348  20524115.0454   20524113.7134
      2509.3594
   1553379.85349   1209062.93047  20639203.2874   20639201.7604
     -1377.7034
  -6315675.12448  -4910922.04143  22882366.3424   22882366.6584
      1400.7974
 -11834717.50948  -9220617.87746  21894231.0374   21894227.6044
      1548.1564
  -7560109.10049  -5884916.99348  20200537.9754   20200535.8934
      1317.3754
  -9453142.03749  -7346724.22045  22337165.6234   22337164.8304
      3722.6094
 04  9 10 22 15 59.9980000  0  7G 3G 8G13G10G19G27G28
  -1630950.60348  -1268259.91443  22864910.6074   22864910.4044
      -923.5474
 -13282840.09049 -10335256.09648  20516958.2094   20516956.9594
      2506.0004
   1574101.97049   1225210.02047  20643146.2794   20643145.0494
     -1384.6254
  -6336612.79448  -4927237.10643  22878382.1934   22878382.6504
      1391.5004
 -11857868.38148  -9238657.50546  21889825.9204   21889822.4714
      1539.2974
  -7579842.94249  -5900294.00948  20196782.4514   20196780.5614
      1314.3754
  -9508947.43648  -7390208.88045  22326545.5064   22326545.7644
      3718.6414
 04  9 10 22 16 14.9980000  0  7G 3G 8G13G10G19G27G28
  -1617036.81147  -1257417.99543  22867558.1234   22867557.8574
      -931.8444
 -13320403.66349 -10364526.41648  20509810.2564   20509808.9864
      2502.3444
   1594924.86749   1241435.63347  20647109.1474   20647107.5224
     -1391.8754
  -6357414.63348  -4943446.33443  22874423.5924   22874423.9984
      1381.8444
 -11880890.25748  -9256596.61246  21885445.0294   21885441.6114
      1530.0944
  -7599534.62049  -5915638.17248  20193035.7564   20193033.6624
      1311.0164
  -9564696.72948  -7433649.86145  22315937.0534   22315936.7684
      3714.4064
 04  9 10 22 16 29.9980000  0  7G 3G 8G13G10G19G27G28
  -1603000.78948  -1246480.85543  22870229.7954   22870229.3034
      -940.0784
 -13357917.20249 -10393757.72048  20502671.6934   20502670.4164
      2498.9224
   1615851.85849   1257742.37747  20651091.2484   20651089.5614
     -1398.8284
  -6378077.03248  -4959546.89643  22870492.2954   22870492.5064
      1372.5164
 -11903779.38248  -9274432.27146  21881088.9984   21881085.8304
      1521.2194
  -7619180.47149  -5930946.62048  20189297.2254   20189295.6434
      1307.9534
  -9620386.12149  -7477044.12345  22305340.3814   22305339.7794
      3710.4064
 04  9 10 22 16 44.9980000  0  7G 3G 8G13G10G19G27G28
  -1588845.93548  -1235451.11343  22872923.3424   22872922.4714
      -947.7344
 -13395383.95349 -10422952.58448  20495541.9984   20495540.2644
      2495.9694
   1636879.62549   1274127.63147  20655092.6314   20655090.8654
     -1405.3914
  -6398603.23448  -4975541.34344  22866585.6704   22866586.0574
      1363.6724
 -11926538.79948  -9292166.86446  21876758.2094   21876754.6894
      1512.7974
  -7638783.53749  -5946221.72648  20185566.9754   20185565.0614
      1305.2814
  -9676018.71649  -7520394.15745  22294753.4754   22294753.1704
      3706.7344
 04  9 10 22 16 59.9980000  0  7G 3G 8G13G10G19G27G28
  -1574566.00548  -1224323.88143  22875641.0614   22875639.9394
      -956.2194
 -13432797.42749 -10452105.94048  20488422.5764   20488421.1894
      2492.4844
   1658014.52649   1290596.37047  20659114.7954   20659112.9244
     -1412.5314
  -6418986.60048  -4991424.49343  22862707.8344   22862706.9714
      1354.1254
 -11949161.90448  -9309795.24646  21872453.0614   21872450.1044
      1503.6414
  -7658337.33849  -5961458.45548  20181845.8814   20181844.3384
      1302.0004
  -9731587.80649  -7563694.70645  22284179.3114   22284178.2684
      3702.5474
 04  9 10 22 17 14.9980000  0  7G 3G 8G13G10G19G27G28
  -1560165.51847  -1213102.75843  22878380.2564   22878380.5144
      -964.7194
 -13470161.38949 -10481220.70448  20481312.5614   20481311.2444
      2488.4844
   1679251.99349   1307145.03847  20663155.9674   20663154.4944
     -1420.0624
  -6439231.42948  -5007199.67944  22858854.8184   22858854.8304
      1344.2504
 -11971652.79448  -9327320.59146  21868172.7254   21868169.9514
      1494.2664
  -7677846.07849  -5976660.06948  20178133.3034   20178132.0144
      1298.3444
  -9787097.58149  -7606949.03245  22273615.6314   22273614.8734
      3697.9384
 04  9 10 22 17 29.9980000  0  7G 3G 8G13G10G19G27G28
  -1545643.31348  -1201786.73743  22881144.4124   22881144.1974
      -972.0784
 -13507474.75849 -10510296.04048  20474211.8424   20474210.3144
      2486.0784
   1700593.27249   1323774.59247  20667217.0064   20667215.2324
     -1426.0314
  -6459336.41648  -5022865.89944  22855028.8034   22855029.1544
      1335.8754
 -11994010.02748  -9344741.79046  21863918.4904   21863915.3934
      1486.1884
  -7697308.42149  -5991825.52748  20174429.8034   20174428.2794
      1296.1414
  -9842546.55249  -7650155.97645  22263064.1624   22263063.1044
      3694.7664
 04  9 10 22 17 44.9980000  0  7G 3G 8G13G10G19G27G28
  -1531004.01348  -1190379.51543  22883929.7724   22883930.0574
      -979.9534
 -13544741.79249 -10539335.28948  20467119.9364   20467118.6584
      2482.7814
   1722033.87549   1340481.53547  20671296.9514   20671295.4514
     -1432.7664
  -6479305.88548  -5038426.53243  22851229.0534   22851228.8184
      1326.6414
 -12016237.85548  -9362062.16646  21859688.6934   21859685.5104
      1477.4384
  -7716728.54749  -6006958.10048  20170734.3574   20170732.5454
      1293.1254
  -9897939.07449  -7693318.93945  22252523.1704   22252522.6974
      3690.8134
 04  9 10 22 17 59.9980000  0  7G 3G 8G13G10G19G27G28
  -1516237.85348  -1178873.44643  22886739.9984   22886740.4674
      -988.4374
 -13581952.58249 -10568330.69948  20460038.9594   20460037.8264
      2479.0314
   1743583.69049   1357273.57747  20675398.3574   20675396.5684
     -1440.0784
  -6499129.92647  -5053873.83843  22847455.9594   22847456.6114
      1316.8134
 -12038326.10548  -9379273.76646  21855485.1784   21855481.9904
      1468.1094
  -7736096.50649  -6022050.01548  20167049.0684   20167047.0534
      1289.6414
  -9953264.87149  -7736429.91045  22241994.9674   22241994.1544
      3686.4064
 04  9 10 22 18 14.9980000  0  7G 3G 8G13G10G19G27G28
  -1501352.07948  -1167274.15543  22889572.0224   22889572.0724
      -996.4534
 -13619113.90249 -10597287.56248  20452967.4434   20452965.9204
      2475.7664
   1765235.37149   1374145.00747  20679518.0534   20679516.6004
     -1446.8284
  -6518815.53146  -5069213.28143  22843710.3974   22843710.8304
      1307.7034
 -12060281.69848  -9396381.99946  21851307.6004   21851304.2014
      1459.2664
  -7755419.28949  -6037106.72948  20163371.5534   20163369.7754
      1286.6564
 -10008530.91449  -7779494.31845  22231478.4044   22231477.7294
      3682.3134
 04  9 10 22 18 29.9980000  0  7G 3G 8G13G10G19G27G28
  -1486341.38148  -1155577.49243  22892428.5294   22892428.4434
     -1004.9374
 -13656220.03149 -10626201.41948  20445906.4124   20445905.3304
      2471.8754
   1786994.25549   1391099.96447  20683658.7874   20683657.0454
     -1454.2034
  -6538357.23846  -5084440.57143  22839992.5064   22839991.9204
      1297.9694
 -12082098.93348  -9413382.42646  21847155.2174   21847152.1704
      1449.7664
  -7774691.10349  -6052123.72548  20159704.4204   20159702.9124
      1283.0164
 -10063731.57949  -7822507.76945  22220974.5844   22220973.0414
      3677.7814
 04  9 10 22 18 44.9980000  0  7G 3G 8G13G10G19G27G28
  -1471209.77448  -1143786.65643  22895308.9284   22895308.6784
     -1012.8444
 -13693274.75949 -10655075.22748  20438855.3344   20438854.0804
      2468.4844
   1808856.55549   1408135.50947  20687819.0454   20687817.6784
     -1461.0474
  -6557758.69746  -5099558.59943  22836300.1234   22836299.5334
      1288.6094
 -12103781.56048  -9430277.96746  21843029.9824   21843026.7094
      1440.9224
  -7793915.76849  -6067103.98048  20156046.3814   20156044.6314
      1280.0004
 -10118870.46149  -7865473.09145  22210481.2794   22210480.6584
      3673.6884
 04  9 10 22 18 59.9980000  0  7G 3G 8G13G10G19G27G28
  -1455955.23548  -1131900.00443  22898211.9364   22898211.2914
     -1021.5944
 -13730275.79849 -10683907.19348  20431814.2484   20431812.6354
      2464.3914
   1830824.22849   1425253.16647  20691999.5534   20691997.9284
     -1468.5004
  -6577017.86846  -5114565.75143  22832634.8734   22832635.1394
      1278.7974
 -12125327.23348  -9447066.78146  21838929.4044   21838926.6234
      1431.2814
  -7813091.06649  -6082045.76748  20152397.0374   20152395.4944
      1276.2504
 -10173945.24649  -7908388.45745  22200001.1074   22200000.1934
      3669.0164
 04  9 10 22 19 14.9980000  0  7G 3G 8G13G10G19G27G28
  -1440576.69048  -1119916.75243  22901137.9284   22901137.7364
     -1029.1414
 -13767221.64549 -10712696.14548  20424783.1934   20424781.9904
      2461.4534
   1852898.45049   1442453.83847  20696200.0454   20696198.4864
     -1474.9534
  -6596133.26746  -5129460.85944  22828997.3504   22828997.5184
      1270.0314
 -12146734.37148  -9463747.64746  21834856.5614   21834852.9044
      1422.7344
  -7832215.54149  -6096947.96448  20148757.8344   20148756.2054
      1273.4844
 -10228954.46449  -7951252.74045  22189532.8504   22189532.1934
      3665.3594
 04  9 10 22 19 29.9980000  0  7G 3G 8G13G10G19G27G28
  -1425076.00048  -1107838.31743  22904087.8654   22904087.0804
     -1037.3444
 -13804114.08449 -10741443.49648  20417762.8184   20417761.6504
      2457.7814
   1875077.34149   1459736.07547  20700420.2014   20700418.7014
     -1482.0004
  -6615106.40246  -5144245.12443  22825387.1784   22825386.8184
      1260.2974
 -12168004.54948  -9480321.79646  21830808.5534   21830805.2174
      1413.5474
  -7851290.63649  -6111811.66248  20145127.9434   20145126.3774
      1270.0944
 -10283899.57949  -7994067.06345  22179076.9514   22179076.2754
      3660.9694
 04  9 10 22 19 44.9980000  0  7G 3G 8G13G10G19G27G28
  -1409451.12648  -1095663.09643  22907060.4514   22907060.5144
     -1046.3444
 -13840950.63549 -10770147.29548  20410753.3974   20410751.9714
      2453.2034
   1897363.13349   1477101.61047  20704661.3344   20704659.4084
     -1490.0004
  -6633935.10446  -5158916.83643  22821804.1784   22821803.6744
      1249.8594
 -12189135.38248  -9496787.35746  21826787.5764   21826784.2484
      1403.3594
  -7870314.12349  -6126635.17048  20141507.7094   20141506.2994
      1265.7504
 -10338778.11449  -8036829.52245  22168634.2794   22168633.1664
      3655.6564
 04  9 10 22 19 59.9980000  0  7G 3G 8G13G10G19G27G28
  -1393696.17647  -1083386.52743  22910058.6154   22910058.8384
     -1054.2664
 -13877725.10549 -10798802.71148  20403755.5844   20403754.1194
      2449.9694
   1919761.69349   1494555.01147  20708923.8574   20708922.1314
     -1496.6254
  -6652613.32946  -5173471.31843  22818249.3574   22818249.6824
      1240.5944
 -12210120.71148  -9513139.54546  21822793.6704   21822790.9244
      1394.5634
  -7889279.87449  -6141413.66948  20137898.9674   20137897.4904
      1262.8754
 -10393583.93949  -8079535.31645  22158205.1154   22158204.2484
      3651.6414
 04  9 10 22 20 14.9980000  0  7G 3G 8G13G10G19G27G28
  -1377821.63848  -1071016.77943  22913079.6394   22913079.2294
     -1062.3444
 -13914447.79049 -10827417.79248  20396767.2014   20396765.5494
      2446.4384
   1942262.63849   1512088.20347  20713205.4824   20713203.6784
     -1503.5474
  -6671151.42546  -5187916.58743  22814722.1234   22814721.6974
      1231.2034
 -12230970.70048  -9529386.28346  21818826.2254   21818823.2914
      1385.4534
  -7908198.06749  -6156155.12648  20134299.1004   20134297.3734
      1259.5634
 -10448327.17149  -8122192.34945  22147787.9754   22147786.6864
      3647.3754
 04  9 10 22 20 29.9980000  0  7G 3G 8G13G10G19G27G28
  -1361826.55347  -1058553.09743  22916123.0764   22916123.4594
     -1070.5004
 -13951117.61949 -10855991.66548  20389789.5144   20389787.9824
      2442.6884
   1964866.84749   1529701.85647  20717506.9284   20717505.1584
     -1510.5314
  -6689548.23448  -5202251.75643  22811220.9824   22811221.1704
      1221.5784
 -12251683.96848  -9545526.45246  21814884.4284   21814881.2604
      1376.1884
  -7927067.53849  -6170858.60048  20130708.2954   20130706.3464
      1256.2344
 -10503006.65849  -8164799.68845  22137382.4824   22137381.2364
      3642.9384
 04  9 10 22 20 44.9980000  0  7G 3G 8G13G10G19G27G28
  -1345706.34248  -1045991.91543  22919191.3424   22919190.6544
     -1078.7974
 -13987729.04649 -10884520.03848  20382822.1704   20382821.0294
      2438.8444
   1987579.11749   1547399.71647  20721828.9984   20721827.2834
     -1517.7034
  -6707798.71248  -5216472.91543  22807748.7014   22807747.7684
      1211.7814
 -12272255.48648  -9561556.20546  21810970.1314   21810966.8224
      1366.7194
  -7945883.14649  -6185520.12048  20127127.9044   20127125.9824
      1252.5944
 -10557617.16749  -8207353.29245  22126990.2324   22126989.8934
      3638.4064
 04  9 10 22 20 59.9980000  0  7G 3G 8G13G10G19G27G28
  -1329464.09448  -1033335.64143  22922281.9674   22922282.0414
     -1086.6564
 -14024285.10149 -10913005.25848  20375865.6784   20375864.1824
      2435.4064
   2010396.55049   1565179.51647  20726171.0924   20726169.3424
     -1524.5164
  -6725905.80248  -5230582.32843  22804302.0844   22804302.1544
      1202.4694
 -12292687.99248  -9577477.63046  21807081.9434   21807078.9324
      1357.6884
  -7964647.65249  -6200141.80548  20123557.0614   20123555.0684
      1249.4064
 -10612161.38249  -8249855.23345  22116610.8034   22116609.6234
      3634.1724
 04  9 10 22 21 14.9980000  0  7G 3G 8G13G10G19G27G28
  -1313095.43648  -1020580.83043  22925397.0684   22925396.7324
     -1095.5944
 -14060781.24049 -10941443.80448  20368920.9984   20368919.7954
      2430.9844
   2033323.43948   1583044.61247  20730533.7094   20730532.1704
     -1532.2344
  -6743864.90148  -5244576.43444  22800884.7094   22800884.5924
      1192.1884
 -12312976.82748  -9593287.08546  21803220.8894   21803217.8504
      1347.7504
  -7983356.49649  -6214720.12448  20119996.8184   20119995.2324
      1245.3284
 -10666634.75949  -8292301.97945  22106244.5064   22106244.1974
      3629.0784
 04  9 10 22 21 29.9980000  0  7G 3G 8G13G10G19G27G28
  -1296599.14247  -1007726.59443  22928535.1864   22928536.0024
     -1103.9374
 -14097215.79149 -10969834.35948  20361987.8504   20361986.0574
      2427.0164
   2056361.10548   1600996.01447  20734917.8344   20734916.1114
     -1539.4064
  -6761674.49948  -5258454.03844  22797496.1234   22797495.8304
      1182.4534
 -12333120.35548  -9608983.35046  21799387.7094   21799384.6394
      1338.1414
  -8002008.03149  -6229253.79448  20116447.4904   20116445.5574
      1241.6414
 -10721035.58949  -8334692.19345  22095892.4434   22095891.5724
      3624.4064
 04  9 10 22 21 44.9980000  0  7G 3G 8G13G10G19G27G28
  -1279981.83048   -994778.05943  22931697.9594   22931698.5374
     -1111.3284
 -14133594.97149 -10998181.74948  20355064.6074   20355063.4364
      2423.8754
   2079502.91048   1619028.58547  20739321.4434   20739319.5414
     -1545.7974
  -6779341.06948  -5272220.17643  22794134.5684   22794133.8694
      1173.3914
 -12353124.82549  -9624571.21846  21795581.2874   21795577.8694
      1329.4384
  -8020608.64149  -6243747.76548  20112908.0684   20112906.0574
      1238.7194
 -10775370.18449  -8377030.79845  22085553.1394   22085552.2254
      3620.4844
 04  9 10 22 21 59.9980000  0  7G 3G 8G13G10G19G27G28
  -1263240.15647   -981732.63643  22934883.4434   22934884.1544
     -1120.3444
 -14169915.32949 -11026483.32648  20348153.2724   20348151.6894
      2419.2974
   2102752.35348   1637145.00747  20743745.9364   20743744.0064
     -1553.6094
  -6796861.05448  -5285872.11843  22790800.1704   22790799.9364
      1163.0634
 -12372986.63648  -9640047.95346  21791801.3504   21791798.2054
      1319.3134
  -8039154.71049  -6258199.25948  20109379.0534   20109376.7724
      1234.4844
 -10829634.83149  -8419314.91145  22075226.8574   22075225.7484
      3615.2034
 04  9 10 22 22 14.9980000  0  7G 3G 8G13G10G19G27G28
  -1246372.03047   -968588.64443  22938093.9434   22938093.9634
     -1128.4224
 -14206174.45649 -11054737.18948  20341253.6234   20341251.9514
      2415.5784
   2126111.47149   1655346.90547  20748190.6624   20748189.3074
     -1560.5474
  -6814232.19248  -5299408.07143  22787494.3814   22787494.4364
      1153.4844
 -12392703.32848  -9655411.59646  21788049.4824   21788045.9904
      1309.9694
  -8057643.79149  -6272606.32148  20105860.1314   20105858.5684
      1231.0474
 -10883827.04349  -8461542.56445  22064914.7174   22064913.4554
      3610.8284
 04  9 10 22 22 29.9980000  0  7G 3G 8G13G10G19G27G28
  -1229385.32447   -955352.29443  22941325.5374   22941326.0964
     -1136.8594
 -14242379.90749 -11082949.21848  20334363.7794   20334362.2644
      2411.4384
   2149572.47749   1673628.17247  20752655.3974   20752653.6704
     -1567.9844
  -6831462.19948  -5312834.06643  22784215.2874   22784215.8264
      1143.4844
 -12412282.54748  -9670668.12546  21784323.4824   21784320.2724
      1300.1884
  -8076083.58749  -6286974.99548  20102351.4044   20102349.7724
      1227.2194
 -10937954.49849  -8503719.76545  22054614.6234   22054613.2794
      3605.9384
 04  9 10 22 22 44.9980000  0  7G 3G 8G13G10G19G27G28
  -1212273.86147   -942018.69143  22944582.2484   22944582.7794
     -1144.9694
 -14278524.99349 -11111114.19648  20327485.6154   20327484.3614
      2407.5164
   2173141.73249   1691993.81847  20757140.2644   20757138.9084
     -1575.0164
  -6848544.50648  -5326144.95343  22780965.3034   22780964.9244
      1133.7504
 -12431717.63248  -9685812.33746  21780625.3654   21780622.2954
      1290.7504
  -8094467.43249  -6301300.06348  20098853.0454   20098850.9904
      1223.5784
 -10992010.33649  -8545841.16145  22044327.5374   22044326.5684
      3601.1884
 04  9 10 22 22 59.9980000  0  7G 3G 8G13G10G19G27G28
  -1195039.97047   -928589.67943  22947862.0614   22947862.2324
     -1152.6564
 -14314611.85449 -11139233.81748  20320618.7404   20320617.4204
      2404.1724
   2196816.93149   1710442.01247  20761645.8734   20761643.8974
     -1581.5624
  -6865481.29948  -5339342.43543  22777742.1704   22777742.4164
      1124.5164
 -12451010.54048  -9700845.76546  21776954.1234   21776950.7214
      1281.7194
  -8112797.34249  -6315583.10548  20095364.9514   20095363.2644
      1220.5004
 -11045996.70649  -8587908.41645  22034054.5924   22034053.6354
      3597.0944
 04  9 10 22 23 14.9980000  0  7G 3G 8G13G10G19G27G28
  -1177682.79048   -915064.62043  22951165.0534   22951164.8774
     -1161.0004
 -14350639.48749 -11167307.29248  20313762.9674   20313761.4124
      2400.1884
   2220599.01249   1728973.48747  20766171.2794   20766170.0184
     -1588.8124
  -6882271.51948  -5352425.74544  22774547.6004   22774547.1744
      1114.7344
 -12470160.18848  -9715767.57346  21773309.4364   21773306.1154
      1272.1414
  -8131072.27249  -6329823.31448  20091887.4824   20091885.5494
      1216.7194
 -11099912.35749  -8629920.58845  22023795.0924   22023793.6194
      3592.2504
 04  9 10 22 23 29.9980000  0  7G 3G 8G13G10G19G27G28
  -1160205.86547   -901446.27143  22954490.7644   22954490.8654
     -1169.1874
 -14386610.83549 -11195336.89448  20306917.7644   20306916.0184
      2396.1094
   2244484.45949   1747585.50347  20770716.1864   20770714.7054
     -1595.8914
  -6898918.42648  -5365397.35243  22771379.3734   22771379.1624
      1104.8914
 -12489169.63848  -9730580.11446  21769692.3734   21769689.0924
      1262.5164
  -8149295.35249  -6344023.11048  20088419.7564   20088418.2444
      1213.0634
 -11153760.50349  -8671880.13845  22013547.4984   22013546.5534
      3587.5784
 04  9 10 22 23 44.9980000  0  7G 3G 8G13G10G19G27G28
  -1142608.57547   -887734.10143  22957838.8894   22957839.1544
     -1177.4064
 -14422524.93849 -11223321.91748  20300083.2484   20300081.8144
      2392.0784
   2268473.96049   1766278.60247  20775281.6864   20775279.9204
     -1602.9844
  -6915421.13048  -5378256.58943  22768239.2564   22768238.9244
      1095.0784
 -12508037.92348  -9745282.65546  21766101.8734   21766098.9594
      1252.9384
  -8167465.57249  -6358181.72048  20084961.8264   20084960.1504
      1209.3134
 -11207540.01849  -8713786.22245  22003313.4904   22003312.8894
      3582.7814
 04  9 10 22 23 59.9980000  0  7G 3G 8G13G10G19G27G28
  -1124887.32048   -873925.36943  22961211.8034   22961212.2644
     -1185.8914
 -14458378.03049 -11251259.37248  20293260.8184   20293259.2094
      2387.9224
   2292571.20849   1785055.65547  20779866.9124   20779865.3574
     -1610.3284
  -6931775.92948  -5391000.59043  22765126.3974   22765126.4904
      1085.1414
 -12526761.08048  -9759872.12546  21762539.0534   21762536.2294
      1243.0634
  -8185579.00949  -6372296.08948  20081515.1784   20081513.2524
      1205.4064
 -11261247.00049  -8755635.77545  21993093.8184   21993092.6744
      3577.7344
 04  9 10 22 24 14.9980000  0  7G 3G 8G13G10G19G27G28
  -1107046.24047   -860023.24843  22964606.8574   22964606.4164
     -1194.1414
 -14494173.58849 -11279152.01748  20286449.0374   20286447.5844
      2383.6724
   2316772.14449   1803913.50647  20784472.3574   20784471.3934
     -1617.6874
  -6947986.60548  -5403632.29444  22762041.4044   22762042.0494
      1075.0944
 -12545342.91748  -9774351.47346  21759003.3424   21758999.7214
      1233.2664
  -8203639.47649  -6386369.18448  20078078.1704   20078076.3654
      1201.4224
 -11314885.17349  -8797431.72545  21982886.8114   21982885.5254
      3572.7974
 04  9 10 22 24 29.9980000  0  7G 3G 8G13G10G19G27G28
  -1089081.65547   -846024.86243  22968024.8424   22968025.0924
     -1201.1414
 -14529907.77949 -11306996.83248  20279649.1864   20279647.7444
      2380.8284
   2341080.36549   1822854.96547  20789098.1314   20789096.5684
     -1623.5004
  -6964049.40148  -5416148.74843  22758985.4434   22758985.8464
      1066.5004
 -12563779.54748  -9788717.66246  21755495.0924   21755491.9044
      1224.8754
  -8221643.11649  -6400397.97848  20074652.3574   20074650.9204
      1199.0164
 -11368450.63749  -8839171.01245  21972693.8184   21972692.4634
      3569.2194
 04  9 10 22 24 44.9980000  0  7G 3G 8G13G10G19G27G28
  -1071000.95647   -831936.00743  22971465.8894   22971466.4514
     -1209.3444
 -14565587.73949 -11334799.38048  20272859.5534   20272858.0224
      2376.6884
   2365488.68749   1841874.41647  20793742.6624   20793741.7954
     -1630.7034
  -6979971.35248  -5428555.45443  22755955.1934   22755955.1004
      1056.5634
 -12582077.95448  -9802976.14646  21752013.1394   21752009.7364
      1215.1414
  -8239596.88949  -6414387.92848  20071235.7564   20071234.0374
      1195.1094
 -11421950.38149  -8880859.09245  21962513.0224   21962511.5804
      3564.3444
 04  9 10 22 24 59.9980000  0  7G 3G 8G13G10G19G27G28
  -1052804.10147   -817756.67243  22974928.2794   22974928.9864
     -1217.2974
 -14601213.06349 -11362559.37248  20266080.1004   20266078.6584
      2372.9844
   2389997.24649   1860971.97447  20798406.5144   20798404.8544
     -1637.4844
  -6995752.40847  -5440852.36743  22752951.6314   22752952.1624
      1047.1094
 -12600237.77347  -9817126.65446  21748556.7484   21748553.9124
      1205.8134
  -8257500.46449  -6428338.74948  20067828.7644   20067827.2484
      1191.6254
 -11475383.87049  -8922495.52945  21952344.4514   21952343.5614
      3559.7664
 04  9 10 22 25 14.9980000  0  7G 3G 8G13G10G19G27G28
  -1034486.52547   -803483.25443  22978414.0224   22978414.8034
     -1225.0474
 -14636778.84649 -11390272.95548  20259312.1784   20259310.4754
      2369.1884
   2414610.59649   1880151.18947  20803090.6234   20803089.0764
     -1644.3444
  -7011387.74747  -5453035.75943  22749977.2014   22749977.2214
      1037.5314
 -12618254.11147  -9831165.34646  21745128.3894   21745125.2404
      1196.4534
  -8275348.88949  -6442246.61348  20064432.6474   20064431.0414
      1188.1884
 -11528746.32049  -8964076.63145  21942189.9284   21942189.4434
      3555.2194
 04  9 10 22 25 29.9980000  0  7G 3G 8G13G10G19G27G28
  -1016051.86148   -789118.59843  22981923.2564   22981922.7874
     -1232.8754
 -14672288.26949 -11417942.63148  20252554.7174   20252553.4084
      2365.3914
   2439325.07149   1899409.21047  20807793.7174   20807791.8184
     -1651.0164
  -7026880.81148  -5465108.29043  22747028.3974   22747029.2644
      1028.0314
 -12636130.21248  -9845094.76146  21741726.6704   21741723.0724
      1187.0004
  -8293145.57549  -6456114.16048  20061045.8264   20061044.3974
      1184.6884
 -11582040.84249  -9005604.79145  21932048.6704   21932047.1864
      3550.7034
 04  9 10 22 25 44.9980000  0  7G 3G 8G13G10G19G27G28
   -997500.16047   -774662.74243  22985452.7324   22985453.0454
     -1241.1564
 -14707741.29749 -11445568.36448  20245808.3734   20245807.2404
      2361.2504
   2464140.82749   1918746.14347  20812515.6784   20812514.1474
     -1658.1724
  -7042231.22348  -5477069.64843  22744107.7174   22744107.7014
      1018.1724
 -12653865.68447  -9858914.59446  21738351.9284   21738348.1314
      1177.3284
  -8310890.17949  -6469941.12248  20057669.1474   20057667.3144
      1180.7974
 -11635267.08949  -9047079.75445  21921919.9904   21921918.7834
      3545.6884
 04  9 10 22 25 59.9980000  0  7G 3G 8G13G10G19G27G28
   -978831.15548   -760115.46543  22989005.8814   22989005.7014
     -1248.5004
 -14743137.13649 -11473149.51948  20239073.1544   20239071.7324
      2357.8134
   2489058.21549   1938162.28147  20817257.5224   20817256.0334
     -1664.5624
  -7057438.55848  -5488919.51243  22741213.6544   22741213.5614
      1009.0944
 -12671459.87348  -9872624.32146  21735003.8894   21735000.4864
      1168.1724
  -8328581.99649  -6483726.95248  20054302.4824   20054300.7524
      1177.6884
 -11688424.38449  -9088500.98045  21911804.1074   21911803.5334
      3541.5314
 04  9 10 22 26 14.9980000  0  7G 3G 8G13G10G19G27G28
   -960043.91548   -745476.05843  22992580.5454   22992580.5254
     -1256.7034
 -14778474.64049 -11500685.24848  20232348.3974   20232347.1974
      2353.5944
   2514077.93149   1957658.13347  20822018.5684   20822017.3464
     -1671.7344
  -7072501.85848  -5500657.13643  22738346.9754   22738347.1044
       999.2194
 -12688911.88848  -9886223.29846  21731682.7794   21731679.5534
      1158.4844
  -8346219.92849  -6497470.79448  20050946.1074   20050944.7134
      1173.7664
 -11741511.74549  -9129867.73145  21901702.4284   21901700.7294
      3536.5634
 04  9 10 22 26 29.9980000  0  7G 3G 8G13G10G19G27G28
   -941139.83748   -730745.62243  22996177.4824   22996177.4674
     -1264.2974
 -14813754.91249 -11528176.35448  20225634.6624   20225633.1354
      2349.8914
   2539198.83149   1977232.84147  20826798.8894   20826797.2914
     -1678.3124
  -7087422.16248  -5512283.36943  22735507.3504   22735508.4084
       989.7504
 -12706222.47648  -9899712.05746  21728389.0374   21728385.4634
      1149.2344
  -8363804.95949  -6511173.41348  20047599.9514   20047598.3774
      1170.3914
 -11794529.96449  -9171180.58745  21891613.0614   21891611.7094
      3532.0634
 04  9 10 22 26 44.9980000  0  7G 3G 8G13G10G19G27G28
   -922119.71547   -715924.77443  22999797.5924   22999797.8304
     -1271.6564
 -14848978.28249 -11555623.13448  20218932.0064   20218930.6234
      2346.5164
   2564420.29249   1996885.91047  20831598.3574   20831597.0964
     -1684.5944
  -7102200.07348  -5523798.62243  22732696.0374   22732696.0334
       980.6884
 -12723392.12848  -9913090.98946  21725121.4984   21725117.8504
      1140.1414
  -8381337.54349  -6524835.15948  20044263.2874   20044261.7404
      1167.3134
 -11847479.57349  -9212439.98945  21881537.0924   21881535.7444
      3527.8594
 04  9 10 22 26 59.9980000  0  7G 3G 8G13G10G19G27G28
   -902982.55047   -701012.73643  23003438.9124   23003439.2094
     -1279.7344
 -14884143.43349 -11583024.53248  20212240.0534   20212238.8074
      2342.3284
   2589743.49048   2016618.26247  20836417.4514   20836415.7214
     -1691.7034
  -7116834.43548  -5535202.01543  22729911.9904   22729911.6934
       970.7194
 -12740419.58448  -9926359.11646  21721881.1314   21721878.2754
      1130.3754
  -8398816.27349  -6538454.95348  20040937.2564   20040935.4084
      1163.3444
 -11900359.11849  -9253644.79245  21871474.4364   21871473.2174
      3522.9224
 04  9 10 22 27 14.9980000  0  7G 3G 8G13G10G19G27G28
   -883728.08347   -686009.25043  23007103.5614   23007102.7994
     -1287.1414
 -14919249.82149 -11610380.15148  20205559.7174   20205558.4244
      2338.8594
   2615168.56049   2036429.97047  20841255.7404   20841254.0684
     -1697.9374
  -7131324.72348  -5546493.16843  22727153.8034   22727154.4124
       961.6094
 -12757304.24048  -9939515.97946  21718668.0374   21718664.9044
      1121.3284
  -8416240.69049  -6552032.41348  20037621.6624   20037620.0104
      1160.2034
 -11953167.90849  -9294794.47645  21861425.5924   21861424.3974
      3518.6724
 04  9 10 22 27 29.9980000  0  7G 3G 8G13G10G19G27G28
   -864360.37947   -670917.54543  23010788.6154   23010788.5144
     -1295.1564
 -14954300.83949 -11637692.62048  20198889.6474   20198887.9394
      2334.7034
   2640691.49448   2056317.96447  20846112.5224   20846111.4004
     -1705.0164
  -7145674.78048  -5557675.03344  22724422.8654   22724422.9124
       951.7344
 -12774049.80348  -9952564.45346  21715481.6544   21715478.6004
      1111.5004
  -8433614.54849  -6565570.48048  20034315.5294   20034313.7014
      1156.3594
 -12005909.63149  -9335891.88145  21851388.5764   21851387.5064
      3513.6414
 04  9 10 22 27 44.9980000  0  7G 3G 8G13G10G19G27G28
   -844875.71748   -655734.69243  23014496.3814   23014496.8544
     -1302.9694
 -14989292.65149 -11664958.96848  20192230.8574   20192229.2324
      2330.7974
   2666316.10948   2076285.18247  20850988.7874   20850986.8774
     -1711.7034
  -7159880.72048  -5568744.59744  22721719.5924   22721719.7404
       942.2664
 -12790652.27248  -9965501.43646  21712321.8974   21712318.8574
      1102.0314
  -8450933.68549  -6579065.91348  20031019.5144   20031017.7324
      1152.7194
 -12058580.27649  -9376933.90845  21841365.7644   21841364.3184
      3508.9844
 04  9 10 22 27 59.9980000  0  7G 3G 8G13G10G19G27G28
   -825274.46848   -640461.02243  23018226.4754   23018226.3344
     -1310.1094
 -15024225.49049 -11692179.35648  20185583.4044   20185582.1584
      2327.2814
   2692042.02049   2096331.31447  20855884.1934   20855882.3934
     -1718.0164
  -7173942.78648  -5579702.06343  22719044.0294   22719043.5614
       933.0784
 -12807111.68448  -9978326.92946  21709190.2404   21709186.7174
      1092.9534
  -8468198.20349  -6592518.78648  20027734.5844   20027732.5144
      1149.5474
 -12111180.03249  -9417920.70145  21831356.2254   21831354.9984
      3504.6564
 04  9 10 22 28 14.9980000  0  7G 3G 8G13G10G19G27G28
   -805563.17248   -625101.58543  23021977.1234   23021976.5534
     -1318.4694
 -15059105.38049 -11719358.49048  20178946.3654   20178944.4364
      2322.9064
   2717862.79249   2116451.38047  20860798.0374   20860796.5254
     -1725.2034
  -7187867.19348  -5590552.24644  22716394.4284   22716394.2404
       922.9384
 -12823434.13649  -9991045.71346  21706084.1864   21706080.6194
      1082.8754
  -8485414.20549  -6605933.84348  20024458.3894   20024456.5764
      1145.4064
 -12163714.79149  -9458856.85345  21821359.6074   21821358.3224
      3499.4384
 04  9 10 22 28 29.9980000  0  7G 3G 8G13G10G19G27G28
   -785731.22147   -609648.15143  23025751.1074   23025751.1274
     -1326.1874
 -15093921.25849 -11746487.74048  20172320.7014   20172319.0644
      2318.8914
   2743789.19249   2136653.73947  20865731.6864   20865729.9004
     -1731.9694
  -7201643.16848  -5601286.79044  22713772.2014   22713772.7604
       913.4694
 -12839608.75048 -10003649.30546  21703005.8734   21703002.5614
      1073.3444
  -8502570.85649  -6619302.67348  20021193.3264   20021191.9824
      1141.8284
 -12216173.58749  -9499733.79745  21811377.3114   21811375.6664
      3494.7194
 04  9 10 22 28 44.9980000  0  7G 3G 8G13G10G19G27G28
   -765784.32448   -594105.09643  23029547.7254   23029546.5684
     -1333.5944
 -15128678.37049 -11773571.18748  20165706.7014   20165705.7874
      2315.2664
   2769815.56349   2156934.02247  20870683.9984   20870682.5644
     -1738.3594
  -7215276.26048  -5611909.96044  22711178.5294   22711178.4634
       904.1254
 -12855640.87548 -10016141.84346  21699955.0844   21699951.9554
      1064.1414
  -8519673.44149  -6632629.34848  20017939.2724   20017937.4904
      1138.4224
 -12268561.76249  -9540555.71046  21801407.9594   21801406.1664
      3490.2194
 04  9 10 22 28 59.9980000  0  7G 3G 8G13G10G19G27G28
   -745716.44947   -578467.80643  23033365.9284   23033365.3034
     -1341.8444
 -15163370.61149 -11800604.09548  20159104.9044   20159103.2134
      2310.7344
   2795947.98349   2177296.91947  20875656.5614   20875655.5804
     -1745.6564
  -7228760.17448  -5622416.90144  22708612.4904   22708612.7254
       893.9844
 -12871524.21448 -10028518.46546  21696932.4984   21696929.5414
      1053.9844
  -8536715.57049  -6645908.93048  20014695.9754   20014694.2134
      1134.1254
 -12320872.97349  -9581317.66945  21791452.7324   21791451.7754
      3484.9064
 04  9 10 22 29 14.9980000  0  7G 3G 8G13G10G19G27G28
   -725535.85448   -562742.67943  23037206.4514   23037205.6584
     -1349.2194
 -15198006.03249 -11827592.72348  20152513.8504   20152512.3384
      2307.0314
   2822178.10549   2197735.95347  20880648.3504   20880646.7644
     -1752.0004
  -7242102.99348  -5632813.92644  22706073.5924   22706073.5614
       884.7504
 -12887266.65449 -10040785.29146  21693937.3814   21693933.7444
      1044.7504
  -8553705.18349  -6659147.58548  20011463.1154   20011461.1894
      1130.8284
 -12373115.02849  -9622025.73545  21781511.2094   21781510.5024
      3480.4224
 04  9 10 22 29 29.9980000  0  7G 3G 8G13G10G19G27G28
   -705239.42148   -546927.29643  23041067.9204   23041068.6114
     -1356.7034
 -15232580.80949 -11854534.10548  20145934.5064   20145933.4044
      2303.2504
   2848509.26949   2218253.72247  20885658.9204   20885657.4084
     -1758.4844
  -7255301.41448  -5643098.40844  22703561.4434   22703561.7874
       875.2974
 -12902864.63949 -10052939.54946  21690968.8344   21690965.2644
      1035.3594
  -8570638.86749  -6672342.66048  20008240.4434   20008238.5534
      1127.3444
 -12425284.42549  -9662677.16645  21771584.1314   21771582.8074
      3475.8914
 04  9 10 22 29 44.9980000  0  7G 3G 8G13G10G19G27G28
   -684828.62048   -531022.81043  23044952.4674   23044952.9324
     -1364.4534
 -15267096.15549 -11881429.17348  20139366.9124   20139364.9674
      2299.1564
   2874939.84649   2238848.95747  20890688.6544   20890686.9754
     -1765.2504
  -7268356.72148  -5653271.38844  22701077.8574   22701077.9594
       865.7664
 -12918319.50849 -10064982.28946  21688028.0144   21688024.9754
      1025.6724
  -8587517.75049  -6685495.05148  20005028.6154   20005026.7014
      1123.5784
 -12477382.34249  -9703272.91845  21761670.1474   21761668.7524
      3470.8914
 04  9 10 22 29 59.9980000  0  7G 3G 8G13G10G19G27G28
   -664307.20348   -515032.10043  23048857.5374   23048857.5294
     -1371.8754
 -15301555.54549 -11908280.64548  20132809.2644   20132807.6974
      2295.2974
   2901466.44749   2259519.00947  20895736.5924   20895735.0924
     -1771.7664
  -7281272.40148  -5663335.55044  22698619.3654   22698620.0414
       856.2504
 -12933634.55748 -10076916.09146  21685113.2094   21685110.2054
      1016.2194
  -8604345.12949  -6698607.28248  20001826.4204   20001824.9324
      1119.9694
 -12529412.07149  -9743815.53446  21751769.1314   21751768.1354
      3466.2814
 04  9 10 22 30 14.9980000  0  7G 3G 8G13G10G19G27G28
   -643670.40347   -498951.48643  23052784.3344   23052784.6584
     -1379.7034
 -15335953.88549 -11935084.52148  20126263.3574   20126261.9164
      2291.0634
   2928093.82749   2280267.61047  20900803.3814   20900802.0454
     -1778.5624
  -7294043.48448  -5673287.03344  22696189.1314   22696189.6474
       846.4844
 -12948804.77049 -10088737.01846  21682226.5844   21682223.5644
      1006.3754
  -8621115.90449  -6711675.41148  19998635.0374   19998632.8734
      1116.0314
 -12581368.58949  -9784301.08845  21741882.3654   21741880.7294
      3461.2194
 04  9 10 22 30 29.9980000  0  7G 3G 8G13G10G19G27G28
   -622920.59848   -482782.83343  23056733.4824   23056733.2444
     -1387.2814
 -15370293.09849 -11961842.34448  20119728.6074   20119727.7644
      2287.1724
   2954819.77349   2301092.99246  20905889.3574   20905888.2174
     -1785.2664
  -7306672.12948  -5683127.53944  22693786.4984   22693786.3574
       836.9844
 -12963832.02749 -10100446.55846  21679367.1624   21679364.0764
       996.8914
  -8637832.07249  -6724701.01648  19995454.1934   19995452.1114
      1112.4224
 -12633253.73649  -9824731.05145  21732008.7324   21732007.5724
      3456.5164
 04  9 10 22 30 44.9980000  0  7G 3G 8G13G10G19G27G28
   -602053.88047   -466523.06142  23060703.7014   23060703.7324
     -1394.9534
 -15404568.74749 -11988550.63448  20113206.1394   20113205.0924
      2283.0634
   2981648.12949   2321998.19447  20910994.5534   20910993.4754
     -1791.8284
  -7319154.24348  -5692853.85444  22691410.3894   22691411.4044
       827.4224
 -12978712.17948 -10112041.48046  21676535.5534   21676532.2094
       987.2194
  -8654489.36249  -6737680.71148  19992284.4824   19992283.0024
      1108.6254
 -12685063.22149  -9865102.04545  21722149.8424   21722147.8574
      3451.5784
 04  9 10 22 30 59.9980000  0  7G 3G 8G13G10G19G27G28
   -581070.91847   -450172.69743  23064696.2324   23064696.6044
     -1403.0944
 -15438781.20349 -12015209.68548  20106696.2644   20106694.9364
      2278.3914
   3008578.24949   2342982.66646  20916119.2404   20916117.6504
     -1799.1414
  -7331490.27948  -5702466.37544  22689063.3264   22689064.0764
       817.1414
 -12993445.61349 -10123522.07146  21673732.1624   21673728.5644
       976.8594
  -8671088.17149  -6750614.85648  19989125.6234   19989123.5454
      1104.2504
 -12736797.41849  -9905414.38546  21712305.3894   21712303.5574
      3445.9844
 04  9 10 22 31 14.9980000  0  7G 3G 8G13G10G19G27G28
   -559975.69847   -433734.90243  23068711.1624   23068711.1664
     -1410.0624
 -15472934.21349 -12041822.40748  20100196.8654   20100195.6074
      2274.8594
   3035606.36049   2364043.51447  20921262.5614   20921261.0374
     -1805.1414
  -7343684.00548  -5711967.96544  22686742.8894   22686743.5764
       808.0944
 -13008035.91648 -10134891.12346  21670955.0844   21670951.8114
       967.9384
  -8687632.13649  -6763506.25447  19985977.6004   19985975.9084
      1101.0784
 -12788459.88149  -9945670.81246  21702474.1784   21702472.6004
      3441.7504
 04  9 10 22 31 29.9980000  0  7G 3G 8G13G10G19G27G28
   -538766.97547   -417208.63043  23072746.8264   23072746.5614
     -1417.7504
 -15507026.13249 -12068387.52448  20093709.3574   20093707.9434
      2270.7194
   3062733.70349   2385181.68247  20926425.0684   20926423.3654
     -1811.8124
  -7355734.14648  -5721357.70944  22684450.3424   22684450.4324
       798.4694
 -13022481.59148 -10146147.48246  21668206.3504   21668203.1474
       958.2034
  -8704119.59149  -6776353.62547  19982840.0764   19982837.7874
      1097.2664
 -12840049.10349  -9985870.16545  21692657.0684   21692655.4594
      3436.7974
 04  9 10 22 31 44.9980000  0  7G 3G 8G13G10G19G27G28
   -517446.96448   -400595.64143  23076805.1864   23076804.2294
     -1425.1094
 -15541058.79049 -12094906.47148  20087233.3894   20087231.7724
      2266.6724
   3089957.97549   2406395.37247  20931605.1314   20931603.6114
     -1818.3284
  -7367642.60348  -5730637.01744  22682183.5844   22682184.0224
       789.0164
 -13036784.55649 -10157292.63946  21665484.7404   21665481.3304
       948.6094
  -8720552.48349  -6789158.47048  19979712.8034   19979710.6974
      1093.5634
 -12891566.89549 -10026013.86845  21682853.1074   21682851.8114
      3431.9534
 04  9 10 22 31 59.9980000  0  7G 3G 8G13G10G19G27G28
   -496017.32148   -383897.22143  23080882.4984   23080882.9394
     -1432.5314
 -15575033.53849 -12121380.29448  20080768.0844   20080766.6934
      2262.8444
   3117277.70149   2427683.45147  20936803.8184   20936802.6544
     -1824.7034
  -7379410.83348  -5739807.06144  22679944.8814   22679944.8264
       779.6414
 -13050946.04949 -10168327.57046  21662789.8114   21662786.0414
       939.2034
  -8736932.14849  -6801921.85047  19976595.7724   19976594.2724
      1089.9844
 -12943014.49949 -10066102.87546  21673063.0144   21673061.6894
      3427.3134
 04  9 10 22 32 14.9980000  0  7G 3G 8G13G10G19G27G28
   -474476.63647   -367112.30242  23084981.4674   23084981.4244
     -1439.2974
 -15608948.63849 -12147807.62648  20074314.2794   20074312.9594
      2259.3284
   3144694.33749   2449047.03446  20942021.1314   20942019.9394
     -1830.6874
  -7391037.25748  -5748866.61944  22677731.7174   22677731.7604
       770.6564
 -13064964.54748 -10179251.05846  21660122.1704   21660118.9434
       930.0474
  -8753256.72049  -6814642.29448  19973489.5534   19973487.8694
      1086.7664
 -12994390.11349 -10106135.78246  21663286.7014   21663284.9674
      3423.0004
 04  9 10 22 32 29.9980000  0  7G 3G 8G13G10G19G27G28
   -452825.57047   -350241.35343  23089101.5534   23089101.5064
     -1447.2814
 -15642804.35349 -12174188.69848  20067872.4124   20067870.2524
      2254.9064
   3172207.19849   2470485.60346  20947257.1154   20947255.5184
     -1837.5624
  -7402522.43248  -5757816.11244  22675546.8734   22675546.0534
       760.7664
 -13078840.33148 -10190063.36046  21657481.6394   21657478.6744
       920.0314
  -8769526.57249  -6827320.10848  19970393.5684   19970391.8694
      1082.6254
 -13045694.11549 -10146112.91545  21653523.6234   21653521.6974
      3417.6414
 04  9 10 22 32 44.9980000  0  7G 3G 8G13G10G19G27G28
   -431065.14747   -333285.19642  23093242.4674   23093242.6894
     -1454.1564
 -15676601.47949 -12200524.10448  20061440.2324   20061438.3854
      2251.3594
   3199815.50449   2491998.55846  20952510.5224   20952509.4044
     -1843.6094
  -7413867.16948  -5766656.15244  22673387.2724   22673387.2754
       751.7504
 -13092574.00349 -10200764.91346  21654867.8264   21654865.1664
       910.9534
  -8785742.34649  -6839955.77148  19967307.6074   19967305.9554
      1079.4534
 -13096927.00349 -10186034.59946  21643774.3974   21643772.9944
      3413.3444
 04  9 10 22 32 59.9980000  0  7G 3G 8G13G10G19G27G28
   -409195.90847   -316244.23342  23097403.7014   23097403.6154
     -1461.4374
 -15710340.08649 -12226813.92948  20055020.1314   20055018.6824
      2247.3284
   3227518.72749   2513585.45446  20957782.5684   20957780.8034
     -1849.9844
  -7425071.70248  -5775386.96044  22671255.9284   22671255.1934
       742.3594
 -13106165.70149 -10211355.84246  21652281.9284   21652278.5224
       901.4534
  -8801904.20249  -6852549.42648  19964232.2564   19964230.5334
      1075.7034
 -13148088.93849 -10225901.02345  21634038.3034   21634037.0144
      3408.5164
 04  9 10 22 33 14.9980000  0  7G 3G 8G13G10G19G27G28
   -387217.35247   -299118.08842  23101585.7254   23101586.0644
     -1469.1254
 -15744019.16449 -12253057.35148  20048611.1234   20048609.1474
      2242.9224
   3255317.44749   2535246.78246  20963072.1864   20963071.1974
     -1856.6724
  -7436135.34048  -5784007.97744  22669150.2174   22669150.1074
       732.6094
 -13119614.73348 -10221835.59546  21649722.4674   21649719.2754
       891.5474
  -8818011.24349  -6865100.36048  19961167.3574   19961165.4674
      1071.6724
 -13199179.05449 -10265711.46745  21624316.5144   21624314.6934
      3403.3594
 04  9 10 22 33 29.9980000  0  7G 3G 8G13G10G19G27G28
   -365127.94347   -281905.55943  23105789.5374   23105789.4164
     -1476.2034
 -15777636.76149 -12279252.86448  20042213.7014   20042212.0374
      2239.2664
   3283213.34449   2556983.82646  20968380.5844   20968379.3384
     -1862.8444
  -7447056.39848  -5792517.88444  22667072.2404   22667071.9394
       723.3594
 -13132919.25749 -10232202.74046  21647191.1074   21647187.5964
       882.2664
  -8834061.51049  -6877607.06048  19958112.5924   19958111.0574
      1068.2664
 -13250195.46749 -10305464.47245  21614608.4594   21614606.6934
      3398.7974
 04  9 10 22 33 44.9980000  0  7G 3G 8G13G10G19G27G28
   -342934.85447   -264612.29843  23110012.4514   23110013.2684
     -1483.3284
 -15811199.89849 -12305405.96148  20035827.3974   20035825.0064
      2235.5164
   3311199.14649   2578790.91046  20973706.1474   20973705.1314
     -1868.9374
  -7457841.90448  -5800922.19644  22665020.0224   22665020.0294
       714.3444
 -13146086.06349 -10242462.59646  21644685.1004   21644681.6624
       873.0314
  -8850061.94849  -6890074.94548  19955068.2094   19955066.6004
      1064.8134
 -13301144.94949 -10345165.35545  21604913.3504   21604911.2054
      3394.1724
 04  9 10 22 33 59.9980000  0  7G 3G 8G13G10G19G27G28
   -320634.15247   -247235.14843  23114256.9594   23114256.6864
     -1490.1414
 -15844704.07349 -12331513.09748  20029451.3894   20029449.7524
      2231.8594
   3339278.89849   2600671.20847  20979049.7874   20979048.0884
     -1874.8914
  -7468487.67548  -5809217.60044  22662993.7794   22662993.7564
       705.2504
 -13159110.90149 -10252611.81846  21642206.3424   21642203.3544
       863.8444
  -8866008.14049  -6902500.55248  19952033.8344   19952031.4364
      1061.4534
 -13352023.17349 -10384810.68646  21595231.0064   21595229.6894
      3389.7504
 04  9 10 22 34 14.9980000  0  7G 3G 8G13G10G19G27G28
   -298228.18447   -229775.94443  23118520.4754   23118520.4904
     -1496.8124
 -15878151.34249 -12357575.88348  20023086.4204   20023085.0924
      2228.3284
   3367450.38049   2622622.99646  20984410.4754   20984409.6194
     -1880.7664
  -7478995.84948  -5817405.78844  22660994.7324   22660994.1504
       696.4694
 -13171995.76549 -10262651.96146  21639754.4364   21639751.0964
       854.7814
  -8881902.17449  -6914885.50148  19949009.0294   19949007.4124
      1058.3444
 -13402832.24349 -10424402.13346  21585562.6004   21585560.9864
      3385.3594
 04  9 10 22 34 29.9980000  0  7G 3G 8G13G10G19G27G28
   -275718.15247   -212235.68443  23122804.0454   23122804.7214
     -1504.0474
 -15911542.26849 -12383594.78148  20016732.1474   20016730.9044
      2224.2194
   3395712.32749   2644645.27446  20989788.6004   20989787.1624
     -1887.1564
  -7489367.43148  -5825487.53944  22659020.4284   22659020.4594
       686.8754
 -13184741.61349 -10272583.78946  21637329.0454   21637325.5064
       844.9844
  -8897744.79949  -6927230.41548  19945994.4434   19945992.6864
      1054.4534
 -13453572.75649 -10463940.16546  21575907.2094   21575905.3934
      3380.4534
 04  9 10 22 34 44.9980000  0  7G 3G 8G13G10G19G27G28
   -253100.89247   -194611.85943  23127107.3894   23127107.4164
     -1511.3754
 -15944873.54049 -12409567.19548  20010389.6314   20010387.9794
      2220.0784
   3424068.14049   2666740.67547  20995184.4984   20995183.4394
     -1893.4844
  -7499599.13648  -5833460.30344  22657073.9204   22657073.6234
       677.4384
 -13197344.92049 -10282404.55746  21634930.5844   21634927.5684
       835.5164
  -8913532.55249  -6939532.55848  19942989.9674   19942988.1894
      1050.7344
 -13504241.26849 -10503422.09646  21566264.8734   21566263.1664
      3375.5004
 04  9 10 22 34 59.9980000  0  7G 3G 8G13G10G19G27G28
   -230378.77747   -176906.34242  23131430.8034   23131432.0644
     -1518.1094
 -15978147.24849 -12435494.74948  20004057.9124   20004056.4044
      2216.5474
   3452515.47749   2688907.40846  21000597.6544   21000596.6744
     -1899.2664
  -7509693.15548  -5841325.78044  22655152.5844   22655152.9944
       668.5944
 -13209807.77749 -10292115.86046  21632559.3264   21632556.2054
       826.4224
  -8929267.41449  -6951793.48948  19939995.9514   19939994.0104
      1047.5474
 -13554839.77849 -10542849.46946  21556636.5534   21556634.6584
      3371.1724
 04  9 10 22 35 14.9980000  0  7G 3G 8G13G10G19G27G28
   -207556.28047   -159122.55143  23135774.0294   23135775.2484
     -1524.9694
 -16011367.46249 -12461380.61748  19997736.1784   19997734.1784
      2212.7814
   3481049.82049   2711141.94446  21006027.8734   21006026.8464
     -1905.2034
  -7519653.80848  -5849087.33644  22653257.2014   22653257.1584
       659.4534
 -13222134.39249 -10301721.01046  21630213.5454   21630210.5104
       817.1094
  -8944953.52249  -6964016.43248  19937010.5064   19937008.7404
      1043.9534
 -13605372.40349 -10582225.51146  21547020.8034   21547018.6934
      3366.5314
 04  9 10 22 35 29.9980000  0  7G 3G 8G13G10G19G27G28
   -184628.93547   -141257.11143  23140137.5144   23140137.3264
     -1531.9374
 -16044529.51349 -12487221.16748  19991426.1074   19991424.0924
      2208.9534
   3509675.75548   2733447.85047  21011475.3894   21011473.9594
     -1911.3594
  -7529476.45048  -5856741.32744  22651387.9364   22651388.6894
       650.3594
 -13234320.01849 -10311216.29446  21627894.7724   21627891.7324
       807.7344
  -8960586.04149  -6976197.61148  19934036.2254   19934034.1434
      1040.4064
 -13655834.39349 -10621546.51245  21537417.7094   21537416.0684
      3361.8284
 04  9 10 22 35 44.9980000  0  7G 3G 8G13G10G19G27G28
   -161593.98746   -123307.80843  23144520.6074   23144521.1474
     -1538.7344
 -16077630.24449 -12513013.93548  19985126.6704   19985125.3814
      2205.2664
   3538395.97549   2755827.21147  21016940.5844   21016939.3574
     -1917.2504
  -7539158.00548  -5864285.38944  22649545.6314   22649545.8974
       641.2504
 -13246361.54749 -10320599.29946  21625603.2014   21625600.1194
       798.5314
  -8976161.74649  -6988334.52948  19931071.9204   19931070.3734
      1037.0944
 -13706222.45549 -10660809.90546  21527829.1314   21527827.3344
      3357.2974
 04  9 10 22 35 59.9980000  0  7G 3G 8G13G10G19G27G28
   -138458.18947   -105279.95743  23148924.1784   23148923.6664
     -1546.2344
 -16110675.93149 -12538763.82348  19978838.6934   19978836.9364
      2200.7974
   3567204.01049   2778275.01647  21022422.7254   21022420.9474
     -1923.8124
  -7548705.11748  -5871724.71644  22647728.8734   22647729.2214
       631.6414
 -13258265.35849 -10329875.01146  21623338.1474   21623334.6154
       788.6254
  -8991687.13149  -7000432.24148  19928117.8894   19928116.0644
      1033.0314
 -13756542.90249 -10700020.61246  21518253.2404   21518251.3974
      3352.0314
 04  9 10 22 36 14.9980000  0  7G 3G 8G13G10G19G27G28
   -115218.50947    -87171.13143  23153345.3734   23153346.2724
     -1552.5474
 -16143662.72249 -12564467.81948  19972561.3504   19972559.5374
      2197.2664
   3596102.86649   2800793.57846  21027921.5454   21027920.2364
     -1929.5314
  -7558114.52448  -5879056.72744  22645938.3344   22645938.7644
       622.7664
 -13270028.03549 -10339040.73146  21621099.8184   21621096.5964
       779.5634
  -9007158.74249  -7012488.04248  19925173.4824   19925172.1044
      1029.7664
 -13806792.45649 -10739176.08346  21508691.5064   21508689.8144
      3347.6884
 04  9 10 22 36 29.9980000  0  7G 3G 8G13G10G19G27G28
    -91878.21147    -68983.85043  23157787.2954   23157787.4944
     -1559.3754
 -16176593.93049 -12590128.48648  19966295.0144   19966293.2524
      2193.5474
   3625089.28049   2823380.36946  21033437.4674   21033435.9714
     -1935.4374
  -7567389.50348  -5886283.99444  22644173.3184   22644173.3464
       613.8444
 -13281652.70649 -10348098.91046  21618887.8424   21618884.2994
       770.2974
  -9022579.48149  -7024504.19648  19922239.1474   19922237.7874
      1026.3444
 -13856974.08049 -10778278.61546  21499142.5684   21499140.2524
      3343.1414
 04  9 10 22 36 44.9980000  0  7G 3G 8G13G10G19G27G28
    -68433.33547    -50715.14243  23162248.2644   23162248.8974
     -1566.2194
 -16209465.18449 -12615742.45348  19960039.6544   19960037.9864
      2189.7194
   3654167.46549   2846038.68146  21038971.0224   21038969.9394
     -1941.2974
  -7576525.79248  -5893403.16244  22642435.2014   22642434.8264
       604.7664
 -13293135.07849 -10357046.21746  21616702.7484   21616699.3224
       760.9694
  -9037944.99549  -7036477.33247  19919314.9594   19919313.5764
      1022.7504
 -13907083.23849 -10817324.68146  21489606.7404   21489605.0534
      3338.4224
 04  9 10 22 36 59.9980000  0  7G 3G 8G13G10G19G27G28
    -44887.36147    -32367.65843  23166729.7094   23166729.1314
     -1573.1414
 -16242279.51249 -12641312.04448  19953795.0454   19953793.4204
      2185.6564
   3683333.71748   2868765.60646  21044521.2794   21044519.8464
     -1947.4064
  -7585526.81548  -5900416.94844  22640722.2404   22640721.9394
       595.4844
 -13304478.30249 -10365885.08346  21614543.8654   21614540.9284
       751.5164
  -9053258.44048  -7048409.88748  19916401.0844   19916399.3384
      1019.0784
 -13957123.14549 -10856316.80146  21480084.2564   21480082.3814
      3333.5634
 04  9 10 22 37 14.9980000  0  7G 3G 8G13G10G19G27G28
    -21238.81047    -13940.21643  23171230.3974   23171229.8894
     -1579.9534
 -16275035.14049 -12666835.90048  19947562.0064   19947559.9474
      2181.8284
   3712589.66948   2891562.42746  21050088.7174   21050087.1004
     -1953.2344
  -7594390.76548  -5907323.92243  22639035.6474   22639035.3934
       586.4384
 -13315680.58749 -10374614.13646  21612412.4824   21612408.8544
       742.1724
  -9068517.89048  -7060300.35148  19913497.2564   19913495.7364
      1015.5944
 -14007091.83149 -10895253.39946  21470575.7014   21470573.8614
      3328.8914
 04  9 10 22 37 29.9980000  0  7G 3G 8G13G10G19G27G28
      2509.45147      4564.92843  23175749.4284   23175749.3144
     -1586.4224
 -16307734.57749 -12692315.97748  19941339.4124   19941338.0764
      2178.2194
   3741932.60749   2914427.03746  21055672.5374   21055670.9674
     -1959.0004
  -7603120.45948  -5914126.28744  22637373.9594   22637374.1434
       577.6414
 -13326744.57549 -10383235.43446  21610306.9514   21610303.8614
       733.1254
  -9083725.98649  -7072150.82648  19910603.4044   19910601.7994
      1012.2814
 -14056991.89449 -10934136.53346  21461079.6934   21461078.4944
      3324.4844
 04  9 10 22 37 44.9980000  0  7G 3G 8G13G10G19G27G28
     26355.49947     23146.21343  23180286.1784   23180286.9594
     -1592.8284
 -16340379.42349 -12717753.52548  19935127.5294   19935126.0884
      2174.7194
   3771360.58549   2937357.90146  21061272.6004   21061271.0334
     -1964.4844
  -7611717.69848  -5920825.43644  22635738.3424   22635738.5184
       569.0004
 -13337671.80649 -10391750.15246  21608227.7174   21608224.0574
       724.1254
  -9098884.13649  -7083962.38248  19907718.8574   19907716.8424
      1009.1724
 -14106824.84749 -10972967.37546  21451596.7724   21451595.3574
      3320.2504
 04  9 10 22 37 59.9980000  0  7G 3G 8G13G10G19G27G28
     50299.90447     41804.19443  23184843.1544   23184843.0574
     -1599.5944
 -16372968.31849 -12743147.44848  19928926.0844   19928924.9324
      2170.6564
   3800874.44249   2960355.70146  21066888.5844   21066887.6004
     -1970.4534
  -7620181.57148  -5927420.65244  22634127.1004   22634127.3694
       559.7664
 -13348461.34849 -10400157.58346  21606174.4594   21606171.1704
       714.6724
  -9113991.35949  -7095734.23648  19904844.1544   19904842.6624
      1005.4224
 -14156589.63849 -11011745.10746  21442127.1154   21442124.8934
      3315.2814
 04  9 10 22 38 14.9980000  0  7G 3G 8G13G10G19G27G28
     74346.08247     60541.46443  23189419.1004   23189419.4944
     -1606.5624
 -16405497.60549 -12768494.94048  19922735.8734   19922734.1154
      2166.5314
   3830477.64149   2983423.09646  21072521.9364   21072520.8854
     -1976.6414
  -7628508.43148  -5933909.13444  22632543.0534   22632543.2684
       550.3914
 -13359109.45549 -10408454.80846  21604148.7484   21604144.8654
       704.9694
  -9129043.91349  -7107463.50348  19901979.7094   19901977.5964
      1001.5164
 -14206282.51849 -11050466.80446  21432671.0064   21432669.0644
      3310.3594
 04  9 10 22 38 29.9980000  0  7G 3G 8G13G10G19G27G28
     98491.43347     79356.00943  23194013.0534   23194013.8854
     -1612.6724
 -16437969.73749 -12793797.89548  19916556.6934   19916555.0454
      2163.1884
   3860167.54849   3006558.07246  21078171.8424   21078170.8544
     -1981.9374
  -7636700.77348  -5940292.76444  22630984.1784   22630984.1504
       542.0004
 -13369618.50548 -10416643.67946  21602148.2094   21602144.8974
       696.2664
  -9144043.91949  -7119151.82047  19899125.1004   19899123.3144
       998.5634
 -14255905.79449 -11089134.26546  21423227.2404   21423225.8074
      3306.2034
 04  9 10 22 38 44.9980000  0  7G 3G 8G13G10G19G27G28
    122738.79247     98250.03343  23198628.3184   23198628.3464
     -1619.6564
 -16470381.10149 -12819053.49348  19910388.8184   19910387.0224
      2158.9534
   3889947.10749   3029762.89946  21083838.4904   21083837.7364
     -1988.0784
  -7644755.47148  -5946569.15144  22629451.3574   22629451.2364
       532.6414
 -13379985.29549 -10424721.69346  21600175.4044   21600172.1074
       686.5944
  -9158988.27649  -7130796.75948  19896281.0374   19896279.4474
       994.6414
 -14305456.04249 -11127744.80946  21413798.3264   21413796.7174
      3301.1414
 04  9 10 22 38 59.9980000  0  7G 3G 8G13G10G19G27G28
    147083.99947    117220.30843  23203260.9674   23203260.5764
     -1626.4694
 -16502735.66349 -12844264.83848  19904231.9824   19904230.2324
      2154.9064
   3919812.23149   3053034.39246  21089522.0374   21089520.4514
     -1993.9694
  -7652676.52948  -5952741.43744  22627943.8264   22627943.9594
       523.4694
 -13390213.72549 -10432691.89746  21598229.4754   21598226.1194
       677.1414
  -9173880.56649  -7142401.15648  19893447.3894   19893445.7214
       990.9384
 -14354936.99649 -11166301.38046  21404382.7014   21404381.2484
      3296.2344
 04  9 10 22 39 14.9970000  0  7G 3G 8G13G10G19G27G28
    171526.50447    136266.40643  23207911.6574   23207912.4504
     -1633.6414
 -16535029.95249 -12869429.21648  19898086.3844   19898085.2674
      2150.4224
   3949761.97649   3076371.83346  21095220.8294   21095219.3884
     -2000.2974
  -7660462.24548  -5958808.21743  22626461.6814   22626462.3024
       513.8594
 -13400301.69949 -10440552.66546  21596309.4934   21596306.3214
       667.2034
  -9188718.52349  -7153963.19648  19890623.7514   19890622.4074
       986.7814
 -14404344.15149 -11204800.43446  21394980.6104   21394978.9854
      3290.9694
 04  9 10 22 39 29.9970000  0  7G 3G 8G13G10G19G27G28
    196072.40547    155393.05843  23212583.2284   23212583.0444
     -1639.3124
 -16567264.91149 -12894547.35448  19891952.5244   19891950.4424
      2147.4064
   3979803.24549   3099780.59346  21100937.8294   21100936.7904
     -2005.2814
  -7668110.77748  -5964768.10144  22625006.5404   22625006.8564
       505.7814
 -13410247.45449 -10448302.59746  21594416.9234   21594413.5834
       658.7344
  -9203500.91249  -7165481.93348  19887810.7434   19887809.0564
       984.0634
 -14453680.76449 -11243244.51446  21385592.2204   21385590.7904
      3287.0634
 04  9 10 22 39 44.9970000  0  7G 3G 8G13G10G19G27G28
    220714.74747    174594.89943  23217272.0484   23217272.6774
     -1646.3754
 -16599443.58249 -12919621.64248  19885829.0714   19885827.3374
      2143.0474
   4009928.87549   3123255.08546  21106670.4384   21106669.2904
     -2011.4534
  -7675626.62048  -5970624.61944  22623576.9624   22623576.7784
       496.3134
 -13420055.43549 -10455945.17746  21592550.7904   21592547.3684
       648.9534
  -9218231.69749  -7176960.48048  19885007.8994   19885005.9234
       979.9694
 -14502948.55649 -11281634.97346  21376216.6814   21376215.3604
      3281.9694
 04  9 10 22 39 59.9970000  0  7G 3G 8G13G10G19G27G28
    245457.65946    193875.07542  23221980.4784   23221980.2784
     -1652.8594
 -16631561.02049 -12944648.20548  19879717.1814   19879715.7244
      2139.1724
   4040142.97949   3146798.51946  21112419.9154   21112419.1924
     -2017.1094
  -7683005.50548  -5976374.41143  22622172.0484   22622172.3844
       487.3754
 -13429721.21149 -10463476.95446  21590711.2204   21590707.9314
       639.6254
  -9232906.33749  -7188395.25548  19882215.2904   19882213.6064
       976.5784
 -14552142.92549 -11319968.22146  21366855.1964   21366853.8134
      3277.2504
 04  9 10 22 40 14.9970000  0  7G 3G 8G13G10G19G27G28
    270300.43746    213233.05642  23226707.5794   23226707.3644
     -1659.4224
 -16663617.80449 -12969627.51348  19873616.9234   19873615.3534
      2135.2194
   4070444.88349   3170410.36346  21118186.1424   21118185.1854
     -2022.9534
  -7690248.07948  -5982017.97344  22620794.2514   22620794.4274
       478.4224
 -13439245.27449 -10470898.29246  21588898.7124   21588895.4744
       630.2974
  -9247525.22449  -7199786.59148  19879433.3374   19879431.6144
       972.7974
 -14601264.29349 -11358244.58246  21357508.0484   21357506.4074
      3272.4224
 04  9 10 22 40 29.9970000  0  7G 3G 8G13G10G19G27G28
    295242.96747    232668.75943  23231454.7594   23231454.8644
     -1666.2814
 -16695613.49049 -12994559.20248  19867528.7204   19867526.4934
      2130.9224
   4100834.64649   3194090.67346  21123969.5174   21123968.7824
     -2029.0944
  -7697354.14948  -5987555.17244  22619442.0714   22619441.8764
       469.0784
 -13448627.24749 -10478208.91546  21587113.6264   21587109.8454
       620.6724
  -9262087.98049  -7211134.18748  19876662.0174   19876660.4194
       968.9384
 -14650312.28849 -11396463.76446  21348174.1494   21348173.1184
      3267.2814
 04  9 10 22 40 44.9970000  0  7G 3G 8G13G10G19G27G28
    320282.66846    252180.23142  23236219.3924   23236219.7944
     -1672.1564
 -16727550.19549 -13019444.95248  19861451.1734   19861449.0364
      2127.4224
   4131309.73549   3217837.47046  21129768.6814   21129767.6264
     -2034.2814
  -7704326.24948  -5992987.97844  22618115.6884   22618115.3214
       460.7034
 -13457869.49049 -10485410.65946  21585354.9704   21585351.2744
       611.8134
  -9276596.79949  -7222439.77048  19873901.1734   19873899.4424
       965.7344
 -14699289.20349 -11434627.56846  21338854.1574   21338852.7554
      3263.0314
 04  9 10 22 40 59.9970000  0  7G 3G 8G13G10G19G27G28
    345425.11446    271771.69642  23241003.9384   23241003.6494
     -1679.2344
 -16759422.25749 -13044280.31748  19855385.8214   19855384.6734
      2123.0164
   4161875.66649   3241655.06946  21135584.9314   21135583.7004
     -2040.2814
  -7711158.67548  -5998311.94744  22616815.0324   22616814.7744
       451.2504
 -13466966.20749 -10492499.00946  21583623.4234   21583620.1034
       601.9534
  -9291045.77649  -7233698.71548  19871151.9074   19871150.5954
       961.5944
 -14748189.11049 -11472731.36346  21329549.2514   21329547.5674
      3257.7814
 04  9 10 22 41 14.9970000  0  7G 3G 8G13G10G19G27G28
    370672.11847    291444.65742  23245808.0014   23245808.1384
     -1686.2974
 -16791227.23349 -13069063.40348  19849333.9314   19849332.0054
      2118.3754
   4192534.54749   3265545.06846  21141419.1574   21141418.0284
     -2046.7194
  -7717849.29248  -6003525.42344  22615542.3924   22615542.4584
       441.5634
 -13475915.12649 -10499472.18546  21581920.0874   21581917.4704
       591.9064
  -9305432.63649  -7244909.25248  19868413.7434   19868412.2004
       957.2344
 -14797009.65249 -11510773.32046  21320258.7674   21320256.9934
      3252.2664
 04  9 10 22 41 29.9970000  0  7G 3G 8G13G10G19G27G28
    396018.13346    311194.82042  23250631.4544   23250630.9854
     -1693.1874
 -16822970.44349 -13093798.37448  19843293.4384   19843291.4624
      2114.0004
   4223280.60949   3289503.00846  21147270.1494   21147269.0634
     -2052.7974
  -7724403.58248  -6008632.66944  22614295.0174   22614294.5524
       432.2974
 -13484721.61549 -10506334.39246  21580245.4704   21580241.7674
       582.1564
  -9319762.53749  -7256075.42148  19865687.1184   19865685.2904
       953.2504
 -14845756.11749 -11548757.56346  21310982.4544   21310981.2044
      3247.1564
 04  9 10 22 41 44.9970000  0  7G 3G 8G13G10G19G27G28
    421464.05146    331022.78142  23255473.3454   23255473.2244
     -1699.4064
 -16854650.46049 -13118484.08548  19837264.6494   19837263.3844
      2110.1094
   4254115.01949   3313529.79946  21153137.8374   21153136.4894
     -2058.3284
  -7730820.39148  -6013632.78244  22613073.4624   22613073.8564
       423.4224
 -13493384.40449 -10513084.60146  21578596.3374   21578593.5284
       573.0004
  -9334034.27149  -7267196.24148  19862971.3534   19862969.3644
       949.7974
 -14894427.01549 -11586682.89546  21301720.5714   21301719.1304
      3242.5164
 04  9 10 22 41 59.9970000  0  7G 3G 8G13G10G19G27G28
    447008.38846    350927.45642  23260334.2204   23260334.3414
     -1705.9224
 -16886268.43949 -13143121.46448  19831247.8764   19831246.3724
      2106.1414
   4285036.24449   3337624.24546  21159021.5874   21159020.6384
     -2063.9534
  -7737101.28348  -6018526.98444  22611877.6104   22611878.8024
       414.5634
 -13501904.83949 -10519723.90646  21576974.9234   21576972.0054
       563.6414
  -9348248.96349  -7278272.62448  19860266.2984   19860264.6814
       946.0314
 -14943023.68049 -11624550.40446  21292473.0174   21292471.4464
      3237.6414
 04  9 10 22 42 14.9970000  0  7G 3G 8G13G10G19G27G28
    472653.58446    370910.71942  23265214.1034   23265214.1734
     -1713.1254
 -16917821.50849 -13167708.27348  19825243.7904   19825242.3684
      2101.3284
   4316046.79949   3361788.28446  21164923.0404   21164921.7434
     -2070.3754
  -7743243.39148  -6023313.05544  22610709.2354   22610710.1494
       404.7664
 -13510280.15248 -10526250.11346  21575381.4934   21575377.5604
       553.3284
  -9362403.64849  -7289302.25048  19857572.6654   19857571.0794
       941.5314
 -14991543.22149 -11662357.80546  21283240.5634   21283238.4114
      3231.9844
 04  9 10 22 42 29.9970000  0  7G 3G 8G13G10G19G27G28
    498401.58647    390974.05442  23270114.4934   23270114.5674
     -1719.2664
 -16949307.07749 -13192242.47948  19819252.0324   19819250.5634
      2097.4384
   4347148.80649   3386023.59146  21170841.5244   21170840.3994
     -2075.8284
  -7749244.58748  -6027989.32144  22609567.8684   22609568.1574
       396.0164
 -13518508.06549 -10532661.47546  21573815.4464   21573812.2634
       544.2814
  -9376496.00849  -7300283.30648  19854890.9154   19854888.9974
       938.1094
 -15039983.30749 -11700103.30346  21274022.4314   21274020.6344
      3227.3134
 04  9 10 22 42 44.9970000  0  7G 3G 8G13G10G19G27G28
    524243.22346    411110.37142  23275031.3534   23275032.6264
     -1726.5164
 -16980734.01249 -13216730.98748  19813271.3924   19813270.4274
      2092.6564
   4378333.00749   3410322.95146  21176775.4784   21176774.4034
     -2082.2504
  -7755114.11348  -6032562.97144  22608450.3454   22608451.1654
       386.3444
 -13526597.56749 -10538964.97546  21572276.3294   21572272.7084
       534.1254
  -9390534.87949  -7311222.68848  19852219.6344   19852217.0714
       933.4844
 -15088352.84449 -11737793.81946  21264817.8214   21264816.4424
      3221.6724
 04  9 10 22 42 59.9970000  0  7G 3G 8G13G10G19G27G28
    550182.92346    431323.12542  23279967.3214   23279968.4544
     -1732.6724
 -17012097.89849 -13241170.37848  19807303.4154   19807301.8534
      2088.7344
   4409603.96949   3434689.91346  21182726.5794   21182725.4744
     -2087.5944
  -7760847.33548  -6037030.43544  22607360.0794   22607360.2514
       377.6884
 -13534543.90249 -10545156.92846  21570764.2674   21570761.1464
       525.0004
  -9404515.38249  -7322116.59448  19849559.3294   19849557.6144
       930.0634
 -15136646.92349 -11775425.54746  21255627.8374   21255626.2824
      3217.0944
 04  9 10 22 43 14.9970000  0  7G 3G 8G13G10G19G27G28
    576224.91745    451615.57442  23284923.1884   23284923.8064
     -1739.4374
 -17043393.77649 -13265556.77448  19801347.8924   19801345.8684
      2084.0784
   4440966.09049   3459127.88846  21188693.9074   21188693.2744
     -2093.9224
  -7766439.75448  -6041388.17044  22606295.5174   22606296.1734
       368.1414
 -13542342.46749 -10551233.73046  21569280.1734   21569276.7594
       514.9224
  -9418432.92049  -7332961.42848  19846910.9624   19846908.7824
       925.6254
 -15184860.78449 -11812994.76146  21246453.0174   21246451.6104
      3211.5164
 04  9 10 22 43 29.9970000  0  7G 3G 8G13G10G19G27G28
    602362.14846    471982.18642  23289896.6344   23289897.0954
     -1745.5624
 -17074628.36949 -13289895.41748  19795404.4784   19795402.6884
      2080.2344
   4472412.24549   3483631.35746  21194678.5014   21194677.0134
     -2099.2814
  -7771898.38148  -6045641.65844  22605256.5244   22605257.1184
       359.3754
 -13550000.04149 -10557200.66546  21567822.8374   21567819.7004
       505.7814
  -9432294.28249  -7343762.49448  19844273.0714   19844271.3254
       922.1884
 -15233001.24249 -11850506.78746  21237292.3064   21237290.2784
      3206.8914
 04  9 10 22 43 44.9970000  0  7G 3G 8G13G10G19G27G28
    628595.63846    492423.84442  23294889.8604   23294889.3494
     -1752.2034
 -17105800.39549 -13314185.29048  19789472.4154   19789470.8644
      2076.0164
   4503943.47049   3508201.12846  21200678.8994   21200677.9354
     -2104.8754
  -7777222.02348  -6049789.95544  22604243.4704   22604243.9314
       350.3754
 -13557515.45749 -10563056.81946  21566392.9234   21566389.8604
       496.2504
  -9446097.95149  -7354518.59048  19841646.1574   19841644.6654
       918.3284
 -15281066.89749 -11887960.50946  21228145.2824   21228143.5794
      3201.8134
 04  9 10 22 43 59.9970000  0  7G 3G 8G13G10G19G27G28
    654929.27446    512943.54142  23299900.5014   23299900.7314
     -1758.8914
 -17136905.35149 -13338422.91848  19783553.4464   19783552.1774
      2071.4064
   4535563.75649   3532840.28846  21206695.4624   21206695.0754
     -2111.0004
  -7782406.64848  -6053829.92344  22603256.9934   22603257.5134
       340.9844
 -13564884.53548 -10568798.94946  21564990.2824   21564987.3134
       486.3914
  -9459839.61749  -7365226.38248  19839030.8994   19839029.3804
       914.0474
 -15329053.44949 -11925352.60246  21219013.6574   21219012.0404
      3196.4384
 04  9 10 22 44 14.9970000  0  7G 3G 8G13G10G19G27G28
    681354.76346    533534.81042  23304929.0404   23304929.0754
     -1764.8444
 -17167951.09849 -13362614.40548  19777645.5244   19777643.4934
      2067.5944
   4567264.84348   3557542.39546  21212727.9704   21212727.0484
     -2116.2194
  -7787460.30848  -6057767.86344  22602295.8134   22602295.8804
       332.4694
 -13572115.15448 -10574433.19146  21563614.6264   21563611.3604
       477.3134
  -9473527.32449  -7375892.12948  19836426.7674   19836425.1224
       910.6564
 -15376968.83449 -11962689.23146  21209895.9314   21209894.1424
      3191.9224
 04  9 10 22 44 29.9970000  0  6G 8G13G10G19G27G28
 -17198933.07549 -13386756.18748  19771749.9234   19771748.5634
      2063.5634
   4599051.10048   3582310.89446  21218777.1424   21218775.6884
     -2121.7344
  -7792378.56948  -6061600.26344  22601358.8134   22601360.6344
       323.5634
 -13579202.81049 -10579956.02446  21562265.6344   21562262.4384
       467.8754
  -9487156.21149  -7386512.03448  19833832.8924   19833831.3604
       906.8444
 -15424808.39049 -11999966.77546  21200792.3604   21200790.4894
      3186.9844
 04  9 10 22 44 44.9970000  0  6G 8G13G10G19G27G28
 -17229847.75749 -13410845.55448  19765867.0484   19765865.4194
      2058.5474
   4630925.87249   3607148.34646  21224842.6494   21224841.5014
     -2128.0784
  -7797158.22048  -6065324.68644  22600449.9314   22600450.2044
       313.8594
 -13586144.14349 -10585364.85846  21560944.9854   21560942.0014
       457.7194
  -9500722.81949  -7397083.43348  19831251.6264   19831249.5994
       902.1884
 -15472568.63149 -12037182.53346  21191704.0174   21191701.7394
      3181.2664
 04  9 10 22 44 59.9970000  0  6G 8G13G10G19G27G28
 -17260697.28749 -13434884.14548  19759996.6654   19759994.9664
      2054.6254
   4662886.21749   3632052.47346  21230924.7514   21230923.1654
     -2133.4534
  -7801801.95547  -6068943.17344  22599565.7824   22599566.9854
       305.1564
 -13592941.64149 -10590661.60446  21559651.1964   21559647.9194
       448.4844
  -9514229.63049  -7407608.22048  19828681.1814   19828679.7204
       898.5314
 -15520252.02249 -12074338.40046  21182630.1654   21182628.4744
      3176.4224
 04  9 10 22 45 14.9970000  0  6G 8G13G10G19G27G28
 -17291480.60749 -13458871.13548  19754138.3534   19754137.0284
      2050.1724
   4694933.06748   3657024.03946  21237023.4784   21237022.0364
     -2139.1564
  -7806308.70648  -6072454.93644  22598708.8604   22598708.9854
       296.0474
 -13599594.26449 -10595845.45646  21558384.7354   21558381.8564
       438.7814
  -9527675.27649  -7418085.33648  19826122.6344   19826120.6384
       894.4844
 -15567857.19249 -12111433.29946  21173571.0404   21173569.3844
      3171.2194
 04  9 10 22 45 29.9970000  0  6G 8G13G10G19G27G28
 -17322197.67249 -13482806.50448  19748293.2514   19748291.3724
      2045.8594
   4727066.38849   3682062.95946  21243137.3994   21243136.4814
     -2144.8124
  -7810678.50048  -6075859.98744  22597877.1034   22597877.6734
       287.0164
 -13606101.89649 -10600916.33146  21557147.0244   21557143.8254
       429.2034
  -9541059.53549  -7428514.62948  19823575.6034   19823574.1614
       890.5004
 -15615383.97649 -12148467.13346  21164527.0404   21164525.3254
      3166.0944
 04  9 10 22 45 44.9970000  0  6G 8G13G10G19G27G28
 -17352847.30149 -13506689.33948  19742461.0954   19742459.2984
      2040.9224
   4759286.77748   3707169.71846  21249269.0794   21249267.4934
     -2151.0004
  -7814910.59948  -6079157.73344  22597071.8214   22597072.1184
       277.4224
 -13612463.66749 -10605873.54946  21555936.3214   21555932.9854
       419.1884
  -9554381.45349  -7438895.35948  19821040.5014   19821038.5754
       885.9534
 -15662831.46849 -12185439.18046  21155498.1034   21155496.5444
      3160.3754
 04  9 10 22 45 59.9970000  0  6G 8G13G10G19G27G28
 -17383436.15649 -13530524.79048  19736640.2434   19736638.5484
      2036.7814
   4791587.21848   3732338.87946  21255415.6814   21255414.7904
     -2156.5004
  -7819011.99247  -6082353.63144  22596291.2514   22596291.7434
       268.5784
 -13618686.35349 -10610722.38946  21554751.9854   21554748.4624
       409.7504
  -9567647.77949  -7449232.75148  19818516.1574   19818514.0214
       882.0314
 -15710206.28549 -12222354.59346  21146482.8924   21146481.1184
      3155.3914
 04  9 10 22 46 14.9970000  0  6G 8G13G10G19G27G28
 -17413957.04049 -13554307.29548  19730832.1574   19730830.7124
      2032.2974
   4823974.46448   3757575.66546  21261578.8764   21261577.7314
     -2162.1874
  -7822975.86948  -6085442.36244  22595537.0404   22595537.5174
       259.5004
 -13624762.84448 -10615457.30746  21553595.2434   21553592.3064
       400.1254
  -9580851.28149  -7459521.19547  19816003.6184   19816001.6384
       878.0314
 -15757501.35749 -12259207.86546  21137482.7044   21137480.6494
      3150.2664
 04  9 10 22 46 29.9970000  0  6G 8G13G10G19G27G28
 -17444415.67449 -13578041.29348  19725036.0484   19725034.4034
      2028.1094
   4856442.57149   3782875.46646  21267756.8604   21267756.3604
     -2167.5944
  -7826808.12548  -6088428.55044  22594808.1104   22594808.0054
       250.6564
 -13630699.16449 -10620083.01046  21552466.2674   21552462.9274
       390.6564
  -9593997.79349  -7469765.22748  19813501.9544   19813500.1224
       874.1414
 -15804722.40649 -12296003.47046  21128497.0014   21128494.8804
      3145.1884
 04  9 10 22 46 44.9970000  0  6G 8G13G10G19G27G28
 -17474806.99649 -13601722.83148  19719252.7744   19719250.8534
      2023.9224
   4888996.29248   3808241.98646  21273952.0794   21273950.8924
     -2173.0314
  -7830503.99948  -6091308.44844  22594104.8534   22594105.3644
       241.9534
 -13636490.22749 -10624595.50646  21551363.9154   21551360.8844
       381.2664
  -9607082.04649  -7479960.74548  19811011.9384   19811010.2004
       870.3134
 -15851864.38949 -12332737.44446  21119526.1104   21119524.2634
      3140.2344
 04  9 10 22 46 59.9970000  0  6G 8G13G10G19G27G28
 -17505130.60549 -13625351.61848  19713482.5014   19713481.0174
      2019.2974
   4921635.46949   3833675.08046  21280162.9784   21280162.1534
     -2178.7814
  -7834063.45948  -6094082.06044  22593427.3764   22593427.4074
       232.7664
 -13642135.97449 -10628994.78246  21550289.8684   21550286.8414
       371.5314
  -9620103.90749  -7490107.66148  19808534.0954   19808532.3254
       866.0004
 -15898926.97249 -12369409.56346  21110570.4544   21110568.4384
      3134.8444
 04  9 10 22 47 14.9970000  0  6G 8G13G10G19G27G28
 -17535391.12149 -13648931.22848  19707724.0404   19707722.3534
      2015.4694
   4954355.15648   3859170.91446  21286389.7124   21286388.1264
     -2183.7814
  -7837491.27647  -6096753.09444  22592774.3294   22592775.7354
       224.3284
 -13647641.18949 -10633284.54846  21549242.1184   21549238.6384
       362.5634
  -9633067.87449  -7500209.45348  19806067.1034   19806065.2554
       862.5474
 -15945914.92449 -12406023.52946  21101628.4384   21101626.9744
      3130.2344
 04  9 10 22 47 29.9970000  0  6G 8G13G10G19G27G28
 -17565582.21249 -13672456.74548  19701979.0404   19701977.5014
      2010.5634
   4987161.51448   3884734.29146  21292632.1424   21292631.1924
     -2189.8914
  -7840781.38048  -6099316.80444  22592149.5174   22592149.3644
       214.9534
 -13652999.51649 -10637459.86346  21548222.7514   21548218.9894
       352.5314
  -9645967.59549  -7510261.17748  19803612.1884   19803611.0174
       857.9534
 -15992821.68849 -12442574.21146  21092702.9384   21092701.1384
      3124.5634
 04  9 10 22 47 44.9970000  0  6G 8G13G10G19G27G28
 -17595710.37049 -13695933.22448  19696245.7434   19696244.0444
      2006.5164
   5020047.49948   3910359.69846  21298889.9544   21298888.8134
     -2194.9694
  -7843940.58748  -6101778.54044  22591547.6494   22591547.8134
       206.3284
 -13658217.71249 -10641525.99046  21547229.4624   21547226.0794
       343.3134
  -9658809.71249  -7520268.03048  19801168.5094   19801167.0754
       854.2664
 -16039654.07249 -12479066.96646  21083790.7514   21083789.1384
      3119.6884
 04  9 10 22 47 59.9970000  0  6G 8G13G10G19G27G28
 -17625774.50549 -13719359.83048  19690524.7124   19690523.3174
      2002.0004
   5053014.05248   3936047.89046  21305164.0244   21305162.8104
     -2200.6094
  -7846967.95448  -6104137.53444  22590971.5634   22590971.9034
       197.3284
 -13663294.70649 -10645482.07146  21546263.5874   21546259.8884
       333.6254
  -9671592.94249  -7530228.99548  19798736.3454   19798734.5364
       850.1414
 -16086410.76949 -12515500.73646  21074893.4464   21074891.2244
      3114.4384
 04  9 10 22 48 14.9970000  0  6G 8G13G10G19G27G28
 -17655773.05449 -13742735.30748  19684816.1814   19684814.6264
      1997.9534
   5086062.30648   3961799.74746  21311452.2124   21311451.3684
     -2205.6414
  -7849862.28448  -6106392.87044  22590420.4314   22590421.4784
       188.8914
 -13668229.10649 -10649327.06246  21545324.3454   21545320.9114
       324.5004
  -9684315.96049  -7540143.03148  19796314.8454   19796312.9354
       846.5314
 -16133090.28949 -12551874.36246  21066010.2044   21066008.5994
      3109.6414
 04  9 10 22 48 29.9970000  0  6G 8G13G10G19G27G28
 -17685702.02649 -13766056.57548  19679120.9234   19679119.1964
      1993.4694
   5119195.91848   3987618.13846  21317757.7904   21317757.0324
     -2211.3124
  -7852619.90247  -6108541.66243  22589896.3684   22589896.4194
       179.7974
 -13673017.22348 -10653058.04946  21544413.1964   21544410.1344
       314.8594
  -9696974.57749  -7550006.87648  19793906.1184   19793904.0714
       842.2974
 -16179688.57149 -12588184.67646  21057143.0714   21057141.4584
      3104.3284
 04  9 10 22 48 44.9970000  0  6G 8G13G10G19G27G28
 -17715566.58949 -13789327.65448  19673437.8604   19673436.0014
      1988.6724
   5152409.29448   4013498.65246  21324077.7354   21324076.9784
     -2217.1414
  -7855246.22947  -6110588.14744  22589397.3374   22589397.4074
       170.5004
 -13677664.30449 -10656679.14046  21543528.9854   21543525.9974
       304.9534
  -9709574.04349  -7559824.64948  19791508.4384   19791506.5484
       837.8444
 -16226211.09649 -12624435.96846  21048289.9704   21048288.3804
      3098.8134
 04  9 10 22 48 59.9970000  0  6G 8G13G10G19G27G28
 -17745367.33149 -13812548.99748  19667766.7124   19667765.2714
      1984.3594
   5185701.62949   4039440.70946  21330413.4624   21330412.5134
     -2222.3914
  -7857742.03947  -6112532.94244  22588921.2744   22588922.1224
       161.6724
 -13682170.93149 -10660190.79446  21542671.8994   21542668.0014
       295.5164
  -9722114.81149  -7569596.67548  19789121.9314   19789120.0244
       833.8914
 -16272658.21649 -12660628.50146  21039451.8064   21039449.7944
      3093.6564
 04  9 10 22 49 14.9970000  0  6G 8G13G10G19G27G28
 -17775101.80549 -13835718.72148  19662108.4074   19662106.9544
      1979.7034
   5219074.83848   4065445.76646  21336763.9934   21336763.1814
     -2227.9374
  -7860105.19647  -6114374.39144  22588471.2984   22588471.9114
       152.7504
 -13686534.93749 -10663591.31946  21541841.0714   21541837.7554
       285.7814
  -9734594.59849  -7579321.19348  19786747.4464   19786745.2244
       829.5474
 -16319027.65249 -12696760.50646  21030627.6344   21030625.7314
      3088.3594
 04  9 10 22 49 29.9970000  0  6G 8G13G10G19G27G28
 -17804772.46849 -13858838.71648  19656462.4624   19656460.4584
      1975.9224
   5252526.06148   4091511.63345  21343130.0014   21343128.9274
     -2232.6564
  -7862338.68147  -6116114.76344  22588046.0244   22588047.6064
       144.5784
 -13690759.10548 -10666882.85746  21541036.8454   21541033.8534
       277.0004
  -9747015.99649  -7589000.20448  19784383.4624   19784381.2784
       826.1414
 -16365322.04049 -12732834.03146  21021818.5714   21021816.6654
      3083.7664
 04  9 10 22 49 44.9970000  0  6G 8G13G10G19G27G28
 -17834377.63849 -13881907.66848  19650828.7904   19650827.3174
      1972.1564
   5286056.74448   4117639.41446  21349510.5244   21349509.6034
     -2237.3284
  -7864440.84647  -6117752.84743  22587645.8844   22587646.9234
       136.5004
 -13694841.75949 -10670064.13946  21540260.2824   21540256.8494
       268.1564
  -9759377.21949  -7598632.32748  19782031.1884   19782029.2984
       822.7194
 -16411539.60849 -12768847.69646  21013023.3994   21013021.2514
      3079.2974
 04  9 10 22 49 59.9970000  0  6G 8G13G10G19G27G28
 -17863922.27749 -13904929.45748  19645206.5324   19645204.5444
      1967.6254
   5319661.69648   4143825.06946  21355905.2984   21355904.4784
     -2242.6874
  -7866416.92947  -6119292.66044  22587269.8924   22587270.8804
       127.6564
 -13698787.98748 -10673139.11446  21539509.3684   21539506.1144
       258.6094
  -9771683.19949  -7608221.39248  19779689.3604   19779687.6924
       818.6254
 -16457685.25249 -12804805.31146  21004241.5244   21004240.1104
      3074.0634
 04  9 10 22 50 14.9970000  0  6G 8G13G10G19G27G28
 -17893403.97449 -13927902.19848  19639596.3994   19639594.7554
      1963.2344
   5353342.77748   4170070.05145  21362314.5714   21362313.5214
     -2248.0624
  -7868264.90547  -6120732.63744  22586918.7124   22586919.0444
       118.8134
 -13702595.63948 -10676106.11046  21538784.2204   21538781.2044
       249.1414
  -9783931.50349  -7617765.52848  19777358.6964   19777356.8724
       814.4844
 -16503756.78049 -12840705.17847  20995474.6814   20995473.0914
      3068.8594
 04  9 10 22 50 29.9970000  0  6G 8G13G10G19G27G28
 -17922819.06149 -13950823.04448  19633998.6734   19633997.0834
      1958.6254
   5387103.37048   4196376.96745  21368739.1184   21368738.0134
     -2253.5164
  -7869981.52247  -6122070.28644  22586592.4854   22586592.4424
       109.9224
 -13706261.35049 -10678962.50846  21538087.0564   21538083.6344
       239.4534
  -9796118.64949  -7627262.00848  19775039.4464   19775037.5874
       810.2814
 -16549750.49249 -12876544.41347  20986722.7124   20986720.5604
      3063.4224
 04  9 10 22 50 44.9970000  0  6G 8G13G10G19G27G28
 -17952171.12649 -13973694.78048  19628413.2674   19628412.0834
      1954.7034
   5420939.37548   4222742.64845  21375178.0094   21375176.9034
     -2258.2664
  -7871570.55147  -6123308.48943  22586289.7824   22586290.4584
       101.6414
 -13709788.71348 -10681711.09646  21537415.8764   21537412.3644
       230.5164
  -9808248.15149  -7636713.57348  19772731.4154   19772729.5834
       806.7034
 -16595670.16049 -12912325.95746  20977984.3374   20977982.1104
      3058.7814
 04  9 10 22 50 59.9970000  0  6G 8G13G10G19G27G28
 -17981456.93749 -13996514.87948  19622840.5874   19622838.9354
      1950.2034
   5454853.80948   4249169.46445  21381631.7824   21381630.4584
     -2263.5164
  -7873029.06547  -6124445.00744  22586013.1814   22586013.1464
        92.9064
 -13713174.67648 -10684349.50246  21536771.5564   21536768.3724
       221.0634
  -9820316.77749  -7646117.70048  19770434.7514   19770433.4154
       802.5784
 -16641512.49449 -12948047.22746  20969261.2044   20969258.6964
      3053.6094
 04  9 10 22 51 14.9970000  0  6G 8G13G10G19G27G28
 -18010680.81449 -14019286.71648  19617279.2284   19617277.5444
      1946.5004
   5488841.98048   4275653.72845  21388098.8214   21388098.0994
     -2268.0944
  -7874361.60347  -6125483.34744  22585758.6424   22585759.1734
        84.9694
 -13716423.71449 -10686881.21646  21536153.4934   21536150.0134
       212.3444
  -9832328.77349  -7655477.69248  19768148.8684   19768147.1344
       799.2194
 -16687281.72149 -12983711.53346  20960550.7824   20960548.9704
      3049.1414
 04  9 10 22 51 29.9970000  0  6G 8G13G10G19G27G28
 -18039844.60849 -14042011.75148  19611729.5794   19611727.8924
      1942.2814
   5522901.58448   4302193.66445  21394580.6424   21394579.9894
     -2272.9374
  -7875570.36947  -6126425.25543  22585528.7514   22585529.3764
        76.5314
 -13719537.74648 -10689307.72746  21535560.8064   21535557.4854
       203.2034
  -9844286.10349  -7664795.08248  19765873.6104   19765872.0134
       795.4224
 -16732979.84549 -13019320.44246  20951855.1654   20951853.3064
      3044.2344
 04  9 10 22 51 44.9970000  0  6G 8G13G10G19G27G28
 -18068947.48049 -14064689.30448  19606191.4854   19606190.0794
      1938.2504
   5557033.36148   4328789.81545  21401075.7354   21401075.1814
     -2277.7814
  -7876654.69847  -6127270.21844  22585322.6104   22585323.1774
        68.2034
 -13722516.20048 -10691628.59946  21534993.8604   21534990.6344
       194.0784
  -9856187.75349  -7674069.11148  19763608.6264   19763607.2744
       791.6884
 -16778605.92049 -13054873.20946  20943172.9384   20943170.6464
      3039.3914
 04  9 10 22 51 59.9970000  0  6G 8G13G10G19G27G28
 -18097990.68749 -14087320.36648  19600664.4234   19600662.6694
      1934.1884
   5591235.65048   4355440.91645  21407583.9384   21407583.1224
     -2282.5624
  -7877616.25347  -6128019.48244  22585139.5484   22585139.9854
        59.9534
 -13725360.56249 -10693844.97046  21534453.1034   21534449.4234
       185.0784
  -9868035.11649  -7683300.81348  19761354.1344   19761352.5484
       787.9534
 -16824161.33449 -13090370.90746  20934503.5484   20934501.8104
      3034.6564
 04  9 10 22 52 14.9970000  0  6G 8G13G10G19G27G28
 -18126972.79049 -14109903.82048  19595149.7284   19595147.8454
      1930.4224
   5625509.24148   4382147.58445  21414106.0484   21414105.3494
     -2286.9694
  -7878454.05347  -6128672.33643  22584979.6494   22584980.8644
        52.1414
 -13728069.64448 -10695955.94246  21533937.2984   21533934.2474
       176.4064
  -9879826.84349  -7692489.18048  19759110.3214   19759108.2634
       784.5784
 -16869644.80449 -13125812.55346  20925848.3844   20925846.6104
      3030.1724
 04  9 10 22 52 29.9970000  0  6G 8G13G10G19G27G28
 -18155894.49849 -14132440.20448  19589646.4544   19589644.6534
      1925.7814
   5659853.32948   4408909.18245  21420641.7204   21420640.8684
     -2292.2974
  -7879168.89147  -6129229.35943  22584844.1494   22584844.5094
        43.2034
 -13730644.09448 -10697962.00446  21533447.0874   21533444.0444
       166.8284
  -9891563.54749  -7701634.66148  19756877.0244   19756875.3924
       780.2664
 -16915057.00349 -13161198.66347  20917207.0174   20917204.8884
      3024.7664
 04  9 10 22 52 44.9970000  0  6G 8G13G10G19G27G28
 -18184752.99149 -14154927.33548  19584154.2984   19584152.7044
      1921.8754
   5694269.97548   4435727.31845  21427190.6424   21427189.8534
     -2296.7194
  -7879758.67447  -6129688.93044  22584731.5174   22584732.0874
        35.1724
 -13733081.73548 -10699861.45646  21532983.5324   21532980.3414
       158.0164
  -9903242.67149  -7710735.27548  19754654.6264   19754652.7594
       776.7194
 -16960395.44549 -13196527.28646  20908579.2204   20908577.3374
      3020.1724
 04  9 10 22 52 59.9970000  0  6G 8G13G10G19G27G28
 -18213550.78349 -14177367.16048  19578674.4154   19578672.7434
      1917.7814
   5728756.45048   4462599.87645  21433753.4544   21433753.0994
     -2301.5314
  -7880225.90447  -6130053.02643  22584642.6884   22584643.5714
        27.0164
 -13735384.92048 -10701656.14346  21532545.4154   21532542.0404
       149.0004
  -9914866.56849  -7719792.86048  19752442.6574   19752440.7744
       773.0164
 -17005662.27149 -13231800.11347  20899965.2744   20899963.5214
      3015.3754
 04  9 10 22 53 14.9970000  0  6G 8G13G10G19G27G28
 -18242284.17049 -14199756.80548  19573206.6654   19573204.8294
      1913.7344
   5763316.05448   4489529.40845  21440330.3454   21440329.2824
     -2306.1724
  -7880567.42647  -6130319.15043  22584578.0094   22584578.2394
        18.8134
 -13737550.43649 -10703343.55246  21532133.1104   21532129.5404
       140.0314
  -9926431.77049  -7728804.70148  19750241.8764   19750240.1424
       769.3444
 -17050854.26249 -13267014.63447  20891365.5564   20891363.3994
      3010.5634
 04  9 10 22 53 29.9970000  0  6G 8G13G10G19G27G28
 -18270955.75149 -14222098.30348  19567750.6494   19567748.9664
      1909.0314
   5797945.85749   4516513.63645  21446920.1034   21446919.2904
     -2311.3914
  -7880785.92147  -6130489.43044  22584536.3134   22584536.7124
        10.0474
 -13739580.90448 -10704925.72746  21531746.5404   21531743.3684
       130.4844
  -9937940.57949  -7737772.61347  19748051.9314   19748049.9114
       764.9694
 -17095973.78949 -13302172.69147  20882779.5244   20882777.4314
      3005.1724
 04  9 10 22 53 44.9970000  0  6G 8G13G10G19G27G28
 -18299564.06849 -14244390.48648  19562306.8454   19562305.1264
      1905.3914
   5832647.03048   4543553.47745  21453523.5244   21453522.6654
     -2315.5624
  -7880880.20947  -6130562.90044  22584519.0324   22584518.9034
         2.3444
 -13741474.91348 -10706401.57546  21531385.7514   21531382.9194
       122.0314
  -9949391.53849  -7746695.43248  19745872.6264   19745870.7594
       761.7194
 -17141019.48249 -13337273.20146  20874207.7044   20874205.4974
      3000.8594
 04  9 10 22 53 59.9970000  0  6G 8G13G10G19G27G28
 -18328109.40749 -14266633.60548  19556874.5874   19556872.8454
      1900.5314
   5867418.99249   4570648.49345  21460140.2044   21460139.5014
     -2320.7664
  -7880850.89548  -6130540.06143  22584523.9314   22584524.5604
        -6.3754
 -13743232.93349 -10707771.46646  21531051.8134   21531048.6344
       112.3444
  -9960785.14149  -7755573.57048  19743704.4854   19743702.7434
       757.3284
 -17185991.61549 -13372316.41246  20865649.7594   20865647.3764
      2995.3594
 04  9 10 22 54 14.9970000  0  6G 8G13G10G19G27G28
 -18356589.54049 -14288825.90348  19551455.1264   19551453.2244
      1896.6724
   5902263.56649   4597800.08345  21466770.9384   21466770.0484
     -2325.1724
  -7880696.15247  -6130419.48944  22584553.6034   22584553.6534
       -14.2974
 -13744853.02648 -10709033.85746  21530743.0404   21530740.0444
       103.6254
  -9972119.00149  -7764405.14747  19741547.7204   19741545.8844
       753.7664
 -17230888.08849 -13407300.64247  20857106.2124   20857104.0364
      2990.7814
 04  9 10 22 54 29.9970000  0  6G 8G13G10G19G27G28
 -18385005.96949 -14310968.57648  19546047.3534   19546045.7824
      1892.0474
   5937178.80548   4625006.72345  21473415.1184   21473414.6854
     -2330.2814
  -7880417.83247  -6130202.64443  22584606.4704   22584606.7394
       -22.9224
 -13746336.90149 -10710190.12546  21530460.6884   21530457.5564
        94.1254
  -9983394.75349  -7773191.43648  19739402.3214   19739400.4274
       749.5004
 -17275710.39749 -13442227.10947  20848576.6184   20848575.1384
      2985.3914
 04  9 10 22 54 44.9970000  0  6G 8G13G10G19G27G28
 -18413356.52549 -14333059.90748  19540652.5714   19540650.7714
      1887.9534
   5972166.52149   4652269.84745  21480073.1424   21480072.2164
     -2334.7814
  -7880014.12747  -6129888.08244  22584683.4074   22584683.7674
       -30.9534
 -13747682.60549 -10711238.72246  21530205.1034   21530202.0364
        85.2194
  -9994610.21349  -7781930.76848  19737267.9934   19737265.7204
       745.8444
 -17320456.47349 -13477094.15947  20840061.8924   20840059.9464
      2980.6724
 04  9 10 22 54 59.9970000  0  6G 8G13G10G19G27G28
 -18441644.04749 -14355102.11848  19535269.6034   19535267.8104
      1883.5944
   6007223.53149   4679586.97345  21486743.8604   21486743.7124
     -2339.5944
  -7879488.05547  -6129478.16444  22584783.7354   22584784.1494
       -39.2814
 -13748893.09948 -10712181.96046  21529974.6034   21529971.0214
        76.0944
 -10005768.14849  -7790625.26147  19735144.9154   19735142.7354
       741.8134
 -17365129.17949 -13511904.03347  20831560.9154   20831558.8534
      2975.5474
 04  9 10 22 55 14.9970000  0  6G 8G13G10G19G27G28
 -18469866.37949 -14377093.54648  19529899.0954   19529897.1654
      1878.7974
   6042351.52748   4706959.40545  21493428.6884   21493428.3294
     -2344.7344
  -7878837.86747  -6128971.53844  22584906.4624   22584907.9464
       -48.0784
 -13749966.54749 -10713018.39846  21529770.2744   21529766.9894
        66.4224
 -10016866.61249  -7799273.41048  19733032.7204   19733030.9894
       737.3914
 -17409726.48849 -13546655.16647  20823074.3534   20823072.1734
      2970.1254
 04  9 10 22 55 29.9970000  0  6G 8G13G10G19G27G28
 -18498020.88849 -14399032.11248  19524541.6184   19524539.5214
      1874.7504
   6077552.72448   4734388.87445  21500127.6264   21500126.7674
     -2349.1564
  -7878061.15447  -6128366.29944  22585054.6344   22585055.6464
       -55.9374
 -13750900.43049 -10713746.10146  21529592.5174   21529589.2284
        57.6414
 -10027902.86949  -7807873.09348  19730932.5014   19730930.6854
       733.6884
 -17454245.70749 -13581345.44547  20814602.3064   20814600.4274
      2965.3594
 04  9 10 22 55 44.9970000  0  6G 8G13G10G19G27G28
 -18526108.92449 -14420918.88648  19519196.5794   19519194.7004
      1870.7504
   6112825.55548   4761874.17645  21506839.4384   21506839.1694
     -2353.4224
  -7877159.54347  -6127663.75343  22585226.8294   22585227.1384
       -63.7974
 -13751696.28849 -10714366.24246  21529441.4704   21529437.7004
        48.9224
 -10038878.12849  -7816425.23448  19728843.8764   19728841.9354
       730.0944
 -17498688.37549 -13615976.06647  20806145.3064   20806142.9744
      2960.7194
 04  9 10 22 55 59.9970000  0  6G 8G13G10G19G27G28
 -18554134.08549 -14442756.67548  19513863.3604   19513861.7314
      1865.8444
   6148165.83648   4789412.00645  21513564.3994   21513564.2474
     -2358.6414
  -7876137.19847  -6126867.15443  22585421.1654   22585421.8374
       -72.5784
 -13752358.13348 -10714881.96346  21529315.1814   21529311.2824
        39.2504
 -10049796.35549  -7824932.94747  19726766.2354   19726764.1884
       725.5314
 -17543058.17449 -13650549.92747  20797702.2354   20797699.7984
      2955.1254
 04  9 10 22 56 14.9970000  0  6G 8G13G10G19G27G28
 -18582091.89049 -14464541.96948  19508543.3374   19508541.7434
      1861.9064
   6183577.74949   4817005.68245  21520303.5404   21520302.6964
     -2362.8914
  -7874989.81947  -6125973.08743  22585639.0174   22585639.1304
       -80.3754
 -13752881.45948 -10715289.75146  21529215.3214   21529212.5674
        30.5474
 -10060652.87449  -7833392.56948  19724700.3844   19724698.6264
       722.0164
 -17587350.68149 -13685063.54447  20789273.4544   20789271.2984
      2950.5634
 04  9 10 22 56 29.9970000  0  6G 8G13G10G19G27G28
 -18609981.75349 -14486274.31448  19503235.9314   19503234.2824
      1857.0004
   6219061.68348   4844655.47045  21527056.1184   21527055.4784
     -2368.0784
  -7873717.05747  -6124981.34543  22585881.8134   22585882.1264
       -89.0624
 -13753265.83448 -10715589.26446  21529142.9784   21529139.2864
        20.9534
 -10071447.03849  -7841803.60847  19722646.5174   19722644.6734
       717.4534
 -17631565.14449 -13719516.34947  20780859.8064   20780857.4664
      2944.9844
 04  9 10 22 56 44.9970000  0  6G 8G13G10G19G27G28
 -18637800.65849 -14507951.38048  19497942.2744   19497940.6304
      1852.3754
   6254620.19449   4872363.37645  21533822.3844   21533821.8884
     -2372.9374
  -7872316.37246  -6123889.91143  22586147.9624   22586148.3994
       -97.6254
 -13753508.57348 -10715778.40346  21529096.2204   21529092.9384
        11.6254
 -10082175.97249  -7850163.81148  19720604.7904   19720602.7514
       713.2034
 -17675698.74049 -13753906.14947  20772461.7434   20772459.1614
      2939.6724
 04  9 10 22 56 59.9970000  0  6G 8G13G10G19G27G28
 -18665550.95049 -14529574.97948  19492661.5404   19492659.9464
      1847.6254
   6290250.61449   4900127.30745  21540603.2744   21540602.2044
     -2377.8594
  -7870790.32446  -6122700.80743  22586439.0484   22586438.7674
      -106.0314
 -13753612.16848 -10715859.12646  21529076.5094   21529072.6924
         2.1564
 -10092841.79249  -7858474.84948  19718575.2204   19718573.1614
       708.8914
 -17719753.80349 -13788234.74547  20764077.8134   20764075.7084
      2934.2974
 04  9 10 22 57 14.9970000  0  6G 8G13G10G19G27G28
 -18693227.87449 -14551141.40648  19487394.8064   19487393.2434
      1842.8444
   6325957.22349   4927950.60045  21547397.6884   21547396.4624
     -2382.7504
  -7869134.60446  -6121410.64043  22586753.6884   22586754.1814
      -114.5784
 -13753572.19448 -10715827.97346  21529084.1104   21529080.7204
        -7.1874
 -10103440.01949  -7866733.19848  19716558.2674   19716556.3414
       704.5004
 -17763725.71749 -13822498.55847  20755710.2204   20755707.7124
      2928.9224
 04  9 10 22 57 29.9970000  0  7G29G 8G13G10G19G27G28
   -151916.64257   -110316.98152  23339174.9854   23339174.1104
      4157.2664
 -18720836.15149 -14572654.34548  19482141.2284   19482139.3764
      1838.3754
   6361734.94749   4955829.31945  21554206.1964   21554204.9154
     -2387.4064
  -7867354.18846  -6120023.31943  22587092.7284   22587093.0484
      -122.7974
 -13753393.48348 -10715688.72046  21529118.4854   21529114.9274
       -16.4374
 -10113975.32449  -7874942.52448  19714553.6104   19714551.9384
       700.3444
 -17807619.26049 -13856701.29547  20747357.8684   20747355.6884
      2923.7194
 04  9 10 22 57 44.9970000  0  7G29G 8G13G10G19G27G28
   -214260.57747   -158896.63342  23327310.4704   23327310.0174
      4154.9224
 -18748381.74149 -14594118.43748  19476899.5714   19476897.5094
      1834.0944
   6397577.57349   4983758.60445  21561026.2904   21561025.9584
     -2391.8444
  -7865455.21946  -6118543.59743  22587453.8294   22587453.6144
      -130.7664
 -13753082.07148 -10715446.05546  21529177.5564   21529174.0214
       -25.4064
 -10124453.51349  -7883107.35348  19712559.6574   19712557.4234
       696.4384
 -17851440.34349 -13890847.58047  20739018.7744   20739016.4384
      2918.7504
 04  9 10 22 57 59.9970000  0  7G29G 8G13G10G19G27G28
   -276564.97347   -207445.48342  23315454.6814   23315454.0094
      4152.0634
 -18775857.24849 -14615527.90648  19471670.8064   19471669.0674
      1829.2034
   6433491.85248   5011743.73245  21567860.7124   21567859.7084
     -2396.8754
  -7863430.95146  -6116966.28743  22587838.9384   22587839.2244
      -139.4064
 -13752631.08848 -10715094.62946  21529263.3924   21529260.4504
       -35.0004
 -10134867.50349  -7891222.14748  19710577.6884   19710575.7394
       691.9534
 -17895181.83049 -13924931.82947  20730695.0794   20730692.8494
      2913.2814
 04  9 10 22 58 14.9970000  0  7G29G 8G13G10G19G27G28
   -338832.14947   -255965.30242  23303605.1494   23303605.6774
      4149.5634
 -18803265.27649 -14636884.81448  19466455.4784   19466453.9704
      1824.6564
   6469474.94448   5039782.45245  21574708.0714   21574707.4744
     -2401.4534
  -7861284.32347  -6115293.60843  22588248.1654   22588247.9854
      -147.4224
 -13752043.24847 -10714636.57646  21529375.0484   21529371.5674
       -44.0944
 -10145219.92149  -7899288.96248  19708607.7984   19708606.2984
       687.7814
 -17938846.35449 -13958956.12747  20722386.0324   20722383.6814
      2908.0784
 04  9 10 22 58 29.9970000  0  7G29G 8G13G10G19G27G28
   -401062.06547   -304456.11142  23291763.3684   23291763.5214
      4147.4224
 -18830605.87849 -14658189.16748  19461252.7284   19461250.9354
      1820.4384
   6505526.32748   5067874.41545  21581568.5484   21581567.7084
     -2405.6564
  -7859015.65847  -6113525.82043  22588680.0094   22588679.3414
      -155.3914
 -13751319.00248 -10714072.22346  21529512.8684   21529509.1774
       -52.8594
 -10155510.75749  -7907307.79648  19706649.7284   19706647.6344
       684.0164
 -17982434.07349 -13992920.55847  20714091.2354   20714088.8334
      2903.2664
 04  9 10 22 58 44.9970000  0  7G29G 8G13G10G19G27G28
   -463250.61447   -352914.68442  23279929.5564   23279928.7904
      4144.4064
 -18857875.08649 -14679437.89948  19456063.5954   19456062.0794
      1815.3444
   6541649.45548   5096022.26345  21588442.3454   21588441.9424
     -2410.8124
  -7856621.45046  -6111660.20243  22589135.2674   22589136.0014
      -163.9694
 -13750454.47148 -10713398.56946  21529677.5404   21529674.2784
       -62.5314
 -10165736.04649  -7915275.55148  19704704.1264   19704702.9034
       679.3284
 -18025941.09749 -14026822.11247  20705812.1344   20705810.0444
      2897.5474
 04  9 10 22 58 59.9970000  0  7G29G 8G13G10G19G27G28
   -525396.16347   -401339.74142  23268102.5094   23268102.4194
      4142.0784
 -18885071.59849 -14700629.97848  19450887.9854   19450886.3064
      1811.1884
   6577845.46948   5124226.92545  21595330.2434   21595329.9354
     -2414.9844
  -7854100.47947  -6109695.82643  22589615.2674   22589614.9384
      -171.7664
 -13749448.50847 -10712614.68546  21529868.7284   21529865.7634
       -71.2974
 -10175894.39749  -7923191.15148  19702770.7354   19702768.6614
       675.4844
 -18069366.07948 -14060659.73547  20697548.9784   20697546.8454
      2892.7664
 04  9 10 22 59 14.9970000  0  7G29G 8G13G10G19G27G28
   -587501.47147   -449733.44943  23256284.5174   23256285.0524
      4139.5004
 -18912198.64149 -14721767.93148  19445725.9314   19445724.4424
      1806.5784
   6614110.74848   5152485.53944  21602231.2124   21602230.9974
     -2419.5164
  -7851456.28346  -6107635.44043  22590117.8994   22590118.2474
      -179.9844
 -13748304.43947 -10711723.19846  21530086.7354   21530083.2904
       -80.4224
 -10185989.02549  -7931057.09847  19700849.6734   19700847.6264
       671.2814
 -18112712.22749 -14094435.93847  20689300.2354   20689298.0014
      2887.4694
